Time,TemperatureF,DewpointF,PressureIn,WindDirection,WindDirectionDegrees,WindSpeedMPH,WindSpeedGustMPH,Humidity,HourlyPrecipIn,Conditions,Clouds,dailyrainin,SolarRadiationWatts/m^2,SoftwareType,DateUTC
2013-01-31 00:00:00,60.5,58.4,29.48,South,178,0.0,0.9,92,0.00,,,-99.99,1.0,HOBO +U30 +Weather +,2013-01-31 05:00:00,
2013-01-31 00:01:00,60.4,58.4,29.48,South,178,0.0,0.0,92,0.00,,,-99.99,1.0,HOBO +U30 +Weather +,2013-01-31 05:01:00,
2013-01-31 00:02:00,60.3,58.3,29.47,SSW,202,0.0,0.0,92,0.00,,,-99.99,1.0,HOBO +U30 +Weather +,2013-01-31 05:02:00,
2013-01-31 00:03:00,60.3,58.3,29.47,South,187,0.0,0.0,92,0.00,,,-99.99,1.0,HOBO +U30 +Weather +,2013-01-31 05:03:00,
2013-01-31 00:04:00,60.3,58.3,29.47,SSW,199,0.0,0.9,92,0.00,,,-99.99,1.0,HOBO +U30 +Weather +,2013-01-31 05:04:00,
2013-01-31 00:05:00,60.3,58.3,29.47,South,187,0.0,0.9,92,0.00,,,-99.99,1.0,HOBO +U30 +Weather +,2013-01-31 05:05:00,
2013-01-31 00:06:00,60.4,58.3,29.46,South,183,0.0,0.0,92,0.00,,,-99.99,1.0,HOBO +U30 +Weather +,2013-01-31 05:06:00,
2013-01-31 00:07:00,60.3,58.1,29.46,West,274,0.0,0.0,92,0.00,,,-99.99,1.0,HOBO +U30 +Weather +,2013-01-31 05:07:00,
2013-01-31 00:08:00,60.2,58.1,29.46,SSW,212,0.0,0.0,92,0.00,,,-99.99,1.0,HOBO +U30 +Weather +,2013-01-31 05:08:00,
2013-01-31 00:09:00,60.3,58.3,29.46,South,178,0.0,0.9,93,0.00,,,-99.99,1.0,HOBO +U30 +Weather +,2013-01-31 05:09:00,
2013-01-31 00:10:00,60.3,58.2,29.46,South,190,0.0,0.0,92,0.00,,,-99.99,1.0,HOBO +U30 +Weather +,2013-01-31 05:10:00,
2013-01-31 00:11:00,60.3,58.1,29.46,South,187,0.0,0.0,92,0.00,,,-99.99,1.0,HOBO +U30 +Weather +,2013-01-31 05:11:00,
2013-01-31 00:12:00,60.3,58.2,29.46,SSW,198,0.0,0.0,92,0.00,,,-99.99,1.0,HOBO +U30 +Weather +,2013-01-31 05:12:00,
2013-01-31 00:13:00,60.3,58.1,29.46,SSW,194,0.0,0.0,92,0.00,,,-99.99,1.0,HOBO +U30 +Weather +,2013-01-31 05:13:00,
2013-01-31 00:14:00,60.2,58.1,29.46,SSW,194,0.0,0.0,92,0.00,,,-99.99,1.0,HOBO +U30 +Weather +,2013-01-31 05:14:00,
2013-01-31 00:15:00,60.2,58.1,29.46,South,191,0.0,0.0,92,0.00,,,-99.99,1.0,HOBO +U30 +Weather +,2013-01-31 05:15:00,
2013-01-31 00:16:00,60.3,58.2,29.45,SW,219,0.0,0.0,92,0.00,,,-99.99,1.0,HOBO +U30 +Weather +,2013-01-31 05:16:00,
2013-01-31 00:17:00,60.3,58.2,29.45,SSW,204,0.0,0.0,92,0.00,,,-99.99,1.0,HOBO +U30 +Weather +,2013-01-31 05:17:00,
2013-01-31 00:18:00,60.3,58.2,29.45,South,191,0.0,0.0,92,0.00,,,-99.99,1.0,HOBO +U30 +Weather +,2013-01-31 05:18:00,
2013-01-31 00:19:00,60.3,58.2,29.45,South,191,0.0,0.0,92,0.00,,,-99.99,1.0,HOBO +U30 +Weather +,2013-01-31 05:19:00,
2013-01-31 00:20:00,60.3,58.1,29.45,SSW,201,0.0,0.0,92,0.00,,,-99.99,1.0,HOBO +U30 +Weather +,2013-01-31 05:20:00,
2013-01-31 00:21:00,60.2,58.1,29.45,SSW,209,0.0,0.0,92,0.00,,,-99.99,1.0,HOBO +U30 +Weather +,2013-01-31 05:21:00,
2013-01-31 00:22:00,60.2,58.1,29.45,SSW,202,0.0,0.0,92,0.00,,,-99.99,1.0,HOBO +U30 +Weather +,2013-01-31 05:22:00,
2013-01-31 00:23:00,60.3,58.2,29.45,South,188,0.0,0.9,92,0.00,,,-99.99,1.0,HOBO +U30 +Weather +,2013-01-31 05:23:00,
2013-01-31 00:24:00,60.3,58.1,29.45,SSW,209,0.0,0.0,92,0.00,,,-99.99,1.0,HOBO +U30 +Weather +,2013-01-31 05:24:00,
2013-01-31 00:25:00,60.3,58.2,29.46,South,191,0.0,0.0,92,0.00,,,-99.99,1.0,HOBO +U30 +Weather +,2013-01-31 05:25:00,
2013-01-31 00:26:00,60.5,58.3,29.45,SSW,194,0.0,0.9,92,0.00,,,-99.99,1.0,HOBO +U30 +Weather +,2013-01-31 05:26:00,
2013-01-31 00:27:00,60.5,58.2,29.45,SSW,192,0.0,0.0,92,0.00,,,-99.99,1.0,HOBO +U30 +Weather +,2013-01-31 05:27:00,
2013-01-31 00:28:00,60.5,58.2,29.45,SSW,197,0.0,0.0,92,0.00,,,-99.99,1.0,HOBO +U30 +Weather +,2013-01-31 05:28:00,
2013-01-31 00:29:00,60.4,58.1,29.44,South,188,0.0,0.0,91,0.00,,,-99.99,1.0,HOBO +U30 +Weather +,2013-01-31 05:29:00,
2013-01-31 00:30:00,60.4,58.1,29.44,South,185,0.0,0.0,92,0.00,,,-99.99,1.0,HOBO +U30 +Weather +,2013-01-31 05:30:00,
2013-01-31 00:31:00,60.3,57.9,29.45,SW,216,0.0,0.0,91,0.00,,,-99.99,1.0,HOBO +U30 +Weather +,2013-01-31 05:31:00,
2013-01-31 00:32:00,60.2,57.8,29.44,SSW,198,0.0,0.0,91,0.00,,,-99.99,1.0,HOBO +U30 +Weather +,2013-01-31 05:32:00,
2013-01-31 00:33:00,60.2,58.0,29.44,South,181,0.0,0.0,92,0.00,,,-99.99,1.0,HOBO +U30 +Weather +,2013-01-31 05:33:00,
2013-01-31 00:34:00,60.3,58.1,29.44,SSW,198,0.0,0.0,92,0.00,,,-99.99,1.0,HOBO +U30 +Weather +,2013-01-31 05:34:00,
2013-01-31 00:35:00,60.2,57.8,29.44,South,185,0.0,0.0,91,0.00,,,-99.99,1.0,HOBO +U30 +Weather +,2013-01-31 05:35:00,
2013-01-31 00:36:00,60.1,57.9,29.44,SSW,202,0.0,0.0,92,0.00,,,-99.99,1.0,HOBO +U30 +Weather +,2013-01-31 05:36:00,
2013-01-31 00:37:00,60.1,57.9,29.44,SSW,199,0.0,0.0,92,0.00,,,-99.99,1.0,HOBO +U30 +Weather +,2013-01-31 05:37:00,
2013-01-31 00:38:00,60.1,57.8,29.45,South,183,0.0,0.0,92,0.00,,,-99.99,1.0,HOBO +U30 +Weather +,2013-01-31 05:38:00,
2013-01-31 00:39:00,60.1,57.8,29.44,South,190,0.0,0.0,92,0.00,,,-99.99,1.0,HOBO +U30 +Weather +,2013-01-31 05:39:00,
2013-01-31 00:40:00,60.0,57.8,29.44,SW,215,0.0,0.0,92,0.00,,,-99.99,1.0,HOBO +U30 +Weather +,2013-01-31 05:40:00,
2013-01-31 00:41:00,60.0,57.8,29.43,SSW,201,0.0,0.0,92,0.00,,,-99.99,1.0,HOBO +U30 +Weather +,2013-01-31 05:41:00,
2013-01-31 00:42:00,59.9,57.7,29.44,SSW,204,0.0,0.0,92,0.00,,,-99.99,1.0,HOBO +U30 +Weather +,2013-01-31 05:42:00,
2013-01-31 00:43:00,59.9,57.8,29.43,South,185,0.0,0.0,92,0.00,,,-99.99,1.0,HOBO +U30 +Weather +,2013-01-31 05:43:00,
2013-01-31 00:44:00,59.9,57.8,29.43,SSW,198,0.0,0.0,92,0.00,,,-99.99,1.0,HOBO +U30 +Weather +,2013-01-31 05:44:00,
2013-01-31 00:45:00,59.9,57.7,29.43,SSW,201,0.0,0.0,92,0.00,,,-99.99,1.0,HOBO +U30 +Weather +,2013-01-31 05:45:00,
2013-01-31 00:46:00,59.8,57.7,29.44,South,190,0.0,0.0,92,0.00,,,-99.99,1.0,HOBO +U30 +Weather +,2013-01-31 05:46:00,
2013-01-31 00:47:00,59.8,57.7,29.42,South,190,0.0,0.0,92,0.00,,,-99.99,1.0,HOBO +U30 +Weather +,2013-01-31 05:47:00,
2013-01-31 00:48:00,59.8,57.8,29.43,South,185,0.0,0.0,92,0.00,,,-99.99,1.0,HOBO +U30 +Weather +,2013-01-31 05:48:00,
2013-01-31 00:49:00,60.0,57.9,29.44,South,188,0.0,0.9,92,0.00,,,-99.99,1.0,HOBO +U30 +Weather +,2013-01-31 05:49:00,
2013-01-31 00:50:00,60.0,57.7,29.44,South,187,0.0,0.0,92,0.00,,,-99.99,1.0,HOBO +U30 +Weather +,2013-01-31 05:50:00,
2013-01-31 00:51:00,59.9,57.7,29.43,SSW,194,0.0,0.0,92,0.00,,,-99.99,1.0,HOBO +U30 +Weather +,2013-01-31 05:51:00,
2013-01-31 00:52:00,59.9,57.7,29.43,South,185,0.0,0.0,92,0.00,,,-99.99,1.0,HOBO +U30 +Weather +,2013-01-31 05:52:00,
2013-01-31 00:53:00,59.8,57.7,29.42,South,187,0.0,0.0,92,0.00,,,-99.99,1.0,HOBO +U30 +Weather +,2013-01-31 05:53:00,
2013-01-31 00:54:00,59.8,57.7,29.42,South,185,0.0,0.0,92,0.00,,,-99.99,1.0,HOBO +U30 +Weather +,2013-01-31 05:54:00,
2013-01-31 00:55:00,59.8,57.7,29.42,SSW,195,0.0,0.0,92,0.00,,,-99.99,1.0,HOBO +U30 +Weather +,2013-01-31 05:55:00,
2013-01-31 00:58:00,59.7,57.5,29.42,SSW,202,0.0,0.0,92,0.00,,,-99.99,1.0,HOBO +U30 +Weather +,2013-01-31 05:58:00,
2013-01-31 01:05:00,59.5,57.4,29.42,South,190,0.0,0.0,92,0.00,,,-99.99,1.0,HOBO +U30 +Weather +,2013-01-31 06:05:00,
2013-01-31 01:06:00,59.5,57.4,29.41,South,180,0.0,0.9,92,0.00,,,-99.99,1.0,HOBO +U30 +Weather +,2013-01-31 06:06:00,
2013-01-31 01:07:00,59.5,57.4,29.41,South,175,0.0,0.9,92,0.00,,,-99.99,1.0,HOBO +U30 +Weather +,2013-01-31 06:07:00,
2013-01-31 01:08:00,59.5,57.4,29.42,South,184,0.0,0.0,92,0.00,,,-99.99,1.0,HOBO +U30 +Weather +,2013-01-31 06:08:00,
2013-01-31 01:09:00,59.6,57.5,29.41,SSW,194,0.0,0.0,92,0.00,,,-99.99,1.0,HOBO +U30 +Weather +,2013-01-31 06:09:00,
2013-01-31 01:10:00,59.5,57.4,29.42,South,171,0.0,0.9,92,0.00,,,-99.99,1.0,HOBO +U30 +Weather +,2013-01-31 06:10:00,
2013-01-31 01:11:00,59.5,57.3,29.42,South,185,0.0,0.0,92,0.00,,,-99.99,1.0,HOBO +U30 +Weather +,2013-01-31 06:11:00,
2013-01-31 01:12:00,59.3,57.2,29.41,SW,219,0.0,0.0,92,0.00,,,-99.99,1.0,HOBO +U30 +Weather +,2013-01-31 06:12:00,
2013-01-31 01:13:00,59.2,57.1,29.41,South,190,0.0,0.0,92,0.00,,,-99.99,1.0,HOBO +U30 +Weather +,2013-01-31 06:13:00,
2013-01-31 01:14:00,59.2,57.2,29.41,South,185,0.0,0.0,92,0.00,,,-99.99,1.0,HOBO +U30 +Weather +,2013-01-31 06:14:00,
2013-01-31 01:15:00,59.2,57.2,29.41,South,184,0.0,0.9,93,0.00,,,-99.99,1.0,HOBO +U30 +Weather +,2013-01-31 06:15:00,
2013-01-31 01:16:00,59.2,57.2,29.41,South,183,0.0,0.0,93,0.00,,,-99.99,1.0,HOBO +U30 +Weather +,2013-01-31 06:16:00,
2013-01-31 01:17:00,59.3,57.3,29.41,South,181,0.0,0.0,92,0.00,,,-99.99,1.0,HOBO +U30 +Weather +,2013-01-31 06:17:00,
2013-01-31 01:18:00,59.3,57.3,29.41,South,180,0.0,0.9,92,0.00,,,-99.99,1.0,HOBO +U30 +Weather +,2013-01-31 06:18:00,
2013-01-31 01:19:00,59.4,57.3,29.41,South,177,0.0,0.9,92,0.00,,,-99.99,1.0,HOBO +U30 +Weather +,2013-01-31 06:19:00,
2013-01-31 01:20:00,59.4,57.3,29.41,SSW,199,0.0,0.0,92,0.00,,,-99.99,1.0,HOBO +U30 +Weather +,2013-01-31 06:20:00,
2013-01-31 01:21:00,59.4,57.3,29.41,South,177,0.0,0.0,92,0.00,,,-99.99,1.0,HOBO +U30 +Weather +,2013-01-31 06:21:00,
2013-01-31 01:22:00,59.5,57.4,29.40,South,178,0.0,0.9,92,0.00,,,-99.99,1.0,HOBO +U30 +Weather +,2013-01-31 06:22:00,
2013-01-31 01:23:00,59.4,57.2,29.40,SSW,194,0.0,0.0,92,0.00,,,-99.99,1.0,HOBO +U30 +Weather +,2013-01-31 06:23:00,
2013-01-31 01:24:00,59.3,57.2,29.40,South,183,0.0,0.0,92,0.00,,,-99.99,1.0,HOBO +U30 +Weather +,2013-01-31 06:24:00,
2013-01-31 01:25:00,59.4,57.3,29.39,South,187,0.0,0.0,92,0.00,,,-99.99,1.0,HOBO +U30 +Weather +,2013-01-31 06:25:00,
2013-01-31 01:26:00,59.2,57.1,29.40,South,188,0.0,0.9,92,0.00,,,-99.99,1.0,HOBO +U30 +Weather +,2013-01-31 06:26:00,
2013-01-31 01:27:00,59.2,57.2,29.40,SSW,192,0.0,0.0,92,0.00,,,-99.99,1.0,HOBO +U30 +Weather +,2013-01-31 06:27:00,
2013-01-31 01:28:00,59.2,57.1,29.40,South,191,0.0,0.0,92,0.00,,,-99.99,1.0,HOBO +U30 +Weather +,2013-01-31 06:28:00,
2013-01-31 01:29:00,59.2,57.2,29.40,SSW,198,0.0,0.0,92,0.00,,,-99.99,1.0,HOBO +U30 +Weather +,2013-01-31 06:29:00,
2013-01-31 01:30:00,59.2,57.2,29.40,South,185,0.0,0.9,92,0.00,,,-99.99,1.0,HOBO +U30 +Weather +,2013-01-31 06:30:00,
2013-01-31 01:31:00,59.2,57.1,29.40,South,190,0.0,0.9,92,0.00,,,-99.99,1.0,HOBO +U30 +Weather +,2013-01-31 06:31:00,
2013-01-31 01:32:00,59.3,57.3,29.40,SSW,194,0.0,0.9,92,0.00,,,-99.99,1.0,HOBO +U30 +Weather +,2013-01-31 06:32:00,
2013-01-31 01:33:00,59.4,57.3,29.40,SSW,192,0.0,0.0,92,0.00,,,-99.99,1.0,HOBO +U30 +Weather +,2013-01-31 06:33:00,
2013-01-31 01:34:00,59.4,57.3,29.40,SSW,201,0.0,0.0,92,0.00,,,-99.99,1.0,HOBO +U30 +Weather +,2013-01-31 06:34:00,
2013-01-31 01:35:00,59.5,57.4,29.39,South,181,0.0,0.0,92,0.00,,,-99.99,1.0,HOBO +U30 +Weather +,2013-01-31 06:35:00,
2013-01-31 01:36:00,59.5,57.3,29.39,SSW,199,0.0,0.0,92,0.00,,,-99.99,1.0,HOBO +U30 +Weather +,2013-01-31 06:36:00,
2013-01-31 01:37:00,59.5,57.3,29.39,SSW,194,0.0,0.9,92,0.00,,,-99.99,1.0,HOBO +U30 +Weather +,2013-01-31 06:37:00,
2013-01-31 01:38:00,59.5,57.3,29.39,South,184,0.0,0.0,92,0.00,,,-99.99,1.0,HOBO +U30 +Weather +,2013-01-31 06:38:00,
2013-01-31 01:39:00,59.5,57.3,29.39,South,177,0.0,0.0,92,0.00,,,-99.99,1.0,HOBO +U30 +Weather +,2013-01-31 06:39:00,
2013-01-31 01:40:00,59.5,57.3,29.39,SSW,197,0.0,0.0,92,0.00,,,-99.99,1.0,HOBO +U30 +Weather +,2013-01-31 06:40:00,
2013-01-31 01:41:00,59.5,57.3,29.38,South,188,0.0,0.9,92,0.00,,,-99.99,1.0,HOBO +U30 +Weather +,2013-01-31 06:41:00,
2013-01-31 01:42:00,59.5,57.3,29.38,South,187,0.0,0.0,92,0.00,,,-99.99,1.0,HOBO +U30 +Weather +,2013-01-31 06:42:00,
2013-01-31 01:43:00,59.5,57.3,29.39,SSW,199,0.0,0.9,92,0.00,,,-99.99,1.0,HOBO +U30 +Weather +,2013-01-31 06:43:00,
2013-01-31 01:44:00,59.5,57.3,29.38,SSW,204,0.0,0.0,92,0.00,,,-99.99,1.0,HOBO +U30 +Weather +,2013-01-31 06:44:00,
2013-01-31 01:45:00,59.6,57.3,29.38,South,190,0.0,0.0,92,0.00,,,-99.99,1.0,HOBO +U30 +Weather +,2013-01-31 06:45:00,
2013-01-31 01:46:00,59.6,57.3,29.38,SSW,197,0.0,0.0,92,0.00,,,-99.99,1.0,HOBO +U30 +Weather +,2013-01-31 06:46:00,
2013-01-31 01:47:00,59.5,57.2,29.38,South,185,0.0,0.0,92,0.00,,,-99.99,1.0,HOBO +U30 +Weather +,2013-01-31 06:47:00,
2013-01-31 01:48:00,59.5,57.2,29.38,South,188,0.0,0.0,92,0.00,,,-99.99,1.0,HOBO +U30 +Weather +,2013-01-31 06:48:00,
2013-01-31 01:49:00,59.5,57.3,29.38,SSW,195,0.0,0.0,92,0.00,,,-99.99,1.0,HOBO +U30 +Weather +,2013-01-31 06:49:00,
2013-01-31 01:50:00,59.5,57.3,29.38,South,187,0.0,0.0,92,0.00,,,-99.99,1.0,HOBO +U30 +Weather +,2013-01-31 06:50:00,
2013-01-31 01:51:00,59.4,57.1,29.38,SSW,192,0.0,0.0,92,0.00,,,-99.99,1.0,HOBO +U30 +Weather +,2013-01-31 06:51:00,
2013-01-31 01:52:00,59.5,57.3,29.38,SSW,194,0.0,0.0,92,0.00,,,-99.99,1.0,HOBO +U30 +Weather +,2013-01-31 06:52:00,
2013-01-31 01:53:00,59.5,57.2,29.38,South,178,0.0,0.9,92,0.00,,,-99.99,1.0,HOBO +U30 +Weather +,2013-01-31 06:53:00,
2013-01-31 01:54:00,59.6,57.3,29.38,SSW,194,0.0,0.9,92,0.00,,,-99.99,1.0,HOBO +U30 +Weather +,2013-01-31 06:54:00,
2013-01-31 01:55:00,59.5,57.2,29.38,South,190,0.0,0.0,91,0.00,,,-99.99,1.0,HOBO +U30 +Weather +,2013-01-31 06:55:00,
2013-01-31 01:56:00,59.5,57.2,29.36,SSW,192,0.0,0.0,92,0.00,,,-99.99,1.0,HOBO +U30 +Weather +,2013-01-31 06:56:00,
2013-01-31 01:57:00,59.5,57.2,29.37,South,185,0.0,0.0,92,0.00,,,-99.99,1.0,HOBO +U30 +Weather +,2013-01-31 06:57:00,
2013-01-31 01:58:00,59.3,57.0,29.36,SSW,194,0.0,0.0,92,0.00,,,-99.99,1.0,HOBO +U30 +Weather +,2013-01-31 06:58:00,
2013-01-31 01:59:00,59.5,57.2,29.36,SSW,194,0.0,0.9,92,0.00,,,-99.99,1.0,HOBO +U30 +Weather +,2013-01-31 06:59:00,
2013-01-31 02:00:00,59.5,57.2,29.36,South,178,0.0,0.9,92,0.00,,,-99.99,1.0,HOBO +U30 +Weather +,2013-01-31 07:00:00,
2013-01-31 02:01:00,59.5,57.2,29.37,South,183,0.0,0.0,92,0.00,,,-99.99,1.0,HOBO +U30 +Weather +,2013-01-31 07:01:00,
2013-01-31 02:02:00,59.6,57.3,29.36,South,180,0.0,1.8,91,0.00,,,-99.99,1.0,HOBO +U30 +Weather +,2013-01-31 07:02:00,
2013-01-31 02:03:00,59.6,57.3,29.36,South,185,0.0,0.9,91,0.00,,,-99.99,1.0,HOBO +U30 +Weather +,2013-01-31 07:03:00,
2013-01-31 02:04:00,59.6,57.3,29.36,South,188,0.0,0.0,91,0.00,,,-99.99,1.0,HOBO +U30 +Weather +,2013-01-31 07:04:00,
2013-01-31 02:05:00,59.5,57.1,29.35,South,187,0.0,0.0,91,0.00,,,-99.99,1.0,HOBO +U30 +Weather +,2013-01-31 07:05:00,
2013-01-31 02:06:00,59.5,57.1,29.35,South,173,0.0,0.0,91,0.00,,,-99.99,1.0,HOBO +U30 +Weather +,2013-01-31 07:06:00,
2013-01-31 02:07:00,59.4,57.1,29.35,South,187,0.0,0.0,92,0.00,,,-99.99,1.0,HOBO +U30 +Weather +,2013-01-31 07:07:00,
2013-01-31 02:08:00,59.4,57.1,29.35,South,188,0.0,0.0,92,0.00,,,-99.99,1.0,HOBO +U30 +Weather +,2013-01-31 07:08:00,
2013-01-31 02:09:00,59.3,57.0,29.35,South,191,0.0,0.9,92,0.00,,,-99.99,1.0,HOBO +U30 +Weather +,2013-01-31 07:09:00,
2013-01-31 02:10:00,59.5,57.2,29.35,South,187,0.0,0.0,92,0.00,,,-99.99,1.0,HOBO +U30 +Weather +,2013-01-31 07:10:00,
2013-01-31 02:11:00,59.5,57.2,29.35,South,181,0.0,0.9,92,0.00,,,-99.99,1.0,HOBO +U30 +Weather +,2013-01-31 07:11:00,
2013-01-31 02:12:00,59.5,57.2,29.35,South,188,0.0,0.0,91,0.00,,,-99.99,1.0,HOBO +U30 +Weather +,2013-01-31 07:12:00,
2013-01-31 02:13:00,59.5,57.1,29.35,SSW,199,0.0,0.0,91,0.00,,,-99.99,1.0,HOBO +U30 +Weather +,2013-01-31 07:13:00,
2013-01-31 02:14:00,59.5,57.2,29.36,South,191,0.0,0.9,92,0.00,,,-99.99,1.0,HOBO +U30 +Weather +,2013-01-31 07:14:00,
2013-01-31 02:15:00,59.5,57.2,29.35,South,190,0.0,0.0,92,0.00,,,-99.99,1.0,HOBO +U30 +Weather +,2013-01-31 07:15:00,
2013-01-31 02:16:00,59.5,57.2,29.35,South,181,0.0,0.0,92,0.00,,,-99.99,1.0,HOBO +U30 +Weather +,2013-01-31 07:16:00,
2013-01-31 02:17:00,59.5,57.2,29.35,South,185,0.0,0.0,91,0.00,,,-99.99,1.0,HOBO +U30 +Weather +,2013-01-31 07:17:00,
2013-01-31 02:18:00,59.6,57.3,29.35,South,180,0.0,0.9,92,0.00,,,-99.99,1.0,HOBO +U30 +Weather +,2013-01-31 07:18:00,
2013-01-31 02:19:00,59.6,57.3,29.35,South,180,0.0,0.0,91,0.00,,,-99.99,1.0,HOBO +U30 +Weather +,2013-01-31 07:19:00,
2013-01-31 02:20:00,59.6,57.2,29.34,South,177,0.0,0.0,91,0.00,,,-99.99,1.0,HOBO +U30 +Weather +,2013-01-31 07:20:00,
2013-01-31 02:21:00,59.6,57.3,29.35,South,191,0.0,1.8,92,0.00,,,-99.99,1.0,HOBO +U30 +Weather +,2013-01-31 07:21:00,
2013-01-31 02:22:00,59.7,57.4,29.35,SSE,161,0.0,0.9,91,0.00,,,-99.99,1.0,HOBO +U30 +Weather +,2013-01-31 07:22:00,
2013-01-31 02:23:00,59.7,57.3,29.34,South,188,0.0,0.0,91,0.00,,,-99.99,1.0,HOBO +U30 +Weather +,2013-01-31 07:23:00,
2013-01-31 02:24:00,59.5,57.1,29.34,SSW,195,0.0,0.0,91,0.00,,,-99.99,1.0,HOBO +U30 +Weather +,2013-01-31 07:24:00,
2013-01-31 02:25:00,59.5,57.2,29.34,South,184,0.0,0.9,92,0.00,,,-99.99,1.0,HOBO +U30 +Weather +,2013-01-31 07:25:00,
2013-01-31 02:26:00,59.5,57.2,29.34,SSW,202,0.0,0.0,92,0.00,,,-99.99,1.0,HOBO +U30 +Weather +,2013-01-31 07:26:00,
2013-01-31 02:27:00,59.6,57.3,29.34,South,190,0.0,0.0,92,0.00,,,-99.99,1.0,HOBO +U30 +Weather +,2013-01-31 07:27:00,
2013-01-31 02:28:00,59.5,57.2,29.34,SSW,194,0.0,0.9,92,0.00,,,-99.99,1.0,HOBO +U30 +Weather +,2013-01-31 07:28:00,
2013-01-31 02:29:00,59.6,57.3,29.34,SSW,211,0.0,0.0,91,0.00,,,-99.99,1.0,HOBO +U30 +Weather +,2013-01-31 07:29:00,
2013-01-31 02:30:00,59.5,57.1,29.34,South,181,0.0,0.0,91,0.00,,,-99.99,1.0,HOBO +U30 +Weather +,2013-01-31 07:30:00,
2013-01-31 02:31:00,59.5,57.2,29.33,SSE,156,0.0,0.0,92,0.00,,,-99.99,1.0,HOBO +U30 +Weather +,2013-01-31 07:31:00,
2013-01-31 02:32:00,59.5,57.2,29.34,South,178,0.0,0.0,92,0.00,,,-99.99,1.0,HOBO +U30 +Weather +,2013-01-31 07:32:00,
2013-01-31 02:33:00,59.4,57.1,29.32,South,184,0.0,0.0,92,0.00,,,-99.99,1.0,HOBO +U30 +Weather +,2013-01-31 07:33:00,
2013-01-31 02:34:00,59.5,57.2,29.34,South,180,0.0,0.0,92,0.00,,,-99.99,1.0,HOBO +U30 +Weather +,2013-01-31 07:34:00,
2013-01-31 02:35:00,59.5,57.2,29.34,South,178,0.0,0.9,92,0.00,,,-99.99,1.0,HOBO +U30 +Weather +,2013-01-31 07:35:00,
2013-01-31 02:36:00,59.5,57.2,29.33,South,184,0.0,0.9,92,0.00,,,-99.99,1.0,HOBO +U30 +Weather +,2013-01-31 07:36:00,
2013-01-31 02:37:00,59.5,57.2,29.33,South,187,0.0,0.0,91,0.00,,,-99.99,1.0,HOBO +U30 +Weather +,2013-01-31 07:37:00,
2013-01-31 02:38:00,59.5,57.1,29.33,South,187,0.0,0.0,91,0.00,,,-99.99,1.0,HOBO +U30 +Weather +,2013-01-31 07:38:00,
2013-01-31 02:39:00,59.4,57.1,29.32,SSE,163,0.0,0.0,92,0.00,,,-99.99,1.0,HOBO +U30 +Weather +,2013-01-31 07:39:00,
2013-01-31 02:40:00,59.4,57.1,29.33,SSW,205,0.0,0.0,92,0.00,,,-99.99,1.0,HOBO +U30 +Weather +,2013-01-31 07:40:00,
2013-01-31 02:41:00,59.4,57.1,29.33,South,190,0.0,0.0,92,0.00,,,-99.99,1.0,HOBO +U30 +Weather +,2013-01-31 07:41:00,
2013-01-31 02:42:00,59.4,57.1,29.33,SSW,192,0.0,0.0,92,0.00,,,-99.99,1.0,HOBO +U30 +Weather +,2013-01-31 07:42:00,
2013-01-31 02:43:00,59.5,57.2,29.32,SSW,204,0.0,0.9,92,0.00,,,-99.99,1.0,HOBO +U30 +Weather +,2013-01-31 07:43:00,
2013-01-31 02:44:00,59.5,57.2,29.32,South,178,0.0,0.0,92,0.00,,,-99.99,1.0,HOBO +U30 +Weather +,2013-01-31 07:44:00,
2013-01-31 02:45:00,59.4,57.1,29.32,South,187,0.0,0.9,92,0.00,,,-99.99,1.0,HOBO +U30 +Weather +,2013-01-31 07:45:00,
2013-01-31 02:46:00,59.4,57.1,29.32,South,184,0.0,0.9,92,0.00,,,-99.99,1.0,HOBO +U30 +Weather +,2013-01-31 07:46:00,
2013-01-31 02:47:00,59.4,57.1,29.33,SSW,199,0.0,0.0,92,0.00,,,-99.99,1.0,HOBO +U30 +Weather +,2013-01-31 07:47:00,
2013-01-31 02:48:00,59.4,57.2,29.32,SSW,199,0.0,0.0,92,0.00,,,-99.99,1.0,HOBO +U30 +Weather +,2013-01-31 07:48:00,
2013-01-31 02:49:00,59.5,57.2,29.31,South,175,0.0,0.9,92,0.00,,,-99.99,1.0,HOBO +U30 +Weather +,2013-01-31 07:49:00,
2013-01-31 02:50:00,59.5,57.2,29.31,South,174,0.0,0.0,92,0.00,,,-99.99,1.0,HOBO +U30 +Weather +,2013-01-31 07:50:00,
2013-01-31 02:51:00,59.5,57.2,29.31,SSW,198,0.0,0.0,92,0.00,,,-99.99,1.0,HOBO +U30 +Weather +,2013-01-31 07:51:00,
2013-01-31 02:52:00,59.5,57.2,29.31,South,180,0.0,0.9,92,0.00,,,-99.99,1.0,HOBO +U30 +Weather +,2013-01-31 07:52:00,
2013-01-31 02:53:00,59.5,57.2,29.31,South,178,0.0,0.0,92,0.00,,,-99.99,1.0,HOBO +U30 +Weather +,2013-01-31 07:53:00,
2013-01-31 02:54:00,59.4,57.1,29.30,South,180,0.0,0.0,92,0.00,,,-99.99,1.0,HOBO +U30 +Weather +,2013-01-31 07:54:00,
2013-01-31 02:55:00,59.4,57.1,29.31,SSW,192,0.0,0.0,92,0.00,,,-99.99,1.0,HOBO +U30 +Weather +,2013-01-31 07:55:00,
2013-01-31 02:56:00,59.4,57.1,29.30,SSW,197,0.0,0.0,92,0.00,,,-99.99,1.0,HOBO +U30 +Weather +,2013-01-31 07:56:00,
2013-01-31 02:57:00,59.3,57.1,29.31,SSW,192,0.0,0.0,92,0.00,,,-99.99,1.0,HOBO +U30 +Weather +,2013-01-31 07:57:00,
2013-01-31 02:58:00,59.3,57.1,29.30,South,190,0.0,0.9,92,0.00,,,-99.99,1.0,HOBO +U30 +Weather +,2013-01-31 07:58:00,
2013-01-31 02:59:00,59.3,57.1,29.29,South,175,0.0,0.0,92,0.00,,,-99.99,1.0,HOBO +U30 +Weather +,2013-01-31 07:59:00,
2013-01-31 03:00:00,59.4,57.2,29.30,South,174,0.0,0.9,92,0.00,,,-99.99,1.0,HOBO +U30 +Weather +,2013-01-31 08:00:00,
2013-01-31 03:01:00,59.5,57.3,29.29,South,187,0.0,1.8,92,0.00,,,-99.99,1.0,HOBO +U30 +Weather +,2013-01-31 08:01:00,
2013-01-31 03:02:00,59.5,57.3,29.29,South,181,0.0,0.9,92,0.00,,,-99.99,1.0,HOBO +U30 +Weather +,2013-01-31 08:02:00,
2013-01-31 03:03:00,59.4,57.2,29.29,South,177,0.0,0.9,92,0.00,,,-99.99,1.0,HOBO +U30 +Weather +,2013-01-31 08:03:00,
2013-01-31 03:04:00,59.4,57.2,29.30,SSW,192,0.0,0.0,92,0.00,,,-99.99,1.0,HOBO +U30 +Weather +,2013-01-31 08:04:00,
2013-01-31 03:05:00,59.3,57.1,29.29,SSW,211,0.0,0.0,92,0.00,,,-99.99,1.0,HOBO +U30 +Weather +,2013-01-31 08:05:00,
2013-01-31 03:06:00,59.3,57.1,29.30,South,183,0.0,0.0,92,0.00,,,-99.99,1.0,HOBO +U30 +Weather +,2013-01-31 08:06:00,
2013-01-31 03:07:00,59.4,57.2,29.29,South,190,0.0,0.0,92,0.00,,,-99.99,1.0,HOBO +U30 +Weather +,2013-01-31 08:07:00,
2013-01-31 03:08:00,59.5,57.3,29.30,SSW,198,0.0,0.9,92,0.00,,,-99.99,1.0,HOBO +U30 +Weather +,2013-01-31 08:08:00,
2013-01-31 03:09:00,59.5,57.2,29.28,South,185,0.0,0.0,92,0.00,,,-99.99,1.0,HOBO +U30 +Weather +,2013-01-31 08:09:00,
2013-01-31 03:10:00,59.6,57.3,29.30,South,183,0.0,0.9,92,0.00,,,-99.99,1.0,HOBO +U30 +Weather +,2013-01-31 08:10:00,
2013-01-31 03:11:00,59.7,57.3,29.29,South,185,0.0,3.4,91,0.00,,,-99.99,1.0,HOBO +U30 +Weather +,2013-01-31 08:11:00,
2013-01-31 03:12:00,59.6,57.3,29.30,SSW,192,0.0,0.0,91,0.00,,,-99.99,1.0,HOBO +U30 +Weather +,2013-01-31 08:12:00,
2013-01-31 03:13:00,59.6,57.3,29.29,South,178,0.0,0.9,92,0.00,,,-99.99,1.0,HOBO +U30 +Weather +,2013-01-31 08:13:00,
2013-01-31 03:14:00,59.6,57.3,29.30,SSE,168,0.0,0.9,92,0.00,,,-99.99,1.0,HOBO +U30 +Weather +,2013-01-31 08:14:00,
2013-01-31 03:15:00,59.6,57.3,29.30,South,180,0.0,0.9,91,0.00,,,-99.99,1.0,HOBO +U30 +Weather +,2013-01-31 08:15:00,
2013-01-31 03:16:00,59.7,57.4,29.30,South,171,0.0,0.0,91,0.00,,,-99.99,1.0,HOBO +U30 +Weather +,2013-01-31 08:16:00,
2013-01-31 03:17:00,59.7,57.4,29.29,South,178,0.0,0.9,91,0.00,,,-99.99,1.0,HOBO +U30 +Weather +,2013-01-31 08:17:00,
2013-01-31 03:18:00,59.7,57.4,29.29,South,174,0.0,0.0,91,0.00,,,-99.99,1.0,HOBO +U30 +Weather +,2013-01-31 08:18:00,
2013-01-31 03:19:00,59.7,57.4,29.29,SSW,194,0.0,0.9,91,0.00,,,-99.99,1.0,HOBO +U30 +Weather +,2013-01-31 08:19:00,
2013-01-31 03:20:00,59.7,57.3,29.29,South,190,0.0,0.0,91,0.00,,,-99.99,1.0,HOBO +U30 +Weather +,2013-01-31 08:20:00,
2013-01-31 03:21:00,59.7,57.4,29.29,South,184,0.0,0.9,91,0.00,,,-99.99,1.0,HOBO +U30 +Weather +,2013-01-31 08:21:00,
2013-01-31 03:22:00,59.7,57.3,29.28,South,190,0.0,0.0,91,0.00,,,-99.99,1.0,HOBO +U30 +Weather +,2013-01-31 08:22:00,
2013-01-31 03:23:00,59.7,57.3,29.28,SSE,168,0.0,0.0,91,0.00,,,-99.99,1.0,HOBO +U30 +Weather +,2013-01-31 08:23:00,
2013-01-31 03:24:00,59.6,57.3,29.28,SSW,197,0.0,0.0,91,0.00,,,-99.99,1.0,HOBO +U30 +Weather +,2013-01-31 08:24:00,
2013-01-31 03:25:00,59.6,57.3,29.28,SSW,192,0.0,0.9,91,0.00,,,-99.99,1.0,HOBO +U30 +Weather +,2013-01-31 08:25:00,
2013-01-31 03:26:00,59.6,57.3,29.28,South,187,0.0,0.0,91,0.00,,,-99.99,1.0,HOBO +U30 +Weather +,2013-01-31 08:26:00,
2013-01-31 03:27:00,59.7,57.3,29.27,South,181,0.0,0.9,91,0.00,,,-99.99,1.0,HOBO +U30 +Weather +,2013-01-31 08:27:00,
2013-01-31 03:28:00,59.7,57.3,29.27,South,183,0.0,0.0,91,0.00,,,-99.99,1.0,HOBO +U30 +Weather +,2013-01-31 08:28:00,
2013-01-31 03:29:00,59.7,57.3,29.27,South,173,0.0,0.0,91,0.00,,,-99.99,1.0,HOBO +U30 +Weather +,2013-01-31 08:29:00,
2013-01-31 03:30:00,59.7,57.4,29.26,South,178,0.0,0.9,91,0.00,,,-99.99,1.0,HOBO +U30 +Weather +,2013-01-31 08:30:00,
2013-01-31 03:31:00,59.8,57.4,29.26,South,191,0.0,0.0,91,0.00,,,-99.99,1.0,HOBO +U30 +Weather +,2013-01-31 08:31:00,
2013-01-31 03:32:00,59.7,57.3,29.26,South,181,0.0,0.0,91,0.00,,,-99.99,1.0,HOBO +U30 +Weather +,2013-01-31 08:32:00,
2013-01-31 03:33:00,59.7,57.3,29.27,South,171,0.0,0.0,91,0.00,,,-99.99,1.0,HOBO +U30 +Weather +,2013-01-31 08:33:00,
2013-01-31 03:34:00,59.7,57.3,29.25,SW,227,0.0,0.0,91,0.00,,,-99.99,1.0,HOBO +U30 +Weather +,2013-01-31 08:34:00,
2013-01-31 03:35:00,59.6,57.3,29.27,South,173,0.0,0.0,91,0.00,,,-99.99,1.0,HOBO +U30 +Weather +,2013-01-31 08:35:00,
2013-01-31 03:36:00,59.6,57.2,29.26,SSW,209,0.0,0.0,91,0.00,,,-99.99,1.0,HOBO +U30 +Weather +,2013-01-31 08:36:00,
2013-01-31 03:37:00,59.6,57.3,29.26,South,180,0.0,0.9,91,0.00,,,-99.99,1.0,HOBO +U30 +Weather +,2013-01-31 08:37:00,
2013-01-31 03:38:00,59.7,57.3,29.27,South,187,0.0,0.0,91,0.00,,,-99.99,1.0,HOBO +U30 +Weather +,2013-01-31 08:38:00,
2013-01-31 03:39:00,59.7,57.3,29.26,SSE,168,0.0,0.0,91,0.00,,,-99.99,1.0,HOBO +U30 +Weather +,2013-01-31 08:39:00,
2013-01-31 03:40:00,59.7,57.4,29.26,South,180,0.0,0.9,91,0.00,,,-99.99,1.0,HOBO +U30 +Weather +,2013-01-31 08:40:00,
2013-01-31 03:41:00,59.7,57.3,29.25,South,191,0.0,0.9,91,0.00,,,-99.99,1.0,HOBO +U30 +Weather +,2013-01-31 08:41:00,
2013-01-31 03:42:00,59.7,57.3,29.25,South,190,0.0,0.0,91,0.00,,,-99.99,1.0,HOBO +U30 +Weather +,2013-01-31 08:42:00,
2013-01-31 03:43:00,59.7,57.4,29.25,South,181,0.0,0.9,91,0.00,,,-99.99,1.0,HOBO +U30 +Weather +,2013-01-31 08:43:00,
2013-01-31 03:44:00,59.7,57.3,29.25,South,184,0.0,0.0,91,0.00,,,-99.99,1.0,HOBO +U30 +Weather +,2013-01-31 08:44:00,
2013-01-31 03:45:00,59.6,57.3,29.25,South,181,0.0,0.0,91,0.00,,,-99.99,1.0,HOBO +U30 +Weather +,2013-01-31 08:45:00,
2013-01-31 03:49:00,59.6,57.3,29.24,SSW,205,0.0,0.0,91,0.00,,,-99.99,1.0,HOBO +U30 +Weather +,2013-01-31 08:49:00,
2013-01-31 03:50:00,59.6,57.3,29.25,South,187,0.0,0.0,91,0.00,,,-99.99,1.0,HOBO +U30 +Weather +,2013-01-31 08:50:00,
2013-01-31 03:51:00,59.6,57.3,29.25,South,183,0.0,0.9,92,0.00,,,-99.99,1.0,HOBO +U30 +Weather +,2013-01-31 08:51:00,
2013-01-31 03:52:00,59.7,57.3,29.25,South,171,0.0,0.0,91,0.00,,,-99.99,1.0,HOBO +U30 +Weather +,2013-01-31 08:52:00,
2013-01-31 03:53:00,59.7,57.3,29.25,South,187,0.0,0.0,91,0.00,,,-99.99,1.0,HOBO +U30 +Weather +,2013-01-31 08:53:00,
2013-01-31 03:54:00,59.6,57.2,29.24,South,178,0.0,0.9,91,0.00,,,-99.99,1.0,HOBO +U30 +Weather +,2013-01-31 08:54:00,
2013-01-31 03:55:00,59.5,57.1,29.24,South,183,0.0,0.0,91,0.00,,,-99.99,1.0,HOBO +U30 +Weather +,2013-01-31 08:55:00,
2013-01-31 03:56:00,59.5,57.1,29.24,South,175,0.0,0.0,91,0.00,,,-99.99,1.0,HOBO +U30 +Weather +,2013-01-31 08:56:00,
2013-01-31 03:57:00,59.5,57.2,29.24,South,188,0.0,0.0,92,0.00,,,-99.99,1.0,HOBO +U30 +Weather +,2013-01-31 08:57:00,
2013-01-31 03:58:00,59.5,57.2,29.24,South,177,0.0,1.8,92,0.00,,,-99.99,1.0,HOBO +U30 +Weather +,2013-01-31 08:58:00,
2013-01-31 03:59:00,59.6,57.3,29.23,South,183,0.0,0.0,91,0.00,,,-99.99,1.0,HOBO +U30 +Weather +,2013-01-31 08:59:00,
2013-01-31 04:00:00,59.5,57.1,29.24,South,180,0.0,0.9,91,0.00,,,-99.99,1.0,HOBO +U30 +Weather +,2013-01-31 09:00:00,
2013-01-31 04:01:00,59.5,57.2,29.24,South,177,0.0,0.0,91,0.00,,,-99.99,1.0,HOBO +U30 +Weather +,2013-01-31 09:01:00,
2013-01-31 04:02:00,59.5,57.2,29.23,SSW,192,0.0,0.0,91,0.00,,,-99.99,1.0,HOBO +U30 +Weather +,2013-01-31 09:02:00,
2013-01-31 04:03:00,59.6,57.3,29.23,South,184,0.0,0.0,92,0.00,,,-99.99,1.0,HOBO +U30 +Weather +,2013-01-31 09:03:00,
2013-01-31 04:04:00,59.6,57.3,29.23,South,175,0.0,0.9,92,0.00,,,-99.99,1.0,HOBO +U30 +Weather +,2013-01-31 09:04:00,
2013-01-31 04:05:00,59.6,57.3,29.24,SW,236,0.0,0.9,92,0.00,,,-99.99,1.0,HOBO +U30 +Weather +,2013-01-31 09:05:00,
2013-01-31 04:06:00,59.6,57.2,29.24,SSW,201,0.0,0.0,91,0.00,,,-99.99,1.0,HOBO +U30 +Weather +,2013-01-31 09:06:00,
2013-01-31 04:07:00,59.6,57.3,29.24,South,190,0.0,0.0,92,0.00,,,-99.99,1.0,HOBO +U30 +Weather +,2013-01-31 09:07:00,
2013-01-31 04:08:00,59.6,57.3,29.23,WSW,257,0.0,0.0,92,0.00,,,-99.99,1.0,HOBO +U30 +Weather +,2013-01-31 09:08:00,
2013-01-31 04:09:00,59.6,57.3,29.24,South,177,0.0,0.0,92,0.00,,,-99.99,1.0,HOBO +U30 +Weather +,2013-01-31 09:09:00,
2013-01-31 04:10:00,59.6,57.3,29.24,South,187,0.0,0.9,92,0.00,,,-99.99,1.0,HOBO +U30 +Weather +,2013-01-31 09:10:00,
2013-01-31 04:11:00,59.7,57.4,29.22,South,183,0.0,0.0,92,0.00,,,-99.99,1.0,HOBO +U30 +Weather +,2013-01-31 09:11:00,
2013-01-31 04:12:00,59.7,57.4,29.23,South,183,0.0,0.9,92,0.00,,,-99.99,1.0,HOBO +U30 +Weather +,2013-01-31 09:12:00,
2013-01-31 04:13:00,59.7,57.3,29.23,South,174,0.0,0.9,91,0.00,,,-99.99,1.0,HOBO +U30 +Weather +,2013-01-31 09:13:00,
2013-01-31 04:14:00,59.6,57.3,29.22,SSW,197,0.0,0.0,92,0.00,,,-99.99,1.0,HOBO +U30 +Weather +,2013-01-31 09:14:00,
2013-01-31 04:15:00,59.6,57.3,29.22,South,188,0.0,0.0,91,0.00,,,-99.99,1.0,HOBO +U30 +Weather +,2013-01-31 09:15:00,
2013-01-31 04:16:00,59.6,57.3,29.21,South,181,0.0,0.0,92,0.00,,,-99.99,1.0,HOBO +U30 +Weather +,2013-01-31 09:16:00,
2013-01-31 04:17:00,59.5,57.2,29.21,South,175,0.0,0.0,92,0.00,,,-99.99,1.0,HOBO +U30 +Weather +,2013-01-31 09:17:00,
2013-01-31 04:18:00,59.5,57.2,29.21,South,181,0.0,0.9,92,0.00,,,-99.99,1.0,HOBO +U30 +Weather +,2013-01-31 09:18:00,
2013-01-31 04:19:00,59.6,57.3,29.21,South,185,0.0,0.0,92,0.00,,,-99.99,1.0,HOBO +U30 +Weather +,2013-01-31 09:19:00,
2013-01-31 04:20:00,59.6,57.4,29.22,SSW,195,0.0,0.9,92,0.00,,,-99.99,1.0,HOBO +U30 +Weather +,2013-01-31 09:20:00,
2013-01-31 04:21:00,59.6,57.3,29.21,South,178,0.0,0.9,92,0.00,,,-99.99,1.0,HOBO +U30 +Weather +,2013-01-31 09:21:00,
2013-01-31 04:22:00,59.7,57.4,29.21,South,175,0.0,0.9,92,0.00,,,-99.99,1.0,HOBO +U30 +Weather +,2013-01-31 09:22:00,
2013-01-31 04:23:00,59.6,57.3,29.21,South,181,0.0,0.9,92,0.00,,,-99.99,1.0,HOBO +U30 +Weather +,2013-01-31 09:23:00,
2013-01-31 04:24:00,59.6,57.3,29.20,SSW,192,0.0,0.0,92,0.00,,,-99.99,1.0,HOBO +U30 +Weather +,2013-01-31 09:24:00,
2013-01-31 04:25:00,59.6,57.3,29.22,South,190,0.0,0.9,92,0.00,,,-99.99,1.0,HOBO +U30 +Weather +,2013-01-31 09:25:00,
2013-01-31 04:26:00,59.6,57.3,29.20,South,190,0.0,0.9,92,0.00,,,-99.99,1.0,HOBO +U30 +Weather +,2013-01-31 09:26:00,
2013-01-31 04:27:00,59.6,57.3,29.20,South,181,0.0,0.9,92,0.00,,,-99.99,1.0,HOBO +U30 +Weather +,2013-01-31 09:27:00,
2013-01-31 04:28:00,59.6,57.3,29.20,South,185,0.0,0.9,91,0.00,,,-99.99,1.0,HOBO +U30 +Weather +,2013-01-31 09:28:00,
2013-01-31 04:29:00,59.6,57.3,29.20,South,175,0.0,0.0,91,0.00,,,-99.99,1.0,HOBO +U30 +Weather +,2013-01-31 09:29:00,
2013-01-31 04:30:00,59.6,57.2,29.20,South,188,0.0,0.9,91,0.00,,,-99.99,1.0,HOBO +U30 +Weather +,2013-01-31 09:30:00,
2013-01-31 04:31:00,59.5,57.2,29.20,South,190,0.0,0.9,91,0.00,,,-99.99,1.0,HOBO +U30 +Weather +,2013-01-31 09:31:00,
2013-01-31 04:32:00,59.5,57.2,29.20,South,170,0.0,0.0,92,0.00,,,-99.99,1.0,HOBO +U30 +Weather +,2013-01-31 09:32:00,
2013-01-31 04:33:00,59.5,57.3,29.19,South,177,0.0,0.9,92,0.00,,,-99.99,1.0,HOBO +U30 +Weather +,2013-01-31 09:33:00,
2013-01-31 04:34:00,59.5,57.2,29.19,South,188,0.0,0.0,91,0.00,,,-99.99,1.0,HOBO +U30 +Weather +,2013-01-31 09:34:00,
2013-01-31 04:35:00,59.4,57.1,29.20,South,190,0.0,0.0,92,0.00,,,-99.99,1.0,HOBO +U30 +Weather +,2013-01-31 09:35:00,
2013-01-31 04:36:00,59.3,57.0,29.19,SSW,195,0.0,0.0,92,0.00,,,-99.99,1.0,HOBO +U30 +Weather +,2013-01-31 09:36:00,
2013-01-31 04:37:00,59.2,56.9,29.19,South,185,0.0,0.9,92,0.00,,,-99.99,1.0,HOBO +U30 +Weather +,2013-01-31 09:37:00,
2013-01-31 04:38:00,59.3,57.1,29.18,South,190,0.0,0.9,92,0.00,,,-99.99,1.0,HOBO +U30 +Weather +,2013-01-31 09:38:00,
2013-01-31 04:39:00,59.2,57.0,29.19,South,187,0.0,0.0,92,0.00,,,-99.99,1.0,HOBO +U30 +Weather +,2013-01-31 09:39:00,
2013-01-31 04:40:00,59.2,56.9,29.19,South,181,0.0,0.0,92,0.00,,,-99.99,1.0,HOBO +U30 +Weather +,2013-01-31 09:40:00,
2013-01-31 04:41:00,59.1,56.9,29.18,South,178,0.0,0.9,92,0.00,,,-99.99,1.0,HOBO +U30 +Weather +,2013-01-31 09:41:00,
2013-01-31 04:42:00,59.1,57.0,29.18,SSE,166,0.0,0.9,92,0.00,,,-99.99,1.0,HOBO +U30 +Weather +,2013-01-31 09:42:00,
2013-01-31 04:43:00,59.1,57.0,29.18,SSW,197,0.0,0.0,92,0.00,,,-99.99,1.0,HOBO +U30 +Weather +,2013-01-31 09:43:00,
2013-01-31 04:44:00,59.0,56.9,29.19,South,175,0.0,0.0,92,0.00,,,-99.99,1.0,HOBO +U30 +Weather +,2013-01-31 09:44:00,
2013-01-31 04:45:00,59.0,56.8,29.19,South,178,0.0,0.9,92,0.00,,,-99.99,1.0,HOBO +U30 +Weather +,2013-01-31 09:45:00,
2013-01-31 04:46:00,58.9,56.8,29.19,South,185,0.0,0.0,92,0.00,,,-99.99,1.0,HOBO +U30 +Weather +,2013-01-31 09:46:00,
2013-01-31 04:47:00,58.9,56.8,29.18,South,188,0.0,0.0,92,0.00,,,-99.99,1.0,HOBO +U30 +Weather +,2013-01-31 09:47:00,
2013-01-31 04:48:00,58.9,56.8,29.18,South,187,0.0,0.0,92,0.00,,,-99.99,1.0,HOBO +U30 +Weather +,2013-01-31 09:48:00,
2013-01-31 04:49:00,58.9,56.8,29.18,SSW,198,0.0,0.0,92,0.00,,,-99.99,1.0,HOBO +U30 +Weather +,2013-01-31 09:49:00,
2013-01-31 04:50:00,58.9,56.8,29.19,SSW,192,0.0,0.0,92,0.00,,,-99.99,1.0,HOBO +U30 +Weather +,2013-01-31 09:50:00,
2013-01-31 04:51:00,59.0,56.9,29.18,South,181,0.0,0.9,92,0.00,,,-99.99,1.0,HOBO +U30 +Weather +,2013-01-31 09:51:00,
2013-01-31 04:52:00,59.0,56.9,29.19,South,188,0.0,0.0,92,0.00,,,-99.99,1.0,HOBO +U30 +Weather +,2013-01-31 09:52:00,
2013-01-31 04:53:00,59.0,56.8,29.18,South,188,0.0,0.0,92,0.00,,,-99.99,1.0,HOBO +U30 +Weather +,2013-01-31 09:53:00,
2013-01-31 04:54:00,58.9,56.8,29.18,South,187,0.0,0.0,92,0.00,,,-99.99,1.0,HOBO +U30 +Weather +,2013-01-31 09:54:00,
2013-01-31 04:55:00,58.9,56.8,29.19,South,181,0.0,0.0,92,0.00,,,-99.99,1.0,HOBO +U30 +Weather +,2013-01-31 09:55:00,
2013-01-31 04:56:00,58.9,56.8,29.18,South,191,0.0,0.0,92,0.00,,,-99.99,1.0,HOBO +U30 +Weather +,2013-01-31 09:56:00,
2013-01-31 04:57:00,58.9,56.9,29.18,SSW,194,0.0,0.9,92,0.00,,,-99.99,1.0,HOBO +U30 +Weather +,2013-01-31 09:57:00,
2013-01-31 04:58:00,59.0,56.9,29.18,South,183,0.0,0.9,92,0.00,,,-99.99,1.0,HOBO +U30 +Weather +,2013-01-31 09:58:00,
2013-01-31 04:59:00,59.0,56.8,29.18,South,190,0.0,0.0,92,0.00,,,-99.99,1.0,HOBO +U30 +Weather +,2013-01-31 09:59:00,
2013-01-31 05:00:00,59.0,56.8,29.17,SSW,194,0.0,0.0,92,0.00,,,-99.99,1.0,HOBO +U30 +Weather +,2013-01-31 10:00:00,
2013-01-31 05:01:00,59.0,56.9,29.17,South,185,0.0,0.9,92,0.00,,,-99.99,1.0,HOBO +U30 +Weather +,2013-01-31 10:01:00,
2013-01-31 05:02:00,59.1,57.0,29.16,South,185,0.0,0.0,92,0.00,,,-99.99,1.0,HOBO +U30 +Weather +,2013-01-31 10:02:00,
2013-01-31 05:03:00,59.1,57.0,29.18,South,181,0.0,0.9,92,0.00,,,-99.99,1.0,HOBO +U30 +Weather +,2013-01-31 10:03:00,
2013-01-31 05:04:00,59.1,57.1,29.17,SSW,192,0.0,0.0,92,0.00,,,-99.99,1.0,HOBO +U30 +Weather +,2013-01-31 10:04:00,
2013-01-31 05:05:00,59.1,57.0,29.17,South,191,0.0,0.0,92,0.00,,,-99.99,1.0,HOBO +U30 +Weather +,2013-01-31 10:05:00,
2013-01-31 05:06:00,59.1,57.1,29.18,South,188,0.0,0.9,92,0.00,,,-99.99,1.0,HOBO +U30 +Weather +,2013-01-31 10:06:00,
2013-01-31 05:07:00,59.1,57.1,29.18,South,190,0.0,0.0,92,0.00,,,-99.99,1.0,HOBO +U30 +Weather +,2013-01-31 10:07:00,
2013-01-31 05:08:00,59.0,57.0,29.16,South,178,0.0,0.0,93,0.00,,,-99.99,1.0,HOBO +U30 +Weather +,2013-01-31 10:08:00,
2013-01-31 05:09:00,58.8,56.9,29.17,South,183,0.0,0.0,93,0.00,,,-99.99,1.0,HOBO +U30 +Weather +,2013-01-31 10:09:00,
2013-01-31 05:10:00,58.6,56.8,29.17,South,188,0.0,0.0,93,0.00,,,-99.99,1.0,HOBO +U30 +Weather +,2013-01-31 10:10:00,
2013-01-31 05:11:00,58.5,56.8,29.17,South,190,0.0,0.0,94,0.00,,,-99.99,1.0,HOBO +U30 +Weather +,2013-01-31 10:11:00,
2013-01-31 05:12:00,58.6,57.1,29.16,South,188,0.0,0.9,94,0.00,,,-99.99,1.0,HOBO +U30 +Weather +,2013-01-31 10:12:00,
2013-01-31 05:13:00,58.6,57.0,29.17,SSW,197,0.0,0.0,94,0.00,,,-99.99,1.0,HOBO +U30 +Weather +,2013-01-31 10:13:00,
2013-01-31 05:14:00,58.5,57.0,29.17,SSW,195,0.0,0.0,94,0.00,,,-99.99,1.0,HOBO +U30 +Weather +,2013-01-31 10:14:00,
2013-01-31 05:15:00,58.7,57.2,29.16,South,187,0.0,0.0,94,0.00,,,-99.99,1.0,HOBO +U30 +Weather +,2013-01-31 10:15:00,
2013-01-31 05:16:00,58.8,57.2,29.16,SSW,194,0.0,0.0,94,0.00,,,-99.99,1.0,HOBO +U30 +Weather +,2013-01-31 10:16:00,
2013-01-31 05:17:00,58.8,57.2,29.16,SSW,199,0.0,0.0,94,0.00,,,-99.99,1.0,HOBO +U30 +Weather +,2013-01-31 10:17:00,
2013-01-31 05:18:00,58.7,57.1,29.17,South,187,0.0,0.0,94,0.00,,,-99.99,1.0,HOBO +U30 +Weather +,2013-01-31 10:18:00,
2013-01-31 05:19:00,58.6,57.1,29.16,South,183,0.0,0.9,94,0.00,,,-99.99,1.0,HOBO +U30 +Weather +,2013-01-31 10:19:00,
2013-01-31 05:20:00,58.5,57.1,29.16,SSW,194,0.0,0.9,95,0.00,,,-99.99,1.0,HOBO +U30 +Weather +,2013-01-31 10:20:00,
2013-01-31 05:21:00,58.5,57.1,29.16,South,181,0.0,0.9,95,0.00,,,-99.99,1.0,HOBO +U30 +Weather +,2013-01-31 10:21:00,
2013-01-31 05:22:00,58.4,57.1,29.16,SSW,201,0.0,0.9,95,0.00,,,-99.99,1.0,HOBO +U30 +Weather +,2013-01-31 10:22:00,
2013-01-31 05:23:00,58.3,57.1,29.15,South,188,0.0,0.0,95,0.00,,,-99.99,1.0,HOBO +U30 +Weather +,2013-01-31 10:23:00,
2013-01-31 05:24:00,58.4,57.2,29.16,SSW,197,0.0,0.0,95,0.00,,,-99.99,1.0,HOBO +U30 +Weather +,2013-01-31 10:24:00,
2013-01-31 05:25:00,58.3,57.1,29.16,SSW,195,0.0,0.0,95,0.00,,,-99.99,1.0,HOBO +U30 +Weather +,2013-01-31 10:25:00,
2013-01-31 05:26:00,58.3,57.2,29.16,SSW,204,0.0,0.0,96,0.00,,,-99.99,1.0,HOBO +U30 +Weather +,2013-01-31 10:26:00,
2013-01-31 05:27:00,58.2,57.1,29.16,SW,215,0.0,0.0,96,0.00,,,-99.99,1.0,HOBO +U30 +Weather +,2013-01-31 10:27:00,
2013-01-31 05:28:00,58.0,57.1,29.15,South,190,0.0,0.0,96,0.00,,,-99.99,1.0,HOBO +U30 +Weather +,2013-01-31 10:28:00,
2013-01-31 05:29:00,58.0,57.2,29.17,South,187,0.0,0.9,97,0.00,,,-99.99,1.0,HOBO +U30 +Weather +,2013-01-31 10:29:00,
2013-01-31 05:30:00,58.0,57.2,29.16,South,188,0.0,0.9,97,0.00,,,-99.99,1.0,HOBO +U30 +Weather +,2013-01-31 10:30:00,
2013-01-31 05:31:00,58.0,57.3,29.17,SSW,197,0.0,0.0,97,0.00,,,-99.99,1.0,HOBO +U30 +Weather +,2013-01-31 10:31:00,
2013-01-31 05:32:00,58.0,57.3,29.16,SSW,192,0.0,0.0,97,0.00,,,-99.99,1.0,HOBO +U30 +Weather +,2013-01-31 10:32:00,
2013-01-31 05:33:00,57.9,57.2,29.15,South,184,0.0,0.0,97,0.00,,,-99.99,1.0,HOBO +U30 +Weather +,2013-01-31 10:33:00,
2013-01-31 05:34:00,57.8,57.1,29.16,SSW,209,0.0,0.0,97,0.00,,,-99.99,1.0,HOBO +U30 +Weather +,2013-01-31 10:34:00,
2013-01-31 05:35:00,57.9,57.3,29.15,South,190,0.0,0.0,97,0.00,,,-99.99,1.0,HOBO +U30 +Weather +,2013-01-31 10:35:00,
2013-01-31 05:39:00,58.2,57.6,29.16,South,173,0.0,0.9,97,0.00,,,-99.99,1.0,HOBO +U30 +Weather +,2013-01-31 10:39:00,
2013-01-31 05:40:00,58.0,57.4,29.15,SSW,199,0.0,0.0,97,0.00,,,-99.99,1.0,HOBO +U30 +Weather +,2013-01-31 10:40:00,
2013-01-31 05:41:00,57.9,57.3,29.15,SSW,205,0.0,0.9,97,0.00,,,-99.99,1.0,HOBO +U30 +Weather +,2013-01-31 10:41:00,
2013-01-31 05:42:00,57.8,57.2,29.15,South,185,0.0,0.0,97,0.00,,,-99.99,1.0,HOBO +U30 +Weather +,2013-01-31 10:42:00,
2013-01-31 05:45:00,57.8,57.3,29.15,SSW,198,0.0,0.9,98,0.00,,,-99.99,1.0,HOBO +U30 +Weather +,2013-01-31 10:45:00,
2013-01-31 05:46:00,57.6,57.2,29.16,SSW,199,0.0,0.0,98,0.00,,,-99.99,1.0,HOBO +U30 +Weather +,2013-01-31 10:46:00,
2013-01-31 05:47:00,57.5,57.1,29.15,SSW,195,0.0,0.0,98,0.00,,,-99.99,1.0,HOBO +U30 +Weather +,2013-01-31 10:47:00,
2013-01-31 05:48:00,57.5,57.1,29.15,South,190,0.0,0.0,98,0.00,,,-99.99,1.0,HOBO +U30 +Weather +,2013-01-31 10:48:00,
2013-01-31 05:49:00,57.5,57.1,29.15,SSW,206,0.0,0.0,98,0.00,,,-99.99,1.0,HOBO +U30 +Weather +,2013-01-31 10:49:00,
2013-01-31 05:50:00,57.5,57.2,29.14,SSW,192,0.0,1.8,98,0.00,,,-99.99,1.0,HOBO +U30 +Weather +,2013-01-31 10:50:00,
2013-01-31 05:51:00,57.5,57.2,29.13,South,191,0.0,0.0,98,0.00,,,-99.99,1.0,HOBO +U30 +Weather +,2013-01-31 10:51:00,
2013-01-31 05:52:00,57.5,57.3,29.13,SSW,194,0.0,0.0,98,0.00,,,-99.99,1.0,HOBO +U30 +Weather +,2013-01-31 10:52:00,
2013-01-31 05:53:00,57.6,57.4,29.15,SSW,206,0.0,0.0,99,0.00,,,-99.99,1.0,HOBO +U30 +Weather +,2013-01-31 10:53:00,
2013-01-31 05:54:00,57.7,57.5,29.14,SSW,206,0.0,0.0,99,0.00,,,-99.99,1.0,HOBO +U30 +Weather +,2013-01-31 10:54:00,
2013-01-31 05:55:00,57.7,57.5,29.13,South,181,0.0,1.8,99,0.00,,,-99.99,1.0,HOBO +U30 +Weather +,2013-01-31 10:55:00,
2013-01-31 05:58:00,57.7,57.6,29.14,South,177,0.0,0.0,99,0.00,,,-99.99,1.0,HOBO +U30 +Weather +,2013-01-31 10:58:00,
2013-01-31 06:05:00,57.5,57.5,29.13,South,188,0.0,1.8,99,0.00,,,-99.99,1.0,HOBO +U30 +Weather +,2013-01-31 11:05:00,
2013-01-31 06:06:00,57.5,57.4,29.12,SSW,208,0.0,0.0,99,0.00,,,-99.99,1.0,HOBO +U30 +Weather +,2013-01-31 11:06:00,
2013-01-31 06:07:00,57.5,57.5,29.12,SSW,192,0.0,0.0,99,0.00,,,-99.99,1.0,HOBO +U30 +Weather +,2013-01-31 11:07:00,
2013-01-31 06:08:00,57.5,57.5,29.12,SSW,195,0.0,0.0,99,0.00,,,-99.99,1.0,HOBO +U30 +Weather +,2013-01-31 11:08:00,
2013-01-31 06:09:00,57.6,57.6,29.12,South,188,0.0,0.0,99,0.00,,,-99.99,1.0,HOBO +U30 +Weather +,2013-01-31 11:09:00,
2013-01-31 06:10:00,57.6,57.6,29.12,SSW,201,0.0,0.0,99,0.00,,,-99.99,1.0,HOBO +U30 +Weather +,2013-01-31 11:10:00,
2013-01-31 06:11:00,57.6,57.6,29.11,SW,223,0.0,0.0,99,0.00,,,-99.99,1.0,HOBO +U30 +Weather +,2013-01-31 11:11:00,
2013-01-31 06:12:00,57.6,57.6,29.11,SSW,205,0.0,0.0,100,0.00,,,-99.99,1.0,HOBO +U30 +Weather +,2013-01-31 11:12:00,
2013-01-31 06:13:00,57.7,57.8,29.11,South,175,0.0,0.0,100,0.00,,,-99.99,1.0,HOBO +U30 +Weather +,2013-01-31 11:13:00,
2013-01-31 06:14:00,57.8,57.8,29.12,South,183,0.0,0.9,100,0.00,,,-99.99,1.0,HOBO +U30 +Weather +,2013-01-31 11:14:00,
2013-01-31 06:15:00,57.7,57.7,29.11,SSW,195,0.0,0.9,100,0.00,,,-99.99,1.0,HOBO +U30 +Weather +,2013-01-31 11:15:00,
2013-01-31 06:23:00,57.7,57.8,29.10,SSW,197,0.0,0.0,100,0.00,,,-99.99,1.0,HOBO +U30 +Weather +,2013-01-31 11:23:00,
2013-01-31 06:24:00,57.7,57.8,29.10,SSW,198,0.0,0.9,100,0.00,,,-99.99,1.0,HOBO +U30 +Weather +,2013-01-31 11:24:00,
2013-01-31 06:25:00,57.7,57.7,29.10,South,191,0.0,0.0,100,0.00,,,-99.99,1.0,HOBO +U30 +Weather +,2013-01-31 11:25:00,
2013-01-31 06:26:00,57.7,57.7,29.09,SSW,209,0.0,0.0,100,0.00,,,-99.99,1.0,HOBO +U30 +Weather +,2013-01-31 11:26:00,
2013-01-31 06:28:00,57.6,57.7,29.10,SSW,194,0.0,0.9,100,0.00,,,-99.99,1.0,HOBO +U30 +Weather +,2013-01-31 11:28:00,
2013-01-31 06:29:00,57.7,57.8,29.09,SSW,197,0.0,0.0,100,0.00,,,-99.99,1.0,HOBO +U30 +Weather +,2013-01-31 11:29:00,
2013-01-31 06:30:00,57.7,57.7,29.08,SSW,195,0.0,0.0,100,0.00,,,-99.99,1.0,HOBO +U30 +Weather +,2013-01-31 11:30:00,
2013-01-31 06:31:00,57.7,57.7,29.08,SSW,206,0.0,0.0,100,0.00,,,-99.99,1.0,HOBO +U30 +Weather +,2013-01-31 11:31:00,
2013-01-31 06:32:00,57.7,57.8,29.08,South,187,0.0,0.0,100,0.00,,,-99.99,1.0,HOBO +U30 +Weather +,2013-01-31 11:32:00,
2013-01-31 06:33:00,57.8,57.8,29.08,South,185,0.0,0.0,100,0.00,,,-99.99,1.0,HOBO +U30 +Weather +,2013-01-31 11:33:00,
2013-01-31 06:34:00,57.7,57.7,29.07,South,191,0.0,0.0,100,0.00,,,-99.99,1.0,HOBO +U30 +Weather +,2013-01-31 11:34:00,
2013-01-31 06:35:00,57.7,57.7,29.07,SSW,198,0.0,0.0,100,0.00,,,-99.99,1.0,HOBO +U30 +Weather +,2013-01-31 11:35:00,
2013-01-31 06:36:00,57.7,57.7,29.08,SSW,208,0.0,0.0,100,0.00,,,-99.99,1.0,HOBO +U30 +Weather +,2013-01-31 11:36:00,
2013-01-31 06:37:00,57.8,57.8,29.08,SSW,205,0.0,0.0,100,0.00,,,-99.99,1.0,HOBO +U30 +Weather +,2013-01-31 11:37:00,
2013-01-31 06:38:00,57.8,57.8,29.07,SSW,192,0.0,0.0,100,0.00,,,-99.99,1.0,HOBO +U30 +Weather +,2013-01-31 11:38:00,
2013-01-31 06:39:00,57.8,57.8,29.06,South,190,0.0,0.9,100,0.00,,,-99.99,1.0,HOBO +U30 +Weather +,2013-01-31 11:39:00,
2013-01-31 06:40:00,57.8,57.9,29.07,SSW,192,0.0,0.0,100,0.00,,,-99.99,1.0,HOBO +U30 +Weather +,2013-01-31 11:40:00,
2013-01-31 06:41:00,57.8,57.8,29.07,SSW,198,0.0,0.0,100,0.00,,,-99.99,1.0,HOBO +U30 +Weather +,2013-01-31 11:41:00,
2013-01-31 06:42:00,57.8,57.9,29.06,South,191,0.0,0.0,100,0.00,,,-99.99,1.0,HOBO +U30 +Weather +,2013-01-31 11:42:00,
2013-01-31 06:43:00,57.8,57.9,29.06,SSW,194,0.0,0.0,100,0.00,,,-99.99,1.0,HOBO +U30 +Weather +,2013-01-31 11:43:00,
2013-01-31 06:44:00,57.8,57.9,29.07,South,188,0.0,0.0,100,0.00,,,-99.99,1.0,HOBO +U30 +Weather +,2013-01-31 11:44:00,
2013-01-31 06:45:00,57.9,57.9,29.06,South,190,0.0,0.0,100,0.00,,,-99.99,1.0,HOBO +U30 +Weather +,2013-01-31 11:45:00,
2013-01-31 06:46:00,57.8,57.9,29.06,SSW,204,0.0,0.9,100,0.00,,,-99.99,1.0,HOBO +U30 +Weather +,2013-01-31 11:46:00,
2013-01-31 06:47:00,57.9,57.9,29.06,SSW,198,0.0,0.0,100,0.00,,,-99.99,1.0,HOBO +U30 +Weather +,2013-01-31 11:47:00,
2013-01-31 06:48:00,57.9,57.9,29.06,South,187,0.0,0.0,100,0.00,,,-99.99,1.0,HOBO +U30 +Weather +,2013-01-31 11:48:00,
2013-01-31 06:49:00,57.9,57.9,29.06,South,178,0.0,0.0,100,0.00,,,-99.99,1.0,HOBO +U30 +Weather +,2013-01-31 11:49:00,
2013-01-31 06:50:00,57.8,57.9,29.07,SSW,202,0.0,0.0,100,0.00,,,-99.99,1.0,HOBO +U30 +Weather +,2013-01-31 11:50:00,
2013-01-31 06:51:00,57.8,57.8,29.07,SSW,212,0.0,0.0,100,0.00,,,-99.99,1.0,HOBO +U30 +Weather +,2013-01-31 11:51:00,
2013-01-31 06:52:00,57.9,57.9,29.06,South,185,0.0,0.0,100,0.00,,,-99.99,1.0,HOBO +U30 +Weather +,2013-01-31 11:52:00,
2013-01-31 06:53:00,57.9,58.0,29.06,SSW,197,0.0,2.5,100,0.00,,,-99.99,1.0,HOBO +U30 +Weather +,2013-01-31 11:53:00,
2013-01-31 06:54:00,57.9,58.0,29.06,South,188,0.0,0.0,100,0.00,,,-99.99,1.0,HOBO +U30 +Weather +,2013-01-31 11:54:00,
2013-01-31 06:55:00,57.9,57.9,29.10,South,191,0.0,0.0,100,0.00,,,-99.99,1.0,HOBO +U30 +Weather +,2013-01-31 11:55:00,
2013-01-31 06:56:00,57.9,58.0,29.05,SSW,192,0.0,0.0,100,0.00,,,-99.99,1.0,HOBO +U30 +Weather +,2013-01-31 11:56:00,
2013-01-31 06:57:00,57.9,57.9,29.06,SSW,192,0.0,0.0,100,0.00,,,-99.99,1.0,HOBO +U30 +Weather +,2013-01-31 11:57:00,
2013-01-31 06:58:00,57.9,57.9,29.05,South,191,0.0,0.0,100,0.00,,,-99.99,1.0,HOBO +U30 +Weather +,2013-01-31 11:58:00,
2013-01-31 06:59:00,57.9,57.9,29.06,SSW,199,0.0,0.0,100,0.00,,,-99.99,1.0,HOBO +U30 +Weather +,2013-01-31 11:59:00,
2013-01-31 07:00:00,57.9,57.9,29.05,SSW,199,0.0,0.0,100,0.00,,,-99.99,1.0,HOBO +U30 +Weather +,2013-01-31 12:00:00,
2013-01-31 07:01:00,57.9,57.9,29.05,SSW,208,0.0,0.0,100,0.00,,,-99.99,1.0,HOBO +U30 +Weather +,2013-01-31 12:01:00,
2013-01-31 07:02:00,57.9,57.9,29.04,South,185,0.0,0.0,100,0.00,,,-99.99,1.0,HOBO +U30 +Weather +,2013-01-31 12:02:00,
2013-01-31 07:03:00,57.9,58.0,29.05,South,177,0.0,0.0,100,0.00,,,-99.99,1.0,HOBO +U30 +Weather +,2013-01-31 12:03:00,
2013-01-31 07:04:00,57.9,58.0,29.05,SSW,199,0.0,0.0,100,0.00,,,-99.99,1.0,HOBO +U30 +Weather +,2013-01-31 12:04:00,
2013-01-31 07:05:00,57.9,58.0,29.04,SW,227,0.0,0.0,100,0.00,,,-99.99,1.0,HOBO +U30 +Weather +,2013-01-31 12:05:00,
2013-01-31 07:06:00,58.0,58.1,29.05,South,177,0.0,0.0,100,0.00,,,-99.99,1.0,HOBO +U30 +Weather +,2013-01-31 12:06:00,
2013-01-31 07:07:00,58.0,58.1,29.06,South,188,0.0,0.0,100,0.00,,,-99.99,1.0,HOBO +U30 +Weather +,2013-01-31 12:07:00,
2013-01-31 07:08:00,58.0,58.1,29.05,South,184,0.0,0.9,100,0.00,,,-99.99,1.0,HOBO +U30 +Weather +,2013-01-31 12:08:00,
2013-01-31 07:09:00,58.0,58.0,29.05,SSW,206,0.0,0.0,100,0.00,,,-99.99,1.0,HOBO +U30 +Weather +,2013-01-31 12:09:00,
2013-01-31 07:10:00,57.9,57.9,29.04,South,184,0.0,0.9,100,0.00,,,-99.99,1.0,HOBO +U30 +Weather +,2013-01-31 12:10:00,
2013-01-31 07:11:00,57.9,57.9,29.05,South,183,0.0,0.0,100,0.00,,,-99.99,1.0,HOBO +U30 +Weather +,2013-01-31 12:11:00,
2013-01-31 07:12:00,57.8,57.9,29.05,SSW,212,0.0,0.0,100,0.00,,,-99.99,1.0,HOBO +U30 +Weather +,2013-01-31 12:12:00,
2013-01-31 07:13:00,57.8,57.9,29.05,South,187,0.0,0.9,100,0.00,,,-99.99,1.0,HOBO +U30 +Weather +,2013-01-31 12:13:00,
2013-01-31 07:14:00,57.9,57.9,29.05,SSW,192,0.0,0.9,100,0.00,,,-99.99,1.0,HOBO +U30 +Weather +,2013-01-31 12:14:00,
2013-01-31 07:15:00,57.9,58.0,29.05,South,183,0.0,0.0,100,0.00,,,-99.99,1.0,HOBO +U30 +Weather +,2013-01-31 12:15:00,
2013-01-31 07:16:00,57.9,58.0,29.05,South,188,0.0,0.0,100,0.00,,,-99.99,1.0,HOBO +U30 +Weather +,2013-01-31 12:16:00,
2013-01-31 07:17:00,57.9,57.9,29.03,South,188,0.0,0.0,100,0.00,,,-99.99,1.0,HOBO +U30 +Weather +,2013-01-31 12:17:00,
2013-01-31 07:18:00,58.0,58.0,29.03,South,170,0.0,0.0,100,0.00,,,-99.99,1.0,HOBO +U30 +Weather +,2013-01-31 12:18:00,
2013-01-31 07:19:00,58.0,58.1,29.05,South,187,0.0,0.0,100,0.00,,,-99.99,1.0,HOBO +U30 +Weather +,2013-01-31 12:19:00,
2013-01-31 07:20:00,58.1,58.1,29.03,South,180,0.0,0.0,100,0.00,,,-99.99,1.0,HOBO +U30 +Weather +,2013-01-31 12:20:00,
2013-01-31 07:21:00,58.1,58.2,29.04,SSW,194,0.0,0.0,100,0.00,,,-99.99,1.0,HOBO +U30 +Weather +,2013-01-31 12:21:00,
2013-01-31 07:22:00,58.1,58.1,29.03,South,177,0.0,0.0,100,0.00,,,-99.99,1.0,HOBO +U30 +Weather +,2013-01-31 12:22:00,
2013-01-31 07:23:00,58.0,58.1,29.05,SSW,198,0.0,0.0,100,0.00,,,-99.99,1.0,HOBO +U30 +Weather +,2013-01-31 12:23:00,
2013-01-31 07:24:00,58.2,58.3,29.04,SSW,199,0.0,0.0,100,0.00,,,-99.99,1.0,HOBO +U30 +Weather +,2013-01-31 12:24:00,
2013-01-31 07:25:00,58.2,58.3,29.05,South,191,0.0,2.5,100,0.00,,,-99.99,1.0,HOBO +U30 +Weather +,2013-01-31 12:25:00,
2013-01-31 07:26:00,58.4,58.4,29.04,South,171,0.0,0.9,100,0.00,,,-99.99,1.0,HOBO +U30 +Weather +,2013-01-31 12:26:00,
2013-01-31 07:27:00,58.3,58.4,29.03,South,181,0.0,0.0,100,0.00,,,-99.99,1.0,HOBO +U30 +Weather +,2013-01-31 12:27:00,
2013-01-31 07:28:00,58.3,58.3,29.03,SSW,195,0.0,0.0,100,0.00,,,-99.99,1.0,HOBO +U30 +Weather +,2013-01-31 12:28:00,
2013-01-31 07:29:00,58.3,58.3,29.04,SSW,197,0.0,0.0,100,0.00,,,-99.99,1.0,HOBO +U30 +Weather +,2013-01-31 12:29:00,
2013-01-31 07:30:00,58.3,58.3,29.03,South,185,0.0,0.0,100,0.00,,,-99.99,1.0,HOBO +U30 +Weather +,2013-01-31 12:30:00,
2013-01-31 07:31:00,58.3,58.3,29.02,SSW,194,0.0,0.0,100,0.00,,,-99.99,1.0,HOBO +U30 +Weather +,2013-01-31 12:31:00,
2013-01-31 07:32:00,58.2,58.3,29.03,SSW,194,0.0,0.0,100,0.00,,,-99.99,1.0,HOBO +U30 +Weather +,2013-01-31 12:32:00,
2013-01-31 07:33:00,58.3,58.3,29.02,SSW,211,0.0,0.9,100,0.00,,,-99.99,1.0,HOBO +U30 +Weather +,2013-01-31 12:33:00,
2013-01-31 07:34:00,58.3,58.3,29.03,SSW,198,0.0,0.0,100,0.00,,,-99.99,1.0,HOBO +U30 +Weather +,2013-01-31 12:34:00,
2013-01-31 07:35:00,58.3,58.4,29.03,South,183,0.0,0.0,100,0.00,,,-99.99,1.0,HOBO +U30 +Weather +,2013-01-31 12:35:00,
2013-01-31 07:36:00,58.3,58.3,29.02,South,191,0.0,0.0,100,0.00,,,-99.99,1.0,HOBO +U30 +Weather +,2013-01-31 12:36:00,
2013-01-31 07:37:00,58.2,58.3,29.02,SSW,195,0.0,2.5,100,0.00,,,-99.99,1.0,HOBO +U30 +Weather +,2013-01-31 12:37:00,
2013-01-31 07:38:00,58.2,58.3,29.02,SSW,195,0.0,0.9,100,0.00,,,-99.99,1.0,HOBO +U30 +Weather +,2013-01-31 12:38:00,
2013-01-31 07:39:00,58.2,58.3,29.02,SSW,201,0.0,0.0,100,0.00,,,-99.99,1.0,HOBO +U30 +Weather +,2013-01-31 12:39:00,
2013-01-31 07:40:00,58.2,58.3,29.03,South,183,0.0,0.0,100,0.00,,,-99.99,1.0,HOBO +U30 +Weather +,2013-01-31 12:40:00,
2013-01-31 07:41:00,58.2,58.2,29.02,South,188,0.0,0.0,100,0.00,,,-99.99,1.0,HOBO +U30 +Weather +,2013-01-31 12:41:00,
2013-01-31 07:42:00,58.2,58.2,29.03,SSW,206,0.0,0.0,100,0.00,,,-99.99,1.0,HOBO +U30 +Weather +,2013-01-31 12:42:00,
2013-01-31 07:43:00,58.2,58.2,29.01,South,184,0.0,0.9,100,0.00,,,-99.99,1.0,HOBO +U30 +Weather +,2013-01-31 12:43:00,
2013-01-31 07:44:00,58.2,58.2,29.02,SSW,194,0.0,0.0,100,0.00,,,-99.99,1.0,HOBO +U30 +Weather +,2013-01-31 12:44:00,
2013-01-31 07:45:00,58.3,58.3,29.03,South,178,0.0,0.0,100,0.00,,,-99.99,1.0,HOBO +U30 +Weather +,2013-01-31 12:45:00,
2013-01-31 07:46:00,58.3,58.4,29.03,South,181,0.0,0.0,100,0.00,,,-99.99,1.0,HOBO +U30 +Weather +,2013-01-31 12:46:00,
2013-01-31 07:47:00,58.4,58.4,29.04,South,171,0.0,1.8,100,0.00,,,-99.99,1.0,HOBO +U30 +Weather +,2013-01-31 12:47:00,
2013-01-31 07:48:00,58.5,58.5,29.02,South,183,0.0,1.8,100,0.00,,,-99.99,1.0,HOBO +U30 +Weather +,2013-01-31 12:48:00,
2013-01-31 07:49:00,58.4,58.4,29.02,South,187,0.0,0.0,100,0.00,,,-99.99,2.0,HOBO +U30 +Weather +,2013-01-31 12:49:00,
2013-01-31 07:50:00,58.3,58.4,29.03,South,187,0.0,0.9,100,0.00,,,-99.99,1.0,HOBO +U30 +Weather +,2013-01-31 12:50:00,
2013-01-31 07:51:00,58.3,58.4,29.03,South,188,0.0,0.0,100,0.00,,,-99.99,1.0,HOBO +U30 +Weather +,2013-01-31 12:51:00,
2013-01-31 07:52:00,58.3,58.4,29.03,South,184,0.0,0.0,100,0.00,,,-99.99,1.0,HOBO +U30 +Weather +,2013-01-31 12:52:00,
2013-01-31 07:53:00,58.3,58.4,29.03,SSW,202,0.0,0.0,100,0.00,,,-99.99,1.0,HOBO +U30 +Weather +,2013-01-31 12:53:00,
2013-01-31 07:54:00,58.2,58.3,29.04,SW,218,0.0,0.0,100,0.00,,,-99.99,1.0,HOBO +U30 +Weather +,2013-01-31 12:54:00,
2013-01-31 07:55:00,58.2,58.2,29.03,SW,232,0.0,0.0,100,0.00,,,-99.99,1.0,HOBO +U30 +Weather +,2013-01-31 12:55:00,
2013-01-31 07:56:00,58.2,58.3,29.05,SSW,199,0.0,0.0,100,0.00,,,-99.99,1.0,HOBO +U30 +Weather +,2013-01-31 12:56:00,
2013-01-31 07:57:00,58.2,58.2,29.05,SW,233,0.0,0.0,100,0.00,,,-99.99,1.0,HOBO +U30 +Weather +,2013-01-31 12:57:00,
2013-01-31 07:58:00,58.2,58.3,29.04,WSW,254,0.0,0.0,100,0.00,,,-99.99,1.0,HOBO +U30 +Weather +,2013-01-31 12:58:00,
2013-01-31 07:59:00,58.3,58.3,29.05,West,260,0.0,0.0,100,0.00,,,-99.99,1.0,HOBO +U30 +Weather +,2013-01-31 12:59:00,
2013-01-31 08:00:00,58.1,58.2,29.05,WSW,247,0.0,0.0,100,0.00,,,-99.99,1.0,HOBO +U30 +Weather +,2013-01-31 13:00:00,
2013-01-31 08:01:00,57.3,57.4,29.06,SW,232,0.0,0.0,100,0.00,,,-99.99,1.0,HOBO +U30 +Weather +,2013-01-31 13:01:00,
2013-01-31 08:02:00,55.7,55.7,29.05,WSW,243,0.0,0.0,100,0.00,,,-99.99,1.0,HOBO +U30 +Weather +,2013-01-31 13:02:00,
2013-01-31 08:03:00,54.6,54.6,29.05,WSW,250,0.0,0.0,100,0.00,,,-99.99,1.0,HOBO +U30 +Weather +,2013-01-31 13:03:00,
2013-01-31 08:04:00,53.9,54.0,29.05,WSW,248,0.0,0.0,100,0.00,,,-99.99,1.0,HOBO +U30 +Weather +,2013-01-31 13:04:00,
2013-01-31 08:05:00,53.6,53.6,29.05,WSW,251,0.0,0.0,100,0.00,,,-99.99,1.0,HOBO +U30 +Weather +,2013-01-31 13:05:00,
2013-01-31 08:06:00,53.3,53.3,29.06,WSW,254,0.0,0.0,100,0.00,,,-99.99,1.0,HOBO +U30 +Weather +,2013-01-31 13:06:00,
2013-01-31 08:07:00,53.0,53.1,29.05,WSW,244,0.0,0.0,100,0.00,,,-99.99,1.0,HOBO +U30 +Weather +,2013-01-31 13:07:00,
2013-01-31 08:08:00,52.9,52.9,29.05,SW,218,0.0,0.0,100,0.00,,,-99.99,1.0,HOBO +U30 +Weather +,2013-01-31 13:08:00,
2013-01-31 08:09:00,52.9,52.9,29.05,SW,226,0.0,0.0,100,0.00,,,-99.99,2.0,HOBO +U30 +Weather +,2013-01-31 13:09:00,
2013-01-31 08:10:00,52.9,52.9,29.05,SW,236,0.0,0.0,100,0.00,,,-99.99,2.0,HOBO +U30 +Weather +,2013-01-31 13:10:00,
2013-01-31 08:13:00,52.9,52.9,29.04,SW,222,0.0,0.0,100,0.00,,,-99.99,2.0,HOBO +U30 +Weather +,2013-01-31 13:13:00,
2013-01-31 08:14:00,53.1,53.1,29.04,SW,234,0.0,0.0,100,0.00,,,-99.99,2.0,HOBO +U30 +Weather +,2013-01-31 13:14:00,
2013-01-31 08:15:00,53.1,53.1,29.04,SW,218,0.0,0.0,100,0.00,,,-99.99,2.0,HOBO +U30 +Weather +,2013-01-31 13:15:00,
2013-01-31 08:16:00,53.5,53.5,29.04,WSW,239,0.0,0.0,100,0.00,,,-99.99,2.0,HOBO +U30 +Weather +,2013-01-31 13:16:00,
2013-01-31 08:17:00,53.8,53.8,29.04,SSW,212,0.0,0.0,100,0.00,,,-99.99,2.0,HOBO +U30 +Weather +,2013-01-31 13:17:00,
2013-01-31 08:18:00,54.0,54.0,29.04,SW,220,0.0,0.0,100,0.00,,,-99.99,2.0,HOBO +U30 +Weather +,2013-01-31 13:18:00,
2013-01-31 08:19:00,54.3,54.4,29.04,SSW,204,0.0,0.0,100,0.00,,,-99.99,2.0,HOBO +U30 +Weather +,2013-01-31 13:19:00,
2013-01-31 08:20:00,54.7,54.8,29.03,SSW,202,0.0,0.0,100,0.00,,,-99.99,3.0,HOBO +U30 +Weather +,2013-01-31 13:20:00,
2013-01-31 08:21:00,54.9,55.0,29.03,SW,218,0.0,0.0,100,0.00,,,-99.99,3.0,HOBO +U30 +Weather +,2013-01-31 13:21:00,
2013-01-31 08:22:00,55.0,55.0,29.02,SW,232,0.0,0.0,100,0.00,,,-99.99,2.0,HOBO +U30 +Weather +,2013-01-31 13:22:00,
2013-01-31 08:23:00,55.1,55.1,29.02,SSW,208,0.0,0.0,100,0.00,,,-99.99,2.0,HOBO +U30 +Weather +,2013-01-31 13:23:00,
2013-01-31 08:24:00,55.2,55.3,29.02,SW,223,0.0,0.0,100,0.00,,,-99.99,3.0,HOBO +U30 +Weather +,2013-01-31 13:24:00,
2013-01-31 08:25:00,55.3,55.3,29.02,SSW,197,0.0,0.0,100,0.00,,,-99.99,2.0,HOBO +U30 +Weather +,2013-01-31 13:25:00,
2013-01-31 08:26:00,55.4,55.5,29.03,SW,222,0.0,0.0,100,0.00,,,-99.99,2.0,HOBO +U30 +Weather +,2013-01-31 13:26:00,
2013-01-31 08:27:00,55.4,55.5,29.02,SW,223,0.0,0.0,100,0.00,,,-99.99,2.0,HOBO +U30 +Weather +,2013-01-31 13:27:00,
2013-01-31 08:28:00,55.4,55.5,29.02,SW,236,0.0,0.0,100,0.00,,,-99.99,2.0,HOBO +U30 +Weather +,2013-01-31 13:28:00,
2013-01-31 08:29:00,55.4,55.5,29.02,SW,226,0.0,0.0,100,0.00,,,-99.99,2.0,HOBO +U30 +Weather +,2013-01-31 13:29:00,
2013-01-31 08:30:00,55.4,55.5,29.02,SW,229,0.0,0.0,100,0.00,,,-99.99,3.0,HOBO +U30 +Weather +,2013-01-31 13:30:00,
2013-01-31 08:31:00,55.5,55.5,29.02,SSW,202,0.0,0.0,100,0.00,,,-99.99,3.0,HOBO +U30 +Weather +,2013-01-31 13:31:00,
2013-01-31 08:32:00,55.5,55.5,29.01,SW,223,0.0,0.0,100,0.00,,,-99.99,4.0,HOBO +U30 +Weather +,2013-01-31 13:32:00,
2013-01-31 08:33:00,55.5,55.5,29.00,SSW,205,0.0,0.0,100,0.00,,,-99.99,4.0,HOBO +U30 +Weather +,2013-01-31 13:33:00,
2013-01-31 08:34:00,55.5,55.5,29.00,SSW,209,0.0,0.0,100,0.00,,,-99.99,6.0,HOBO +U30 +Weather +,2013-01-31 13:34:00,
2013-01-31 08:35:00,55.5,55.5,29.02,SW,225,0.0,0.0,100,0.00,,,-99.99,6.0,HOBO +U30 +Weather +,2013-01-31 13:35:00,
2013-01-31 08:36:00,55.5,55.5,29.00,SSW,206,0.0,0.0,100,0.00,,,-99.99,6.0,HOBO +U30 +Weather +,2013-01-31 13:36:00,
2013-01-31 08:37:00,55.5,55.5,29.01,SW,225,0.0,0.0,100,0.00,,,-99.99,6.0,HOBO +U30 +Weather +,2013-01-31 13:37:00,
2013-01-31 08:38:00,55.5,55.5,29.00,SSW,213,0.0,0.0,100,0.00,,,-99.99,6.0,HOBO +U30 +Weather +,2013-01-31 13:38:00,
2013-01-31 08:39:00,55.5,55.5,29.00,SSW,202,0.0,0.0,100,0.00,,,-99.99,6.0,HOBO +U30 +Weather +,2013-01-31 13:39:00,
2013-01-31 08:40:00,55.6,55.6,29.00,SSW,209,0.0,0.0,100,0.00,,,-99.99,4.0,HOBO +U30 +Weather +,2013-01-31 13:40:00,
2013-01-31 08:41:00,55.6,55.6,29.01,SW,218,0.0,0.0,100,0.00,,,-99.99,3.0,HOBO +U30 +Weather +,2013-01-31 13:41:00,
2013-01-31 08:42:00,55.6,55.6,29.00,WSW,240,0.0,0.0,100,0.00,,,-99.99,3.0,HOBO +U30 +Weather +,2013-01-31 13:42:00,
2013-01-31 08:43:00,55.6,55.6,29.00,SW,226,0.0,0.0,100,0.00,,,-99.99,2.0,HOBO +U30 +Weather +,2013-01-31 13:43:00,
2013-01-31 08:44:00,55.6,55.6,29.00,SW,225,0.0,0.0,100,0.00,,,-99.99,2.0,HOBO +U30 +Weather +,2013-01-31 13:44:00,
2013-01-31 08:45:00,55.6,55.6,29.01,SW,234,0.0,0.0,100,0.00,,,-99.99,2.0,HOBO +U30 +Weather +,2013-01-31 13:45:00,
2013-01-31 08:46:00,55.6,55.6,29.00,SSW,204,0.0,0.0,100,0.00,,,-99.99,2.0,HOBO +U30 +Weather +,2013-01-31 13:46:00,
2013-01-31 08:47:00,55.6,55.6,29.01,SSW,202,0.0,0.0,100,0.00,,,-99.99,2.0,HOBO +U30 +Weather +,2013-01-31 13:47:00,
2013-01-31 08:48:00,55.6,55.6,29.01,SW,230,0.0,0.0,100,0.00,,,-99.99,2.0,HOBO +U30 +Weather +,2013-01-31 13:48:00,
2013-01-31 08:49:00,55.5,55.5,29.01,SSW,213,0.0,0.0,100,0.00,,,-99.99,2.0,HOBO +U30 +Weather +,2013-01-31 13:49:00,
2013-01-31 08:50:00,55.5,55.5,29.03,SSW,199,0.0,0.0,100,0.00,,,-99.99,2.0,HOBO +U30 +Weather +,2013-01-31 13:50:00,
2013-01-31 08:51:00,55.5,55.5,29.03,WSW,247,0.0,0.0,100,0.00,,,-99.99,2.0,HOBO +U30 +Weather +,2013-01-31 13:51:00,
2013-01-31 08:52:00,55.4,55.4,29.01,SSW,212,0.0,0.0,100,0.00,,,-99.99,3.0,HOBO +U30 +Weather +,2013-01-31 13:52:00,
2013-01-31 08:53:00,55.3,55.4,29.01,South,180,0.0,0.0,100,0.00,,,-99.99,3.0,HOBO +U30 +Weather +,2013-01-31 13:53:00,
2013-01-31 08:54:00,55.3,55.3,29.02,SW,234,0.0,0.0,100,0.00,,,-99.99,3.0,HOBO +U30 +Weather +,2013-01-31 13:54:00,
2013-01-31 08:55:00,55.2,55.2,29.01,WSW,256,0.0,0.0,100,0.00,,,-99.99,3.0,HOBO +U30 +Weather +,2013-01-31 13:55:00,
2013-01-31 08:56:00,55.0,55.1,29.01,WSW,251,0.0,0.0,100,0.00,,,-99.99,3.0,HOBO +U30 +Weather +,2013-01-31 13:56:00,
2013-01-31 08:57:00,54.9,55.0,29.01,WSW,246,0.0,0.0,100,0.00,,,-99.99,3.0,HOBO +U30 +Weather +,2013-01-31 13:57:00,
2013-01-31 08:58:00,54.8,54.8,29.01,West,263,0.0,0.0,100,0.00,,,-99.99,3.0,HOBO +U30 +Weather +,2013-01-31 13:58:00,
2013-01-31 08:59:00,54.6,54.7,29.01,SW,232,0.0,0.0,100,0.00,,,-99.99,3.0,HOBO +U30 +Weather +,2013-01-31 13:59:00,
2013-01-31 09:00:00,54.5,54.5,29.02,WSW,240,0.0,0.0,100,0.00,,,-99.99,4.0,HOBO +U30 +Weather +,2013-01-31 14:00:00,
2013-01-31 09:01:00,54.2,54.3,29.01,SSW,206,0.0,0.0,100,0.00,,,-99.99,6.0,HOBO +U30 +Weather +,2013-01-31 14:01:00,
2013-01-31 09:02:00,54.1,54.1,29.02,SSW,211,0.0,0.0,100,0.00,,,-99.99,6.0,HOBO +U30 +Weather +,2013-01-31 14:02:00,
2013-01-31 09:03:00,54.1,54.1,29.02,SW,226,0.0,0.0,100,0.00,,,-99.99,6.0,HOBO +U30 +Weather +,2013-01-31 14:03:00,
2013-01-31 09:04:00,53.9,54.0,29.02,SW,234,0.0,0.0,100,0.00,,,-99.99,6.0,HOBO +U30 +Weather +,2013-01-31 14:04:00,
2013-01-31 09:05:00,53.9,53.9,29.01,SW,232,0.0,0.0,100,0.00,,,-99.99,7.0,HOBO +U30 +Weather +,2013-01-31 14:05:00,
2013-01-31 09:06:00,53.8,53.8,29.02,SW,222,0.0,0.0,100,0.00,,,-99.99,11.0,HOBO +U30 +Weather +,2013-01-31 14:06:00,
2013-01-31 09:07:00,53.8,53.8,29.02,SW,226,0.0,0.0,100,0.00,,,-99.99,11.0,HOBO +U30 +Weather +,2013-01-31 14:07:00,
2013-01-31 09:08:00,53.7,53.7,29.02,SSW,208,0.0,0.0,100,0.00,,,-99.99,13.0,HOBO +U30 +Weather +,2013-01-31 14:08:00,
2013-01-31 09:09:00,53.6,53.6,29.01,SW,232,0.0,0.0,100,0.00,,,-99.99,14.0,HOBO +U30 +Weather +,2013-01-31 14:09:00,
2013-01-31 09:10:00,53.7,53.7,29.01,SW,230,0.0,0.0,100,0.00,,,-99.99,14.0,HOBO +U30 +Weather +,2013-01-31 14:10:00,
2013-01-31 09:11:00,53.7,53.7,29.01,SSW,206,0.0,0.0,100,0.00,,,-99.99,16.0,HOBO +U30 +Weather +,2013-01-31 14:11:00,
2013-01-31 09:12:00,53.6,53.6,29.01,SW,216,0.0,0.0,100,0.00,,,-99.99,19.0,HOBO +U30 +Weather +,2013-01-31 14:12:00,
2013-01-31 09:13:00,53.6,53.6,29.01,WSW,239,0.0,0.0,100,0.00,,,-99.99,17.0,HOBO +U30 +Weather +,2013-01-31 14:13:00,
2013-01-31 09:14:00,53.6,53.6,29.00,SSW,201,0.0,0.0,100,0.00,,,-99.99,16.0,HOBO +U30 +Weather +,2013-01-31 14:14:00,
2013-01-31 09:15:00,53.6,53.6,29.01,SSW,192,0.0,0.0,100,0.00,,,-99.99,14.0,HOBO +U30 +Weather +,2013-01-31 14:15:00,
2013-01-31 09:16:00,53.6,53.6,29.01,SSW,211,0.0,0.0,100,0.00,,,-99.99,14.0,HOBO +U30 +Weather +,2013-01-31 14:16:00,
2013-01-31 09:17:00,53.6,53.6,29.01,SW,222,0.0,0.0,100,0.00,,,-99.99,11.0,HOBO +U30 +Weather +,2013-01-31 14:17:00,
2013-01-31 09:18:00,53.6,53.6,29.01,SW,234,0.0,0.0,100,0.00,,,-99.99,9.0,HOBO +U30 +Weather +,2013-01-31 14:18:00,
2013-01-31 09:19:00,53.6,53.6,29.00,SSW,212,0.0,0.0,100,0.00,,,-99.99,8.0,HOBO +U30 +Weather +,2013-01-31 14:19:00,
2013-01-31 09:20:00,53.6,53.6,29.01,WSW,247,0.0,0.0,100,0.00,,,-99.99,8.0,HOBO +U30 +Weather +,2013-01-31 14:20:00,
2013-01-31 09:21:00,53.5,53.5,29.01,SW,219,0.0,0.0,100,0.00,,,-99.99,7.0,HOBO +U30 +Weather +,2013-01-31 14:21:00,
2013-01-31 09:27:00,53.1,53.1,29.03,SW,234,0.0,0.0,100,0.00,,,-99.99,7.0,HOBO +U30 +Weather +,2013-01-31 14:27:00,
2013-01-31 09:28:00,53.1,53.1,29.03,SSW,208,0.0,0.0,100,0.00,,,-99.99,6.0,HOBO +U30 +Weather +,2013-01-31 14:28:00,
2013-01-31 09:29:00,53.0,53.0,29.02,SW,222,0.0,0.0,100,0.00,,,-99.99,6.0,HOBO +U30 +Weather +,2013-01-31 14:29:00,
2013-01-31 09:30:00,52.9,52.9,29.02,SSW,201,0.0,0.0,100,0.00,,,-99.99,7.0,HOBO +U30 +Weather +,2013-01-31 14:30:00,
2013-01-31 09:31:00,52.8,52.8,29.02,SSW,209,0.0,0.0,100,0.00,,,-99.99,8.0,HOBO +U30 +Weather +,2013-01-31 14:31:00,
2013-01-31 09:32:00,52.8,52.8,29.02,SSW,204,0.0,0.0,100,0.00,,,-99.99,8.0,HOBO +U30 +Weather +,2013-01-31 14:32:00,
2013-01-31 09:33:00,52.7,52.8,29.03,SSW,208,0.0,0.0,100,0.00,,,-99.99,9.0,HOBO +U30 +Weather +,2013-01-31 14:33:00,
2013-01-31 09:34:00,52.7,52.8,29.02,SW,218,0.0,0.0,100,0.00,,,-99.99,8.0,HOBO +U30 +Weather +,2013-01-31 14:34:00,
2013-01-31 09:35:00,52.7,52.7,29.03,SW,222,0.0,0.0,100,0.00,,,-99.99,7.0,HOBO +U30 +Weather +,2013-01-31 14:35:00,
2013-01-31 09:36:00,52.6,52.6,29.03,SSW,212,0.0,0.0,100,0.00,,,-99.99,7.0,HOBO +U30 +Weather +,2013-01-31 14:36:00,
2013-01-31 09:37:00,52.6,52.6,29.02,SSW,192,0.0,0.0,100,0.00,,,-99.99,4.0,HOBO +U30 +Weather +,2013-01-31 14:37:00,
2013-01-31 09:38:00,52.5,52.5,29.02,SW,236,0.0,0.0,100,0.00,,,-99.99,4.0,HOBO +U30 +Weather +,2013-01-31 14:38:00,
2013-01-31 09:39:00,52.3,52.3,29.03,SSW,199,0.0,0.0,100,0.00,,,-99.99,4.0,HOBO +U30 +Weather +,2013-01-31 14:39:00,
2013-01-31 09:40:00,52.1,52.1,29.03,WSW,244,0.0,0.0,100,0.00,,,-99.99,3.0,HOBO +U30 +Weather +,2013-01-31 14:40:00,
2013-01-31 09:41:00,52.0,52.0,29.04,SSW,208,0.0,0.0,100,0.00,,,-99.99,3.0,HOBO +U30 +Weather +,2013-01-31 14:41:00,
2013-01-31 09:42:00,51.7,51.7,29.03,SSW,194,0.0,0.0,100,0.00,,,-99.99,3.0,HOBO +U30 +Weather +,2013-01-31 14:42:00,
2013-01-31 09:43:00,51.5,51.6,29.03,SW,218,0.0,0.0,100,0.00,,,-99.99,3.0,HOBO +U30 +Weather +,2013-01-31 14:43:00,
2013-01-31 09:44:00,51.3,51.3,29.03,SW,222,0.0,0.0,100,0.00,,,-99.99,6.0,HOBO +U30 +Weather +,2013-01-31 14:44:00,
2013-01-31 09:45:00,51.2,51.2,29.03,SW,233,0.0,0.0,100,0.00,,,-99.99,9.0,HOBO +U30 +Weather +,2013-01-31 14:45:00,
2013-01-31 09:46:00,51.0,51.0,29.04,SW,215,0.0,0.0,100,0.00,,,-99.99,7.0,HOBO +U30 +Weather +,2013-01-31 14:46:00,
2013-01-31 09:47:00,50.8,50.8,29.03,SSW,209,0.0,0.0,100,0.00,,,-99.99,7.0,HOBO +U30 +Weather +,2013-01-31 14:47:00,
2013-01-31 09:48:00,50.6,50.6,29.03,SW,225,0.0,0.0,100,0.00,,,-99.99,9.0,HOBO +U30 +Weather +,2013-01-31 14:48:00,
2013-01-31 09:49:00,50.6,50.6,29.03,SSW,211,0.0,0.0,100,0.00,,,-99.99,17.0,HOBO +U30 +Weather +,2013-01-31 14:49:00,
2013-01-31 09:50:00,50.6,50.6,29.03,SSW,206,0.0,0.0,100,0.00,,,-99.99,21.0,HOBO +U30 +Weather +,2013-01-31 14:50:00,
2013-01-31 09:51:00,50.5,50.5,29.04,South,191,0.0,0.0,100,0.00,,,-99.99,17.0,HOBO +U30 +Weather +,2013-01-31 14:51:00,
2013-01-31 09:52:00,50.5,50.5,29.04,SSW,197,0.0,0.0,100,0.00,,,-99.99,58.0,HOBO +U30 +Weather +,2013-01-31 14:52:00,
2013-01-31 09:53:00,50.6,50.6,29.04,South,183,0.0,0.0,100,0.00,,,-99.99,42.0,HOBO +U30 +Weather +,2013-01-31 14:53:00,
2013-01-31 09:54:00,50.7,50.7,29.04,South,191,0.0,0.0,100,0.00,,,-99.99,49.0,HOBO +U30 +Weather +,2013-01-31 14:54:00,
2013-01-31 09:55:00,50.9,50.9,29.03,SSW,197,0.0,0.0,100,0.00,,,-99.99,94.0,HOBO +U30 +Weather +,2013-01-31 14:55:00,
2013-01-31 09:56:00,51.3,51.3,29.03,SSW,198,0.0,0.0,100,0.00,,,-99.99,88.0,HOBO +U30 +Weather +,2013-01-31 14:56:00,
2013-01-31 09:57:00,51.3,51.3,29.03,South,183,0.0,0.0,100,0.00,,,-99.99,86.0,HOBO +U30 +Weather +,2013-01-31 14:57:00,
2013-01-31 09:58:00,51.4,51.4,29.03,SSW,208,0.0,0.0,100,0.00,,,-99.99,84.0,HOBO +U30 +Weather +,2013-01-31 14:58:00,
2013-01-31 09:59:00,51.4,51.4,29.04,South,185,0.0,0.0,100,0.00,,,-99.99,86.0,HOBO +U30 +Weather +,2013-01-31 14:59:00,
2013-01-31 10:00:00,51.5,51.5,29.04,SW,226,0.0,0.0,100,0.00,,,-99.99,87.0,HOBO +U30 +Weather +,2013-01-31 15:00:00,
2013-01-31 10:01:00,51.5,51.6,29.03,South,188,0.0,0.0,100,0.00,,,-99.99,88.0,HOBO +U30 +Weather +,2013-01-31 15:01:00,
2013-01-31 10:02:00,51.5,51.6,29.03,SW,222,0.0,0.0,100,0.00,,,-99.99,88.0,HOBO +U30 +Weather +,2013-01-31 15:02:00,
2013-01-31 10:03:00,51.6,51.7,29.03,South,184,0.0,0.0,100,0.00,,,-99.99,89.0,HOBO +U30 +Weather +,2013-01-31 15:03:00,
2013-01-31 10:04:00,51.7,51.7,29.02,SW,222,0.0,0.0,100,0.00,,,-99.99,89.0,HOBO +U30 +Weather +,2013-01-31 15:04:00,
2013-01-31 10:05:00,51.8,51.8,29.03,SSW,202,0.0,0.0,100,0.00,,,-99.99,92.0,HOBO +U30 +Weather +,2013-01-31 15:05:00,
2013-01-31 10:06:00,51.7,51.7,29.03,SSW,211,0.0,0.0,100,0.00,,,-99.99,97.0,HOBO +U30 +Weather +,2013-01-31 15:06:00,
2013-01-31 10:07:00,51.9,51.9,29.03,SW,225,0.0,0.0,100,0.00,,,-99.99,112.0,HOBO +U30 +Weather +,2013-01-31 15:07:00,
2013-01-31 10:08:00,52.0,52.1,29.03,SSW,192,0.0,0.0,100,0.00,,,-99.99,53.0,HOBO +U30 +Weather +,2013-01-31 15:08:00,
2013-01-31 10:09:00,51.5,51.6,29.03,SSW,201,0.0,0.0,100,0.00,,,-99.99,53.0,HOBO +U30 +Weather +,2013-01-31 15:09:00,
2013-01-31 10:10:00,50.8,50.8,29.03,SSW,199,0.0,0.0,100,0.00,,,-99.99,41.0,HOBO +U30 +Weather +,2013-01-31 15:10:00,
2013-01-31 10:11:00,50.3,50.3,29.04,SSW,211,0.0,0.0,100,0.00,,,-99.99,33.0,HOBO +U30 +Weather +,2013-01-31 15:11:00,
2013-01-31 10:12:00,50.0,50.0,29.04,SW,230,0.0,0.0,100,0.00,,,-99.99,31.0,HOBO +U30 +Weather +,2013-01-31 15:12:00,
2013-01-31 10:13:00,49.6,49.7,29.04,SSW,197,0.0,0.0,100,0.00,,,-99.99,32.0,HOBO +U30 +Weather +,2013-01-31 15:13:00,
2013-01-31 10:14:00,49.4,49.4,29.04,SSW,208,0.0,0.0,100,0.00,,,-99.99,34.0,HOBO +U30 +Weather +,2013-01-31 15:14:00,
2013-01-31 10:15:00,49.2,49.2,29.04,SSW,201,0.0,0.0,100,0.00,,,-99.99,38.0,HOBO +U30 +Weather +,2013-01-31 15:15:00,
2013-01-31 10:16:00,49.1,49.1,29.05,SW,227,0.0,0.0,100,0.00,,,-99.99,42.0,HOBO +U30 +Weather +,2013-01-31 15:16:00,
2013-01-31 10:17:00,49.0,49.0,29.05,SSW,204,0.0,0.0,100,0.00,,,-99.99,42.0,HOBO +U30 +Weather +,2013-01-31 15:17:00,
2013-01-31 10:18:00,48.9,49.0,29.04,SW,230,0.0,0.0,100,0.00,,,-99.99,41.0,HOBO +U30 +Weather +,2013-01-31 15:18:00,
2013-01-31 10:19:00,48.9,48.9,29.04,SW,233,0.0,0.0,100,0.00,,,-99.99,38.0,HOBO +U30 +Weather +,2013-01-31 15:19:00,
2013-01-31 10:20:00,48.8,48.8,29.05,WSW,246,0.0,0.0,100,0.00,,,-99.99,33.0,HOBO +U30 +Weather +,2013-01-31 15:20:00,
2013-01-31 10:21:00,48.5,48.5,29.05,SW,229,0.0,0.0,100,0.00,,,-99.99,32.0,HOBO +U30 +Weather +,2013-01-31 15:21:00,
2013-01-31 10:22:00,48.0,48.0,29.05,SSW,211,0.0,0.0,100,0.00,,,-99.99,29.0,HOBO +U30 +Weather +,2013-01-31 15:22:00,
2013-01-31 10:23:00,47.6,47.6,29.05,SSW,195,0.0,0.0,99,0.00,,,-99.99,29.0,HOBO +U30 +Weather +,2013-01-31 15:23:00,
2013-01-31 10:24:00,47.4,47.3,29.05,SSW,205,0.0,0.0,99,0.00,,,-99.99,33.0,HOBO +U30 +Weather +,2013-01-31 15:24:00,
2013-01-31 10:25:00,47.3,47.1,29.05,SSW,211,0.0,0.0,99,0.00,,,-99.99,37.0,HOBO +U30 +Weather +,2013-01-31 15:25:00,
2013-01-31 10:26:00,47.3,47.2,29.06,SW,234,0.0,0.0,99,0.00,,,-99.99,41.0,HOBO +U30 +Weather +,2013-01-31 15:26:00,
2013-01-31 10:27:00,47.4,47.2,29.06,SSW,208,0.0,0.0,99,0.00,,,-99.99,36.0,HOBO +U30 +Weather +,2013-01-31 15:27:00,
2013-01-31 10:28:00,47.4,47.1,29.05,SW,234,0.0,0.0,98,0.00,,,-99.99,32.0,HOBO +U30 +Weather +,2013-01-31 15:28:00,
2013-01-31 10:29:00,47.4,46.9,29.06,SSW,208,0.0,0.0,98,0.00,,,-99.99,29.0,HOBO +U30 +Weather +,2013-01-31 15:29:00,
2013-01-31 10:30:00,47.2,46.6,29.06,SW,232,0.0,0.0,97,0.00,,,-99.99,29.0,HOBO +U30 +Weather +,2013-01-31 15:30:00,
2013-01-31 10:31:00,47.2,46.4,29.06,SSW,206,0.0,0.0,97,0.00,,,-99.99,27.0,HOBO +U30 +Weather +,2013-01-31 15:31:00,
2013-01-31 10:32:00,47.1,46.1,29.05,South,185,0.0,0.0,96,0.00,,,-99.99,37.0,HOBO +U30 +Weather +,2013-01-31 15:32:00,
2013-01-31 10:33:00,47.2,46.1,29.05,SSW,208,0.0,0.0,96,0.00,,,-99.99,62.0,HOBO +U30 +Weather +,2013-01-31 15:33:00,
2013-01-31 10:34:00,48.0,47.0,29.07,SSW,192,0.0,0.0,96,0.00,,,-99.99,113.0,HOBO +U30 +Weather +,2013-01-31 15:34:00,
2013-01-31 10:35:00,48.7,47.6,29.07,SSW,206,0.0,0.0,95,0.00,,,-99.99,52.0,HOBO +U30 +Weather +,2013-01-31 15:35:00,
2013-01-31 10:36:00,48.8,47.1,29.07,SW,227,0.0,0.0,93,0.00,,,-99.99,49.0,HOBO +U30 +Weather +,2013-01-31 15:36:00,
2013-01-31 10:37:00,48.6,46.6,29.06,SSW,197,0.0,0.0,92,0.00,,,-99.99,51.0,HOBO +U30 +Weather +,2013-01-31 15:37:00,
2013-01-31 10:38:00,48.6,46.6,29.06,SSW,208,0.0,0.0,92,0.00,,,-99.99,46.0,HOBO +U30 +Weather +,2013-01-31 15:38:00,
2013-01-31 10:39:00,48.5,46.4,29.07,SW,218,0.0,0.0,92,0.00,,,-99.99,41.0,HOBO +U30 +Weather +,2013-01-31 15:39:00,
2013-01-31 10:40:00,48.5,46.4,29.06,WSW,248,0.0,0.0,92,0.00,,,-99.99,136.0,HOBO +U30 +Weather +,2013-01-31 15:40:00,
2013-01-31 10:41:00,49.1,46.5,29.07,South,190,0.0,0.0,90,0.00,,,-99.99,136.0,HOBO +U30 +Weather +,2013-01-31 15:41:00,
2013-01-31 10:42:00,49.8,47.0,29.07,SSW,208,0.0,0.0,89,0.00,,,-99.99,94.0,HOBO +U30 +Weather +,2013-01-31 15:42:00,
2013-01-31 10:43:00,50.5,47.5,29.07,SSW,211,0.0,0.0,89,0.00,,,-99.99,134.0,HOBO +U30 +Weather +,2013-01-31 15:43:00,
2013-01-31 10:44:00,50.6,46.7,29.07,South,183,0.0,0.0,86,0.00,,,-99.99,117.0,HOBO +U30 +Weather +,2013-01-31 15:44:00,
2013-01-31 10:45:00,50.3,46.0,29.07,South,190,0.0,0.0,85,0.00,,,-99.99,53.0,HOBO +U30 +Weather +,2013-01-31 15:45:00,
2013-01-31 10:46:00,49.8,45.9,29.07,SW,223,0.0,0.0,86,0.00,,,-99.99,133.0,HOBO +U30 +Weather +,2013-01-31 15:46:00,
2013-01-31 10:47:00,50.0,46.4,29.08,SW,222,0.0,0.0,87,0.00,,,-99.99,59.0,HOBO +U30 +Weather +,2013-01-31 15:47:00,
2013-01-31 10:48:00,49.7,45.4,29.08,SW,218,0.0,0.0,85,0.00,,,-99.99,73.0,HOBO +U30 +Weather +,2013-01-31 15:48:00,
2013-01-31 10:49:00,49.6,45.4,29.08,SW,236,0.0,0.0,85,0.00,,,-99.99,69.0,HOBO +U30 +Weather +,2013-01-31 15:49:00,
2013-01-31 10:50:00,49.6,45.2,29.08,SSW,212,0.0,0.0,84,0.00,,,-99.99,63.0,HOBO +U30 +Weather +,2013-01-31 15:50:00,
2013-01-31 10:51:00,49.4,45.0,29.08,SW,229,0.0,0.0,84,0.00,,,-99.99,48.0,HOBO +U30 +Weather +,2013-01-31 15:51:00,
2013-01-31 10:52:00,49.3,45.1,29.08,WSW,250,0.0,0.0,85,0.00,,,-99.99,47.0,HOBO +U30 +Weather +,2013-01-31 15:52:00,
2013-01-31 10:53:00,49.1,44.7,29.08,WSW,240,0.0,0.0,84,0.00,,,-99.99,46.0,HOBO +U30 +Weather +,2013-01-31 15:53:00,
2013-01-31 10:54:00,48.5,43.8,29.08,SSW,194,0.0,0.0,83,0.00,,,-99.99,51.0,HOBO +U30 +Weather +,2013-01-31 15:54:00,
2013-01-31 10:55:00,48.4,44.1,29.08,WSW,237,0.0,0.0,85,0.00,,,-99.99,54.0,HOBO +U30 +Weather +,2013-01-31 15:55:00,
2013-01-31 10:56:00,48.5,44.2,29.08,SSW,208,0.0,0.0,84,0.00,,,-99.99,122.0,HOBO +U30 +Weather +,2013-01-31 15:56:00,
2013-01-31 10:57:00,49.2,44.8,29.08,SW,225,0.0,0.0,84,0.00,,,-99.99,116.0,HOBO +U30 +Weather +,2013-01-31 15:57:00,
2013-01-31 10:58:00,49.8,45.2,29.08,SW,220,0.0,0.0,84,0.00,,,-99.99,113.0,HOBO +U30 +Weather +,2013-01-31 15:58:00,
2013-01-31 10:59:00,49.9,44.4,29.08,SSW,194,0.0,0.0,81,0.00,,,-99.99,112.0,HOBO +U30 +Weather +,2013-01-31 15:59:00,
2013-01-31 11:00:00,50.1,44.6,29.08,SSW,204,0.0,0.0,81,0.00,,,-99.99,117.0,HOBO +U30 +Weather +,2013-01-31 16:00:00,
2013-01-31 11:01:00,50.0,44.0,29.08,SSW,201,0.0,0.0,79,0.00,,,-99.99,131.0,HOBO +U30 +Weather +,2013-01-31 16:01:00,
2013-01-31 11:02:00,50.1,44.5,29.08,WSW,244,0.0,0.0,80,0.00,,,-99.99,66.0,HOBO +U30 +Weather +,2013-01-31 16:02:00,
2013-01-31 11:03:00,50.5,45.1,29.08,SSW,211,0.0,0.0,81,0.00,,,-99.99,128.0,HOBO +U30 +Weather +,2013-01-31 16:03:00,
2013-01-31 11:04:00,51.0,45.4,29.08,SW,216,0.0,0.0,81,0.00,,,-99.99,93.0,HOBO +U30 +Weather +,2013-01-31 16:04:00,
2013-01-31 11:05:00,50.9,44.7,29.08,South,184,0.0,0.0,79,0.00,,,-99.99,124.0,HOBO +U30 +Weather +,2013-01-31 16:05:00,
2013-01-31 11:06:00,50.9,44.7,29.08,South,187,0.0,0.0,79,0.00,,,-99.99,107.0,HOBO +U30 +Weather +,2013-01-31 16:06:00,
2013-01-31 11:07:00,51.2,45.4,29.07,South,183,0.0,0.0,80,0.00,,,-99.99,146.0,HOBO +U30 +Weather +,2013-01-31 16:07:00,
2013-01-31 11:08:00,51.2,44.7,29.08,SSW,213,0.0,0.0,78,0.00,,,-99.99,139.0,HOBO +U30 +Weather +,2013-01-31 16:08:00,
2013-01-31 11:09:00,50.9,44.7,29.08,WSW,246,0.0,0.0,79,0.00,,,-99.99,98.0,HOBO +U30 +Weather +,2013-01-31 16:09:00,
2013-01-31 11:10:00,50.7,44.2,29.09,SW,234,0.0,0.0,78,0.00,,,-99.99,97.0,HOBO +U30 +Weather +,2013-01-31 16:10:00,
2013-01-31 11:11:00,50.5,44.0,29.08,SW,215,0.0,0.0,78,0.00,,,-99.99,122.0,HOBO +U30 +Weather +,2013-01-31 16:11:00,
2013-01-31 11:12:00,50.5,43.9,29.09,SSW,209,0.0,0.0,77,0.00,,,-99.99,124.0,HOBO +U30 +Weather +,2013-01-31 16:12:00,
2013-01-31 11:13:00,50.7,44.0,29.08,SW,234,0.0,0.0,77,0.00,,,-99.99,123.0,HOBO +U30 +Weather +,2013-01-31 16:13:00,
2013-01-31 11:14:00,50.7,44.2,29.08,South,190,0.0,0.0,78,0.00,,,-99.99,119.0,HOBO +U30 +Weather +,2013-01-31 16:14:00,
2013-01-31 11:15:00,50.5,43.6,29.10,SSW,212,0.0,0.0,77,0.00,,,-99.99,123.0,HOBO +U30 +Weather +,2013-01-31 16:15:00,
2013-01-31 11:16:00,50.4,43.8,29.08,SW,232,0.0,0.0,78,0.00,,,-99.99,117.0,HOBO +U30 +Weather +,2013-01-31 16:16:00,
2013-01-31 11:17:00,50.5,44.1,29.09,SW,216,0.0,0.0,78,0.00,,,-99.99,49.0,HOBO +U30 +Weather +,2013-01-31 16:17:00,
2013-01-31 11:18:00,49.8,42.9,29.09,West,274,0.0,0.0,77,0.00,,,-99.99,62.0,HOBO +U30 +Weather +,2013-01-31 16:18:00,
2013-01-31 11:19:00,49.2,42.3,29.10,SW,236,0.0,0.0,76,0.00,,,-99.99,81.0,HOBO +U30 +Weather +,2013-01-31 16:19:00,
2013-01-31 11:20:00,49.0,42.6,29.09,SSW,201,0.0,0.0,78,0.00,,,-99.99,57.0,HOBO +U30 +Weather +,2013-01-31 16:20:00,
2013-01-31 11:21:00,48.7,42.0,29.09,SSW,192,0.0,0.0,77,0.00,,,-99.99,77.0,HOBO +U30 +Weather +,2013-01-31 16:21:00,
2013-01-31 11:22:00,48.6,42.1,29.09,SW,234,0.0,0.0,78,0.00,,,-99.99,107.0,HOBO +U30 +Weather +,2013-01-31 16:22:00,
2013-01-31 11:23:00,48.6,42.2,29.09,SSW,192,0.0,0.0,78,0.00,,,-99.99,114.0,HOBO +U30 +Weather +,2013-01-31 16:23:00,
2013-01-31 11:24:00,48.8,42.3,29.09,South,185,0.0,0.0,78,0.00,,,-99.99,113.0,HOBO +U30 +Weather +,2013-01-31 16:24:00,
2013-01-31 11:25:00,48.9,42.3,29.08,SSW,201,0.0,0.0,77,0.00,,,-99.99,112.0,HOBO +U30 +Weather +,2013-01-31 16:25:00,
2013-01-31 11:26:00,49.1,42.4,29.08,SSW,205,0.0,0.0,77,0.00,,,-99.99,113.0,HOBO +U30 +Weather +,2013-01-31 16:26:00,
2013-01-31 11:27:00,49.2,42.6,29.10,SSW,212,0.0,0.0,77,0.00,,,-99.99,112.0,HOBO +U30 +Weather +,2013-01-31 16:27:00,
2013-01-31 11:28:00,49.4,42.5,29.10,SW,230,0.0,0.0,77,0.00,,,-99.99,112.0,HOBO +U30 +Weather +,2013-01-31 16:28:00,
2013-01-31 11:29:00,49.5,43.0,29.08,SSW,205,0.0,0.0,78,0.00,,,-99.99,112.0,HOBO +U30 +Weather +,2013-01-31 16:29:00,
2013-01-31 11:30:00,49.4,42.4,29.09,South,181,0.0,0.0,76,0.00,,,-99.99,113.0,HOBO +U30 +Weather +,2013-01-31 16:30:00,
2013-01-31 11:31:00,49.4,42.6,29.10,SSW,205,0.0,0.0,77,0.00,,,-99.99,113.0,HOBO +U30 +Weather +,2013-01-31 16:31:00,
2013-01-31 11:32:00,49.6,42.9,29.08,WSW,239,0.0,0.0,77,0.00,,,-99.99,116.0,HOBO +U30 +Weather +,2013-01-31 16:32:00,
2013-01-31 11:33:00,49.7,43.0,29.09,SW,226,0.0,0.0,77,0.00,,,-99.99,114.0,HOBO +U30 +Weather +,2013-01-31 16:33:00,
2013-01-31 11:34:00,50.1,43.5,29.09,SW,218,0.0,0.0,77,0.00,,,-99.99,113.0,HOBO +U30 +Weather +,2013-01-31 16:34:00,
2013-01-31 11:35:00,50.2,43.1,29.09,SW,218,0.0,0.0,76,0.00,,,-99.99,114.0,HOBO +U30 +Weather +,2013-01-31 16:35:00,
2013-01-31 11:36:00,50.2,42.8,29.09,SW,233,0.0,0.0,75,0.00,,,-99.99,118.0,HOBO +U30 +Weather +,2013-01-31 16:36:00,
2013-01-31 11:37:00,50.6,43.8,29.09,SW,229,0.0,0.0,77,0.00,,,-99.99,84.0,HOBO +U30 +Weather +,2013-01-31 16:37:00,
2013-01-31 11:38:00,50.3,43.2,29.10,SW,226,0.0,0.0,76,0.00,,,-99.99,39.0,HOBO +U30 +Weather +,2013-01-31 16:38:00,
2013-01-31 11:39:00,49.8,42.6,29.10,South,191,0.0,0.0,76,0.00,,,-99.99,42.0,HOBO +U30 +Weather +,2013-01-31 16:39:00,
2013-01-31 11:40:00,49.1,42.0,29.10,SSW,201,0.0,0.0,76,0.00,,,-99.99,42.0,HOBO +U30 +Weather +,2013-01-31 16:40:00,
2013-01-31 11:41:00,48.7,42.1,29.10,WSW,237,0.0,0.0,78,0.00,,,-99.99,43.0,HOBO +U30 +Weather +,2013-01-31 16:41:00,
2013-01-31 11:42:00,48.8,42.7,29.10,SW,220,0.0,0.0,79,0.00,,,-99.99,49.0,HOBO +U30 +Weather +,2013-01-31 16:42:00,
2013-01-31 11:43:00,48.8,42.6,29.10,SSW,212,0.0,0.0,78,0.00,,,-99.99,33.0,HOBO +U30 +Weather +,2013-01-31 16:43:00,
2013-01-31 11:44:00,48.7,42.3,29.10,WSW,253,0.0,0.0,78,0.00,,,-99.99,33.0,HOBO +U30 +Weather +,2013-01-31 16:44:00,
2013-01-31 11:45:00,48.6,42.6,29.10,WSW,256,0.0,0.0,79,0.00,,,-99.99,146.0,HOBO +U30 +Weather +,2013-01-31 16:45:00,
2013-01-31 11:46:00,49.7,44.1,29.10,SW,226,0.0,0.0,80,0.00,,,-99.99,102.0,HOBO +U30 +Weather +,2013-01-31 16:46:00,
2013-01-31 11:47:00,50.0,43.5,29.09,West,261,0.0,0.0,78,0.00,,,-99.99,27.0,HOBO +U30 +Weather +,2013-01-31 16:47:00,
2013-01-31 11:48:00,49.5,42.6,29.10,WSW,243,0.0,0.0,77,0.00,,,-99.99,113.0,HOBO +U30 +Weather +,2013-01-31 16:48:00,
2013-01-31 11:49:00,49.4,42.7,29.09,SSW,211,0.0,0.0,77,0.00,,,-99.99,119.0,HOBO +U30 +Weather +,2013-01-31 16:49:00,
2013-01-31 11:50:00,49.7,43.2,29.09,SSW,205,0.0,0.0,78,0.00,,,-99.99,118.0,HOBO +U30 +Weather +,2013-01-31 16:50:00,
2013-01-31 11:51:00,50.0,43.3,29.09,SSW,194,0.0,0.0,77,0.00,,,-99.99,117.0,HOBO +U30 +Weather +,2013-01-31 16:51:00,
2013-01-31 11:52:00,50.1,43.2,29.10,SSW,197,0.0,0.0,77,0.00,,,-99.99,117.0,HOBO +U30 +Weather +,2013-01-31 16:52:00,
2013-01-31 11:53:00,50.2,43.1,29.10,SSW,211,0.0,0.0,76,0.00,,,-99.99,117.0,HOBO +U30 +Weather +,2013-01-31 16:53:00,
2013-01-31 11:54:00,50.6,44.1,29.10,West,261,0.0,0.0,78,0.00,,,-99.99,117.0,HOBO +U30 +Weather +,2013-01-31 16:54:00,
2013-01-31 11:55:00,51.2,44.4,29.09,SW,233,0.0,0.0,77,0.00,,,-99.99,117.0,HOBO +U30 +Weather +,2013-01-31 16:55:00,
2013-01-31 11:56:00,51.2,43.5,29.10,SSW,205,0.0,0.0,74,0.00,,,-99.99,117.0,HOBO +U30 +Weather +,2013-01-31 16:56:00,
2013-01-31 11:57:00,50.8,43.1,29.10,SSW,199,0.0,0.0,74,0.00,,,-99.99,117.0,HOBO +U30 +Weather +,2013-01-31 16:57:00,
2013-01-31 11:58:00,50.6,42.9,29.10,SSW,211,0.0,0.0,74,0.00,,,-99.99,118.0,HOBO +U30 +Weather +,2013-01-31 16:58:00,
2013-01-31 11:59:00,50.6,43.3,29.10,WSW,248,0.0,0.0,75,0.00,,,-99.99,118.0,HOBO +U30 +Weather +,2013-01-31 16:59:00,
2013-01-31 12:00:00,51.0,44.1,29.10,West,260,0.0,0.0,77,0.00,,,-99.99,118.0,HOBO +U30 +Weather +,2013-01-31 17:00:00,
2013-01-31 12:01:00,51.4,44.2,29.10,SSW,206,0.0,0.0,76,0.00,,,-99.99,118.0,HOBO +U30 +Weather +,2013-01-31 17:01:00,
2013-01-31 12:02:00,51.5,43.7,29.10,SW,223,0.0,0.0,74,0.00,,,-99.99,118.0,HOBO +U30 +Weather +,2013-01-31 17:02:00,
2013-01-31 12:03:00,51.6,43.8,29.10,WSW,243,0.0,0.0,74,0.00,,,-99.99,119.0,HOBO +U30 +Weather +,2013-01-31 17:03:00,
2013-01-31 12:04:00,51.8,44.4,29.10,West,278,0.0,0.0,75,0.00,,,-99.99,121.0,HOBO +U30 +Weather +,2013-01-31 17:04:00,
2013-01-31 12:05:00,51.9,44.1,29.10,WSW,246,0.0,0.0,74,0.00,,,-99.99,119.0,HOBO +U30 +Weather +,2013-01-31 17:05:00,
2013-01-31 12:06:00,51.9,44.1,29.10,SW,229,0.0,0.0,74,0.00,,,-99.99,119.0,HOBO +U30 +Weather +,2013-01-31 17:06:00,
2013-01-31 12:07:00,51.8,43.7,29.10,SW,219,0.0,0.0,73,0.00,,,-99.99,119.0,HOBO +U30 +Weather +,2013-01-31 17:07:00,
2013-01-31 12:08:00,52.0,44.8,29.10,WSW,250,0.0,0.0,76,0.00,,,-99.99,119.0,HOBO +U30 +Weather +,2013-01-31 17:08:00,
2013-01-31 12:09:00,52.1,44.3,29.10,SSW,201,0.0,0.0,74,0.00,,,-99.99,122.0,HOBO +U30 +Weather +,2013-01-31 17:09:00,
2013-01-31 12:10:00,52.3,44.7,29.10,WNW,296,0.0,0.0,75,0.00,,,-99.99,122.0,HOBO +U30 +Weather +,2013-01-31 17:10:00,
2013-01-31 12:11:00,52.2,44.0,29.10,WSW,239,0.0,0.0,73,0.00,,,-99.99,122.0,HOBO +U30 +Weather +,2013-01-31 17:11:00,
2013-01-31 12:12:00,52.1,44.0,29.10,SW,227,0.0,0.0,73,0.00,,,-99.99,126.0,HOBO +U30 +Weather +,2013-01-31 17:12:00,
2013-01-31 12:13:00,52.2,44.9,29.10,WSW,257,0.0,0.0,75,0.00,,,-99.99,131.0,HOBO +U30 +Weather +,2013-01-31 17:13:00,
2013-01-31 12:14:00,52.2,44.0,29.11,SSW,199,0.0,0.0,73,0.00,,,-99.99,136.0,HOBO +U30 +Weather +,2013-01-31 17:14:00,
2013-01-31 12:15:00,52.3,44.0,29.10,WSW,241,0.0,0.0,73,0.00,,,-99.99,142.0,HOBO +U30 +Weather +,2013-01-31 17:15:00,
2013-01-31 12:16:00,52.5,44.0,29.11,West,271,0.0,0.0,72,0.00,,,-99.99,58.0,HOBO +U30 +Weather +,2013-01-31 17:16:00,
2013-01-31 12:17:00,52.4,44.1,29.10,SW,222,0.0,0.0,73,0.00,,,-99.99,158.0,HOBO +U30 +Weather +,2013-01-31 17:17:00,
2013-01-31 12:18:00,52.7,45.0,29.11,WSW,250,0.0,0.0,74,0.00,,,-99.99,53.0,HOBO +U30 +Weather +,2013-01-31 17:18:00,
2013-01-31 12:19:00,52.9,45.1,29.12,WSW,258,0.0,0.0,74,0.00,,,-99.99,52.0,HOBO +U30 +Weather +,2013-01-31 17:19:00,
2013-01-31 12:20:00,52.7,44.6,29.11,WSW,257,0.0,0.0,73,0.00,,,-99.99,48.0,HOBO +U30 +Weather +,2013-01-31 17:20:00,
2013-01-31 12:21:00,51.9,43.2,29.11,West,260,0.0,0.0,72,0.00,,,-99.99,38.0,HOBO +U30 +Weather +,2013-01-31 17:21:00,
2013-01-31 12:22:00,51.2,43.0,29.11,West,268,0.0,0.0,73,0.00,,,-99.99,39.0,HOBO +U30 +Weather +,2013-01-31 17:22:00,
2013-01-31 12:23:00,51.0,43.8,29.11,West,267,0.0,0.0,76,0.00,,,-99.99,47.0,HOBO +U30 +Weather +,2013-01-31 17:23:00,
2013-01-31 12:24:00,50.7,43.3,29.12,SSW,202,0.0,0.0,75,0.00,,,-99.99,48.0,HOBO +U30 +Weather +,2013-01-31 17:24:00,
2013-01-31 12:25:00,50.5,43.5,29.11,SW,230,0.0,0.0,77,0.00,,,-99.99,42.0,HOBO +U30 +Weather +,2013-01-31 17:25:00,
2013-01-31 12:26:00,50.3,43.2,29.11,WSW,257,0.0,0.0,76,0.00,,,-99.99,44.0,HOBO +U30 +Weather +,2013-01-31 17:26:00,
2013-01-31 12:27:00,50.4,43.7,29.12,West,260,0.0,0.0,77,0.00,,,-99.99,42.0,HOBO +U30 +Weather +,2013-01-31 17:27:00,
2013-01-31 12:28:00,50.1,42.9,29.12,West,263,0.0,0.0,76,0.00,,,-99.99,34.0,HOBO +U30 +Weather +,2013-01-31 17:28:00,
2013-01-31 12:29:00,49.8,42.9,29.12,SW,223,0.0,0.0,76,0.00,,,-99.99,33.0,HOBO +U30 +Weather +,2013-01-31 17:29:00,
2013-01-31 12:30:00,49.3,42.4,29.12,SW,220,0.0,0.0,76,0.00,,,-99.99,139.0,HOBO +U30 +Weather +,2013-01-31 17:30:00,
2013-01-31 12:31:00,49.5,43.0,29.11,West,268,0.0,0.0,78,0.00,,,-99.99,93.0,HOBO +U30 +Weather +,2013-01-31 17:31:00,
2013-01-31 12:32:00,50.1,43.4,29.12,WSW,253,0.0,0.0,77,0.00,,,-99.99,37.0,HOBO +U30 +Weather +,2013-01-31 17:32:00,
2013-01-31 12:33:00,50.3,42.1,29.12,NW,321,0.0,0.0,73,0.00,,,-99.99,44.0,HOBO +U30 +Weather +,2013-01-31 17:33:00,
2013-01-31 12:34:00,50.8,42.8,29.12,WSW,256,0.0,0.0,73,0.00,,,-99.99,98.0,HOBO +U30 +Weather +,2013-01-31 17:34:00,
2013-01-31 12:35:00,51.5,42.3,29.12,SW,226,0.0,0.0,70,0.00,,,-99.99,136.0,HOBO +U30 +Weather +,2013-01-31 17:35:00,
2013-01-31 12:36:00,52.4,43.2,29.13,South,191,0.0,0.0,70,0.00,,,-99.99,128.0,HOBO +U30 +Weather +,2013-01-31 17:36:00,
2013-01-31 12:37:00,52.6,42.4,29.11,WSW,250,0.0,0.0,68,0.00,,,-99.99,123.0,HOBO +U30 +Weather +,2013-01-31 17:37:00,
2013-01-31 12:38:00,52.9,42.0,29.12,WSW,239,0.0,0.0,66,0.00,,,-99.99,122.0,HOBO +U30 +Weather +,2013-01-31 17:38:00,
2013-01-31 12:39:00,53.1,42.2,29.12,WSW,244,0.0,0.0,66,0.00,,,-99.99,121.0,HOBO +U30 +Weather +,2013-01-31 17:39:00,
2013-01-31 12:40:00,53.3,42.6,29.12,SW,230,0.0,0.0,66,0.00,,,-99.99,121.0,HOBO +U30 +Weather +,2013-01-31 17:40:00,
2013-01-31 12:41:00,53.6,42.4,29.12,SW,226,0.0,0.0,65,0.00,,,-99.99,121.0,HOBO +U30 +Weather +,2013-01-31 17:41:00,
2013-01-31 12:42:00,53.7,42.6,29.12,SW,218,0.0,0.0,65,0.00,,,-99.99,122.0,HOBO +U30 +Weather +,2013-01-31 17:42:00,
2013-01-31 12:43:00,53.9,42.5,29.12,West,281,0.0,0.0,65,0.00,,,-99.99,122.0,HOBO +U30 +Weather +,2013-01-31 17:43:00,
2013-01-31 12:44:00,53.8,41.7,29.12,NW,305,0.0,0.0,63,0.00,,,-99.99,123.0,HOBO +U30 +Weather +,2013-01-31 17:44:00,
2013-01-31 12:45:00,54.0,42.5,29.12,SSW,212,0.0,0.0,64,0.00,,,-99.99,123.0,HOBO +U30 +Weather +,2013-01-31 17:45:00,
2013-01-31 12:46:00,54.0,41.9,29.12,West,277,0.0,0.0,63,0.00,,,-99.99,123.0,HOBO +U30 +Weather +,2013-01-31 17:46:00,
2013-01-31 12:47:00,53.9,42.1,29.11,SW,223,0.0,0.0,64,0.00,,,-99.99,131.0,HOBO +U30 +Weather +,2013-01-31 17:47:00,
2013-01-31 12:48:00,53.8,41.2,29.12,WSW,240,0.0,0.0,62,0.00,,,-99.99,22.0,HOBO +U30 +Weather +,2013-01-31 17:48:00,
2013-01-31 12:49:00,53.2,40.4,29.13,SW,229,0.0,0.0,61,0.00,,,-99.99,134.0,HOBO +U30 +Weather +,2013-01-31 17:49:00,
2013-01-31 12:50:00,53.1,40.5,29.13,West,260,0.0,0.0,62,0.00,,,-99.99,129.0,HOBO +U30 +Weather +,2013-01-31 17:50:00,
2013-01-31 12:55:00,53.0,39.6,29.12,WNW,292,0.0,0.0,60,0.00,,,-99.99,19.0,HOBO +U30 +Weather +,2013-01-31 17:55:00,
2013-01-31 12:56:00,52.9,40.1,29.12,SW,233,0.0,0.0,61,0.00,,,-99.99,127.0,HOBO +U30 +Weather +,2013-01-31 17:56:00,
2013-01-31 12:57:00,52.9,39.8,29.11,SSW,208,0.0,0.0,60,0.00,,,-99.99,124.0,HOBO +U30 +Weather +,2013-01-31 17:57:00,
2013-01-31 12:58:00,53.1,40.2,29.12,SW,233,0.0,0.0,61,0.00,,,-99.99,122.0,HOBO +U30 +Weather +,2013-01-31 17:58:00,
2013-01-31 12:59:00,53.3,40.1,29.12,SW,226,0.0,0.0,60,0.00,,,-99.99,122.0,HOBO +U30 +Weather +,2013-01-31 17:59:00,
2013-01-31 13:00:00,53.1,39.4,29.12,NW,309,0.0,0.0,59,0.00,,,-99.99,119.0,HOBO +U30 +Weather +,2013-01-31 18:00:00,
2013-01-31 13:01:00,53.2,40.5,29.13,WNW,289,0.0,0.0,61,0.00,,,-99.99,119.0,HOBO +U30 +Weather +,2013-01-31 18:01:00,
2013-01-31 13:02:00,53.2,39.4,29.12,WNW,302,0.0,0.0,59,0.00,,,-99.99,118.0,HOBO +U30 +Weather +,2013-01-31 18:02:00,
2013-01-31 13:03:00,53.0,39.2,29.13,West,272,0.0,0.0,59,0.00,,,-99.99,119.0,HOBO +U30 +Weather +,2013-01-31 18:03:00,
2013-01-31 13:04:00,52.9,38.9,29.13,SW,230,0.0,0.0,59,0.00,,,-99.99,118.0,HOBO +U30 +Weather +,2013-01-31 18:04:00,
2013-01-31 13:05:00,53.1,39.8,29.13,West,275,0.0,0.0,60,0.00,,,-99.99,118.0,HOBO +U30 +Weather +,2013-01-31 18:05:00,
2013-01-31 13:06:00,53.3,39.7,29.13,SW,220,0.0,0.0,59,0.00,,,-99.99,119.0,HOBO +U30 +Weather +,2013-01-31 18:06:00,
2013-01-31 13:07:00,53.2,39.4,29.13,WSW,240,0.0,0.0,59,0.00,,,-99.99,118.0,HOBO +U30 +Weather +,2013-01-31 18:07:00,
2013-01-31 13:08:00,53.2,39.4,29.13,West,274,0.0,0.0,59,0.00,,,-99.99,118.0,HOBO +U30 +Weather +,2013-01-31 18:08:00,
2013-01-31 13:09:00,53.3,39.2,29.13,SW,219,0.0,0.0,58,0.00,,,-99.99,118.0,HOBO +U30 +Weather +,2013-01-31 18:09:00,
2013-01-31 13:10:00,53.2,38.7,29.14,WNW,302,0.0,0.0,57,0.00,,,-99.99,118.0,HOBO +U30 +Weather +,2013-01-31 18:10:00,
2013-01-31 13:11:00,53.2,39.1,29.14,SW,230,0.0,0.0,58,0.00,,,-99.99,118.0,HOBO +U30 +Weather +,2013-01-31 18:11:00,
2013-01-31 13:12:00,53.3,39.1,29.14,SW,218,0.0,0.0,58,0.00,,,-99.99,117.0,HOBO +U30 +Weather +,2013-01-31 18:12:00,
2013-01-31 13:13:00,53.2,38.6,29.13,West,261,0.0,0.0,57,0.00,,,-99.99,118.0,HOBO +U30 +Weather +,2013-01-31 18:13:00,
2013-01-31 13:14:00,53.2,39.1,29.14,West,277,0.0,0.0,58,0.00,,,-99.99,118.0,HOBO +U30 +Weather +,2013-01-31 18:14:00,
2013-01-31 13:15:00,53.0,38.4,29.14,West,281,0.0,0.0,57,0.00,,,-99.99,118.0,HOBO +U30 +Weather +,2013-01-31 18:15:00,
2013-01-31 13:16:00,53.0,38.3,29.14,NW,307,0.0,0.0,57,0.00,,,-99.99,117.0,HOBO +U30 +Weather +,2013-01-31 18:16:00,
2013-01-31 13:17:00,53.1,39.5,29.14,WSW,251,0.0,0.0,59,0.00,,,-99.99,117.0,HOBO +U30 +Weather +,2013-01-31 18:17:00,
2013-01-31 13:18:00,53.2,39.6,29.14,West,267,0.0,0.0,59,0.00,,,-99.99,118.0,HOBO +U30 +Weather +,2013-01-31 18:18:00,
2013-01-31 13:19:00,53.5,40.7,29.14,WSW,241,0.0,0.0,61,0.00,,,-99.99,118.0,HOBO +U30 +Weather +,2013-01-31 18:19:00,
2013-01-31 13:20:00,53.8,42.0,29.14,SSW,212,0.0,0.0,64,0.00,,,-99.99,117.0,HOBO +U30 +Weather +,2013-01-31 18:20:00,
2013-01-31 13:21:00,53.6,41.7,29.15,SSW,197,0.0,0.0,64,0.00,,,-99.99,117.0,HOBO +U30 +Weather +,2013-01-31 18:21:00,
2013-01-31 13:22:00,52.7,41.3,29.14,SSW,201,0.0,0.0,64,0.00,,,-99.99,119.0,HOBO +U30 +Weather +,2013-01-31 18:22:00,
2013-01-31 13:23:00,52.3,41.8,29.15,WSW,237,0.0,0.0,67,0.00,,,-99.99,122.0,HOBO +U30 +Weather +,2013-01-31 18:23:00,
2013-01-31 13:24:00,52.0,41.7,29.14,WSW,239,0.0,0.0,67,0.00,,,-99.99,124.0,HOBO +U30 +Weather +,2013-01-31 18:24:00,
2013-01-31 13:25:00,52.2,42.0,29.15,SW,232,0.0,0.0,68,0.00,,,-99.99,126.0,HOBO +U30 +Weather +,2013-01-31 18:25:00,
2013-01-31 13:26:00,51.7,41.0,29.15,SSW,211,0.0,0.0,66,0.00,,,-99.99,108.0,HOBO +U30 +Weather +,2013-01-31 18:26:00,
2013-01-31 13:27:00,51.5,41.4,29.15,SW,227,0.0,0.0,68,0.00,,,-99.99,129.0,HOBO +U30 +Weather +,2013-01-31 18:27:00,
2013-01-31 13:28:00,52.0,42.3,29.15,SW,226,0.0,0.0,69,0.00,,,-99.99,131.0,HOBO +U30 +Weather +,2013-01-31 18:28:00,
2013-01-31 13:29:00,52.0,41.3,29.15,SW,216,0.0,0.0,66,0.00,,,-99.99,136.0,HOBO +U30 +Weather +,2013-01-31 18:29:00,
2013-01-31 13:30:00,52.3,41.8,29.15,SW,226,0.0,0.0,67,0.00,,,-99.99,32.0,HOBO +U30 +Weather +,2013-01-31 18:30:00,
2013-01-31 13:31:00,52.2,41.2,29.15,WSW,257,0.0,0.0,66,0.00,,,-99.99,27.0,HOBO +U30 +Weather +,2013-01-31 18:31:00,
2013-01-31 13:32:00,51.8,40.9,29.15,WSW,246,0.0,0.0,66,0.00,,,-99.99,132.0,HOBO +U30 +Weather +,2013-01-31 18:32:00,
2013-01-31 13:33:00,52.2,42.0,29.15,SSW,209,0.0,0.0,68,0.00,,,-99.99,133.0,HOBO +U30 +Weather +,2013-01-31 18:33:00,
2013-01-31 13:34:00,52.7,42.1,29.15,SSW,209,0.0,0.0,67,0.00,,,-99.99,128.0,HOBO +U30 +Weather +,2013-01-31 18:34:00,
2013-01-31 13:35:00,52.6,42.0,29.15,SSW,211,0.0,0.0,67,0.00,,,-99.99,132.0,HOBO +U30 +Weather +,2013-01-31 18:35:00,
2013-01-31 13:36:00,53.0,42.2,29.16,WSW,247,0.0,0.0,66,0.00,,,-99.99,129.0,HOBO +U30 +Weather +,2013-01-31 18:36:00,
2013-01-31 13:37:00,53.0,41.9,29.16,SW,216,0.0,0.0,65,0.00,,,-99.99,126.0,HOBO +U30 +Weather +,2013-01-31 18:37:00,
2013-01-31 13:38:00,53.2,42.5,29.16,SW,223,0.0,0.0,67,0.00,,,-99.99,127.0,HOBO +U30 +Weather +,2013-01-31 18:38:00,
2013-01-31 13:39:00,52.6,41.1,29.16,SW,227,0.0,0.0,64,0.00,,,-99.99,69.0,HOBO +U30 +Weather +,2013-01-31 18:39:00,
2013-01-31 13:40:00,52.1,41.3,29.16,SSW,204,0.0,0.0,66,0.00,,,-99.99,127.0,HOBO +U30 +Weather +,2013-01-31 18:40:00,
2013-01-31 13:41:00,52.8,42.1,29.15,West,274,0.0,0.0,66,0.00,,,-99.99,132.0,HOBO +U30 +Weather +,2013-01-31 18:41:00,
2013-01-31 13:42:00,52.2,40.5,29.16,SW,230,0.0,0.0,64,0.00,,,-99.99,126.0,HOBO +U30 +Weather +,2013-01-31 18:42:00,
2013-01-31 13:43:00,51.6,40.5,29.16,SW,215,0.0,0.0,65,0.00,,,-99.99,46.0,HOBO +U30 +Weather +,2013-01-31 18:43:00,
2013-01-31 13:44:00,51.3,40.6,29.16,SW,226,0.0,0.0,66,0.00,,,-99.99,128.0,HOBO +U30 +Weather +,2013-01-31 18:44:00,
2013-01-31 13:45:00,52.0,41.2,29.16,SW,232,0.0,0.0,66,0.00,,,-99.99,128.0,HOBO +U30 +Weather +,2013-01-31 18:45:00,
2013-01-31 13:46:00,52.2,40.9,29.16,SW,232,0.0,0.0,65,0.00,,,-99.99,51.0,HOBO +U30 +Weather +,2013-01-31 18:46:00,
2013-01-31 13:47:00,52.3,41.7,29.16,SW,216,0.0,0.0,67,0.00,,,-99.99,111.0,HOBO +U30 +Weather +,2013-01-31 18:47:00,
2013-01-31 13:48:00,51.6,40.8,29.16,SSW,195,0.0,0.0,66,0.00,,,-99.99,136.0,HOBO +U30 +Weather +,2013-01-31 18:48:00,
2013-01-31 13:49:00,51.2,40.8,29.16,SSW,194,0.0,0.0,67,0.00,,,-99.99,136.0,HOBO +U30 +Weather +,2013-01-31 18:49:00,
2013-01-31 13:50:00,51.0,40.5,29.16,West,265,0.0,0.0,67,0.00,,,-99.99,59.0,HOBO +U30 +Weather +,2013-01-31 18:50:00,
2013-01-31 13:51:00,49.8,39.8,29.17,SSW,212,0.0,0.0,68,0.00,,,-99.99,33.0,HOBO +U30 +Weather +,2013-01-31 18:51:00,
2013-01-31 13:52:00,49.1,39.5,29.17,SW,215,0.0,0.0,69,0.00,,,-99.99,32.0,HOBO +U30 +Weather +,2013-01-31 18:52:00,
2013-01-31 13:53:00,48.4,39.2,29.16,SW,236,0.0,0.0,70,0.00,,,-99.99,29.0,HOBO +U30 +Weather +,2013-01-31 18:53:00,
2013-01-31 13:54:00,47.7,38.8,29.17,SW,236,0.0,0.0,71,0.00,,,-99.99,32.0,HOBO +U30 +Weather +,2013-01-31 18:54:00,
2013-01-31 13:55:00,47.3,38.6,29.17,SW,218,0.0,0.0,71,0.00,,,-99.99,31.0,HOBO +U30 +Weather +,2013-01-31 18:55:00,
2013-01-31 13:56:00,46.8,38.3,29.17,SSW,209,0.0,0.0,71,0.00,,,-99.99,32.0,HOBO +U30 +Weather +,2013-01-31 18:56:00,
2013-01-31 13:57:00,46.7,38.6,29.17,SW,232,0.0,0.0,73,0.00,,,-99.99,132.0,HOBO +U30 +Weather +,2013-01-31 18:57:00,
2013-01-31 13:58:00,47.6,40.0,29.16,SW,215,0.0,0.0,74,0.00,,,-99.99,59.0,HOBO +U30 +Weather +,2013-01-31 18:58:00,
2013-01-31 13:59:00,47.9,39.6,29.17,SW,220,0.0,0.0,72,0.00,,,-99.99,31.0,HOBO +U30 +Weather +,2013-01-31 18:59:00,
2013-01-31 14:00:00,47.3,38.8,29.18,SW,220,0.0,0.0,72,0.00,,,-99.99,31.0,HOBO +U30 +Weather +,2013-01-31 19:00:00,
2013-01-31 14:01:00,46.7,38.4,29.17,SW,229,0.0,0.0,72,0.00,,,-99.99,93.0,HOBO +U30 +Weather +,2013-01-31 19:01:00,
2013-01-31 14:02:00,46.9,39.1,29.17,West,271,0.0,0.0,74,0.00,,,-99.99,134.0,HOBO +U30 +Weather +,2013-01-31 19:02:00,
2013-01-31 14:03:00,48.2,40.7,29.17,West,260,0.0,0.0,75,0.00,,,-99.99,134.0,HOBO +U30 +Weather +,2013-01-31 19:03:00,
2013-01-31 14:04:00,49.2,40.6,29.17,WSW,239,0.0,0.0,72,0.00,,,-99.99,47.0,HOBO +U30 +Weather +,2013-01-31 19:04:00,
2013-01-31 14:05:00,48.8,40.0,29.18,SW,227,0.0,0.0,71,0.00,,,-99.99,131.0,HOBO +U30 +Weather +,2013-01-31 19:05:00,
2013-01-31 14:06:00,49.3,40.7,29.17,SSW,195,0.0,0.0,72,0.00,,,-99.99,123.0,HOBO +U30 +Weather +,2013-01-31 19:06:00,
2013-01-31 14:07:00,50.2,42.0,29.18,SW,218,0.0,0.0,73,0.00,,,-99.99,119.0,HOBO +U30 +Weather +,2013-01-31 19:07:00,
2013-01-31 14:08:00,50.5,41.6,29.18,SW,216,0.0,0.0,71,0.00,,,-99.99,117.0,HOBO +U30 +Weather +,2013-01-31 19:08:00,
2013-01-31 14:09:00,51.1,41.9,29.18,SW,215,0.0,0.0,70,0.00,,,-99.99,112.0,HOBO +U30 +Weather +,2013-01-31 19:09:00,
2013-01-31 14:10:00,50.7,41.1,29.18,SW,218,0.0,0.0,69,0.00,,,-99.99,111.0,HOBO +U30 +Weather +,2013-01-31 19:10:00,
2013-01-31 14:11:00,50.1,40.5,29.18,South,188,0.0,0.0,69,0.00,,,-99.99,23.0,HOBO +U30 +Weather +,2013-01-31 19:11:00,
2013-01-31 14:12:00,48.9,39.6,29.18,SSW,205,0.0,0.0,70,0.00,,,-99.99,22.0,HOBO +U30 +Weather +,2013-01-31 19:12:00,
2013-01-31 14:13:00,47.8,38.9,29.18,West,264,0.0,0.0,71,0.00,,,-99.99,19.0,HOBO +U30 +Weather +,2013-01-31 19:13:00,
2013-01-31 14:14:00,46.9,38.3,29.18,SW,215,0.0,0.0,71,0.00,,,-99.99,63.0,HOBO +U30 +Weather +,2013-01-31 19:14:00,
2013-01-31 14:15:00,46.6,38.7,29.18,West,267,0.0,0.0,73,0.00,,,-99.99,118.0,HOBO +U30 +Weather +,2013-01-31 19:15:00,
2013-01-31 14:16:00,47.6,39.8,29.18,SW,230,0.0,0.0,74,0.00,,,-99.99,117.0,HOBO +U30 +Weather +,2013-01-31 19:16:00,
2013-01-31 14:17:00,48.8,40.6,29.19,SW,232,0.0,0.0,73,0.00,,,-99.99,31.0,HOBO +U30 +Weather +,2013-01-31 19:17:00,
2013-01-31 14:18:00,49.0,40.3,29.18,SW,222,0.0,0.0,71,0.00,,,-99.99,122.0,HOBO +U30 +Weather +,2013-01-31 19:18:00,
2013-01-31 14:19:00,49.7,41.1,29.18,SW,222,0.0,0.0,72,0.00,,,-99.99,124.0,HOBO +U30 +Weather +,2013-01-31 19:19:00,
2013-01-31 14:20:00,50.9,41.9,29.19,WSW,247,0.0,0.0,71,0.00,,,-99.99,121.0,HOBO +U30 +Weather +,2013-01-31 19:20:00,
2013-01-31 14:21:00,51.4,41.8,29.19,SW,216,0.0,0.0,69,0.00,,,-99.99,31.0,HOBO +U30 +Weather +,2013-01-31 19:21:00,
2013-01-31 14:22:00,50.5,40.3,29.19,SW,216,0.0,0.0,67,0.00,,,-99.99,117.0,HOBO +U30 +Weather +,2013-01-31 19:22:00,
2013-01-31 14:23:00,50.8,41.0,29.19,SW,226,0.0,0.0,69,0.00,,,-99.99,119.0,HOBO +U30 +Weather +,2013-01-31 19:23:00,
2013-01-31 14:24:00,50.8,40.5,29.19,NNW,331,0.0,0.0,67,0.00,,,-99.99,119.0,HOBO +U30 +Weather +,2013-01-31 19:24:00,
2013-01-31 14:25:00,51.6,41.6,29.19,WNW,292,0.0,0.0,68,0.00,,,-99.99,117.0,HOBO +U30 +Weather +,2013-01-31 19:25:00,
2013-01-31 14:26:00,52.1,41.5,29.19,SW,225,0.0,0.0,67,0.00,,,-99.99,26.0,HOBO +U30 +Weather +,2013-01-31 19:26:00,
2013-01-31 14:27:00,50.9,40.0,29.19,SSW,202,0.0,0.0,66,0.00,,,-99.99,31.0,HOBO +U30 +Weather +,2013-01-31 19:27:00,
2013-01-31 14:28:00,50.6,39.8,29.19,WNW,286,0.0,0.0,66,0.00,,,-99.99,27.0,HOBO +U30 +Weather +,2013-01-31 19:28:00,
2013-01-31 14:29:00,50.4,38.8,29.20,West,281,0.0,0.0,64,0.00,,,-99.99,76.0,HOBO +U30 +Weather +,2013-01-31 19:29:00,
2013-01-31 14:30:00,50.5,37.8,29.20,WNW,282,0.0,0.0,61,0.00,,,-99.99,117.0,HOBO +U30 +Weather +,2013-01-31 19:30:00,
2013-01-31 14:31:00,50.5,37.7,29.20,SW,227,0.0,0.0,61,0.00,,,-99.99,26.0,HOBO +U30 +Weather +,2013-01-31 19:31:00,
2013-01-31 14:32:00,50.4,37.9,29.20,SW,234,0.0,0.0,62,0.00,,,-99.99,108.0,HOBO +U30 +Weather +,2013-01-31 19:32:00,
2013-01-31 14:33:00,50.4,36.5,29.21,West,281,0.0,0.0,58,0.00,,,-99.99,26.0,HOBO +U30 +Weather +,2013-01-31 19:33:00,
2013-01-31 14:34:00,50.1,36.5,29.21,West,268,0.0,0.0,59,0.00,,,-99.99,28.0,HOBO +U30 +Weather +,2013-01-31 19:34:00,
2013-01-31 14:35:00,49.7,35.6,29.21,SW,230,0.0,0.0,58,0.00,,,-99.99,32.0,HOBO +U30 +Weather +,2013-01-31 19:35:00,
2013-01-31 14:36:00,49.4,36.9,29.20,SSW,212,0.0,0.0,61,0.00,,,-99.99,29.0,HOBO +U30 +Weather +,2013-01-31 19:36:00,
2013-01-31 14:37:00,48.6,37.3,29.21,SSW,208,0.0,0.0,64,0.00,,,-99.99,28.0,HOBO +U30 +Weather +,2013-01-31 19:37:00,
2013-01-31 14:38:00,47.7,37.0,29.21,SW,220,0.0,0.0,66,0.00,,,-99.99,29.0,HOBO +U30 +Weather +,2013-01-31 19:38:00,
2013-01-31 14:39:00,47.1,37.4,29.21,South,180,0.0,0.0,68,0.00,,,-99.99,32.0,HOBO +U30 +Weather +,2013-01-31 19:39:00,
2013-01-31 14:40:00,46.5,37.3,29.21,SSW,192,0.0,0.0,69,0.00,,,-99.99,81.0,HOBO +U30 +Weather +,2013-01-31 19:40:00,
2013-01-31 14:41:00,46.7,37.5,29.21,SW,226,0.0,0.0,70,0.00,,,-99.99,39.0,HOBO +U30 +Weather +,2013-01-31 19:41:00,
2013-01-31 14:42:00,46.5,37.7,29.21,WSW,241,0.0,0.0,71,0.00,,,-99.99,33.0,HOBO +U30 +Weather +,2013-01-31 19:42:00,
2013-01-31 14:43:00,46.3,37.7,29.21,SSW,212,0.0,0.0,72,0.00,,,-99.99,31.0,HOBO +U30 +Weather +,2013-01-31 19:43:00,
2013-01-31 14:44:00,45.8,37.5,29.21,SW,219,0.0,0.0,72,0.00,,,-99.99,28.0,HOBO +U30 +Weather +,2013-01-31 19:44:00,
2013-01-31 14:45:00,45.4,37.0,29.21,SW,227,0.0,0.0,72,0.00,,,-99.99,27.0,HOBO +U30 +Weather +,2013-01-31 19:45:00,
2013-01-31 14:46:00,45.2,37.2,29.22,WSW,240,0.0,0.0,73,0.00,,,-99.99,23.0,HOBO +U30 +Weather +,2013-01-31 19:46:00,
2013-01-31 14:47:00,45.0,37.4,29.21,WSW,243,0.0,0.0,74,0.00,,,-99.99,23.0,HOBO +U30 +Weather +,2013-01-31 19:47:00,
2013-01-31 14:48:00,44.9,37.3,29.22,SSW,213,0.0,0.0,74,0.00,,,-99.99,28.0,HOBO +U30 +Weather +,2013-01-31 19:48:00,
2013-01-31 14:49:00,45.0,37.5,29.22,SW,229,0.0,0.0,74,0.00,,,-99.99,41.0,HOBO +U30 +Weather +,2013-01-31 19:49:00,
2013-01-31 14:50:00,45.3,37.7,29.22,WSW,237,0.0,0.0,74,0.00,,,-99.99,106.0,HOBO +U30 +Weather +,2013-01-31 19:50:00,
2013-01-31 14:51:00,46.8,39.4,29.22,WSW,237,0.0,0.0,75,0.00,,,-99.99,102.0,HOBO +U30 +Weather +,2013-01-31 19:51:00,
2013-01-31 14:54:00,47.9,38.7,29.22,WSW,240,0.0,0.0,70,0.00,,,-99.99,101.0,HOBO +U30 +Weather +,2013-01-31 19:54:00,
2013-01-31 14:55:00,48.4,39.9,29.21,South,183,0.0,0.0,72,0.00,,,-99.99,101.0,HOBO +U30 +Weather +,2013-01-31 19:55:00,
2013-01-31 14:56:00,48.9,39.7,29.21,SSW,209,0.0,0.0,70,0.00,,,-99.99,102.0,HOBO +U30 +Weather +,2013-01-31 19:56:00,
2013-01-31 14:57:00,49.8,40.6,29.22,WSW,239,0.0,0.0,70,0.00,,,-99.99,99.0,HOBO +U30 +Weather +,2013-01-31 19:57:00,
2013-01-31 14:58:00,50.7,40.7,29.22,SW,233,0.0,0.0,68,0.00,,,-99.99,96.0,HOBO +U30 +Weather +,2013-01-31 19:58:00,
2013-01-31 14:59:00,51.1,40.9,29.22,WSW,257,0.0,0.0,67,0.00,,,-99.99,96.0,HOBO +U30 +Weather +,2013-01-31 19:59:00,
2013-01-31 15:00:00,51.2,40.3,29.22,WSW,256,0.0,0.0,66,0.00,,,-99.99,96.0,HOBO +U30 +Weather +,2013-01-31 20:00:00,
2013-01-31 15:01:00,51.3,40.6,29.22,WSW,237,0.0,0.0,66,0.00,,,-99.99,92.0,HOBO +U30 +Weather +,2013-01-31 20:01:00,
2013-01-31 15:02:00,51.2,40.3,29.22,SW,223,0.0,0.0,66,0.00,,,-99.99,87.0,HOBO +U30 +Weather +,2013-01-31 20:02:00,
2013-01-31 15:03:00,50.8,39.9,29.23,SSW,209,0.0,0.0,65,0.00,,,-99.99,86.0,HOBO +U30 +Weather +,2013-01-31 20:03:00,
2013-01-31 15:04:00,50.2,39.3,29.22,SW,230,0.0,0.0,65,0.00,,,-99.99,79.0,HOBO +U30 +Weather +,2013-01-31 20:04:00,
2013-01-31 15:05:00,50.1,38.8,29.23,West,260,0.0,0.0,65,0.00,,,-99.99,77.0,HOBO +U30 +Weather +,2013-01-31 20:05:00,
2013-01-31 15:06:00,50.4,39.5,29.23,WNW,284,0.0,0.0,66,0.00,,,-99.99,74.0,HOBO +U30 +Weather +,2013-01-31 20:06:00,
2013-01-31 15:07:00,50.5,39.2,29.23,WNW,284,0.0,0.0,65,0.00,,,-99.99,72.0,HOBO +U30 +Weather +,2013-01-31 20:07:00,
2013-01-31 15:08:00,50.2,39.0,29.23,WSW,256,0.0,0.0,65,0.00,,,-99.99,72.0,HOBO +U30 +Weather +,2013-01-31 20:08:00,
2013-01-31 15:09:00,50.5,39.5,29.23,West,268,0.0,0.0,65,0.00,,,-99.99,72.0,HOBO +U30 +Weather +,2013-01-31 20:09:00,
2013-01-31 15:10:00,50.5,38.9,29.23,SW,232,0.0,0.0,64,0.00,,,-99.99,72.0,HOBO +U30 +Weather +,2013-01-31 20:10:00,
2013-01-31 15:11:00,50.6,38.9,29.23,West,261,0.0,0.0,63,0.00,,,-99.99,73.0,HOBO +U30 +Weather +,2013-01-31 20:11:00,
2013-01-31 15:12:00,50.9,39.5,29.23,SW,225,0.0,0.0,64,0.00,,,-99.99,74.0,HOBO +U30 +Weather +,2013-01-31 20:12:00,
2013-01-31 15:13:00,50.5,37.8,29.23,SW,225,0.0,0.0,61,0.00,,,-99.99,76.0,HOBO +U30 +Weather +,2013-01-31 20:13:00,
2013-01-31 15:14:00,50.7,38.5,29.23,WSW,239,0.0,0.0,62,0.00,,,-99.99,72.0,HOBO +U30 +Weather +,2013-01-31 20:14:00,
2013-01-31 15:15:00,50.2,38.0,29.23,SSW,201,0.0,0.0,62,0.00,,,-99.99,68.0,HOBO +U30 +Weather +,2013-01-31 20:15:00,
2013-01-31 15:16:00,50.2,38.4,29.24,WSW,246,0.0,0.0,63,0.00,,,-99.99,66.0,HOBO +U30 +Weather +,2013-01-31 20:16:00,
2013-01-31 15:17:00,50.3,38.4,29.24,WSW,253,0.0,0.0,63,0.00,,,-99.99,63.0,HOBO +U30 +Weather +,2013-01-31 20:17:00,
2013-01-31 15:18:00,49.8,38.0,29.24,SW,227,0.0,0.0,63,0.00,,,-99.99,63.0,HOBO +U30 +Weather +,2013-01-31 20:18:00,
2013-01-31 15:19:00,49.2,37.9,29.23,SSW,209,0.0,0.0,64,0.00,,,-99.99,62.0,HOBO +U30 +Weather +,2013-01-31 20:19:00,
2013-01-31 15:20:00,49.6,38.3,29.23,West,281,0.0,0.0,64,0.00,,,-99.99,62.0,HOBO +U30 +Weather +,2013-01-31 20:20:00,
2013-01-31 15:21:00,49.4,38.1,29.23,West,260,0.0,0.0,64,0.00,,,-99.99,61.0,HOBO +U30 +Weather +,2013-01-31 20:21:00,
2013-01-31 15:22:00,48.7,36.9,29.23,SW,234,0.0,0.0,63,0.00,,,-99.99,58.0,HOBO +U30 +Weather +,2013-01-31 20:22:00,
2013-01-31 15:23:00,48.2,36.9,29.24,WSW,253,0.0,0.0,64,0.00,,,-99.99,57.0,HOBO +U30 +Weather +,2013-01-31 20:23:00,
2013-01-31 15:24:00,47.6,36.4,29.24,SW,230,0.0,0.0,64,0.00,,,-99.99,54.0,HOBO +U30 +Weather +,2013-01-31 20:24:00,
2013-01-31 15:25:00,47.4,36.3,29.24,SW,223,0.0,0.0,65,0.00,,,-99.99,53.0,HOBO +U30 +Weather +,2013-01-31 20:25:00,
2013-01-31 15:26:00,47.6,36.5,29.24,SW,218,0.0,0.0,65,0.00,,,-99.99,52.0,HOBO +U30 +Weather +,2013-01-31 20:26:00,
2013-01-31 15:27:00,48.3,37.5,29.24,SW,229,0.0,0.0,66,0.00,,,-99.99,53.0,HOBO +U30 +Weather +,2013-01-31 20:27:00,
2013-01-31 15:28:00,48.6,37.3,29.25,WSW,258,0.0,0.0,64,0.00,,,-99.99,53.0,HOBO +U30 +Weather +,2013-01-31 20:28:00,
2013-01-31 15:29:00,48.8,37.0,29.25,WSW,251,0.0,0.0,63,0.00,,,-99.99,53.0,HOBO +U30 +Weather +,2013-01-31 20:29:00,
2013-01-31 15:30:00,48.1,34.3,29.25,West,278,0.0,0.0,58,0.00,,,-99.99,52.0,HOBO +U30 +Weather +,2013-01-31 20:30:00,
2013-01-31 15:31:00,47.7,32.9,29.24,WSW,243,0.0,0.0,56,0.00,,,-99.99,49.0,HOBO +U30 +Weather +,2013-01-31 20:31:00,
2013-01-31 15:32:00,47.8,33.8,29.24,SW,225,0.0,0.0,58,0.00,,,-99.99,41.0,HOBO +U30 +Weather +,2013-01-31 20:32:00,
2013-01-31 15:33:00,47.9,33.0,29.24,SSW,198,0.0,0.0,56,0.00,,,-99.99,49.0,HOBO +U30 +Weather +,2013-01-31 20:33:00,
2013-01-31 15:34:00,48.2,33.0,29.25,SW,220,0.0,0.0,55,0.00,,,-99.99,51.0,HOBO +U30 +Weather +,2013-01-31 20:34:00,
2013-01-31 15:35:00,48.7,33.6,29.24,West,270,0.0,0.0,55,0.00,,,-99.99,49.0,HOBO +U30 +Weather +,2013-01-31 20:35:00,
2013-01-31 15:36:00,48.7,32.6,29.24,WSW,250,0.0,0.0,53,0.00,,,-99.99,49.0,HOBO +U30 +Weather +,2013-01-31 20:36:00,
2013-01-31 15:37:00,48.5,33.0,29.25,West,278,0.0,0.0,54,0.00,,,-99.99,49.0,HOBO +U30 +Weather +,2013-01-31 20:37:00,
2013-01-31 15:38:00,48.3,32.6,29.24,SSW,204,0.0,0.0,54,0.00,,,-99.99,49.0,HOBO +U30 +Weather +,2013-01-31 20:38:00,
2013-01-31 15:39:00,48.1,32.5,29.24,WSW,257,0.0,0.0,54,0.00,,,-99.99,48.0,HOBO +U30 +Weather +,2013-01-31 20:39:00,
2013-01-31 15:40:00,47.8,31.6,29.25,WNW,298,0.0,0.0,53,0.00,,,-99.99,46.0,HOBO +U30 +Weather +,2013-01-31 20:40:00,
2013-01-31 15:41:00,48.0,32.5,29.25,West,281,0.0,0.0,54,0.00,,,-99.99,43.0,HOBO +U30 +Weather +,2013-01-31 20:41:00,
2013-01-31 15:42:00,48.2,32.1,29.25,West,275,0.0,0.0,53,0.00,,,-99.99,41.0,HOBO +U30 +Weather +,2013-01-31 20:42:00,
2013-01-31 15:43:00,48.1,32.5,29.25,West,279,0.0,0.0,54,0.00,,,-99.99,38.0,HOBO +U30 +Weather +,2013-01-31 20:43:00,
2013-01-31 15:44:00,47.6,31.6,29.26,SW,232,0.0,0.0,53,0.00,,,-99.99,36.0,HOBO +U30 +Weather +,2013-01-31 20:44:00,
2013-01-31 15:45:00,47.2,32.2,29.26,WSW,247,0.0,0.0,55,0.00,,,-99.99,34.0,HOBO +U30 +Weather +,2013-01-31 20:45:00,
2013-01-31 15:46:00,46.7,31.9,29.26,SW,216,0.0,0.0,56,0.00,,,-99.99,33.0,HOBO +U30 +Weather +,2013-01-31 20:46:00,
2013-01-31 15:47:00,46.5,31.7,29.26,SW,223,0.0,0.0,56,0.00,,,-99.99,32.0,HOBO +U30 +Weather +,2013-01-31 20:47:00,
2013-01-31 15:48:00,46.1,32.9,29.26,SW,225,0.0,0.0,59,0.00,,,-99.99,29.0,HOBO +U30 +Weather +,2013-01-31 20:48:00,
2013-01-31 15:49:00,45.4,33.2,29.26,SW,225,0.0,0.0,62,0.00,,,-99.99,27.0,HOBO +U30 +Weather +,2013-01-31 20:49:00,
2013-01-31 15:50:00,44.8,33.2,29.26,WSW,256,0.0,0.0,63,0.00,,,-99.99,26.0,HOBO +U30 +Weather +,2013-01-31 20:50:00,
2013-01-31 15:51:00,44.3,33.2,29.26,WSW,251,0.0,0.0,64,0.00,,,-99.99,24.0,HOBO +U30 +Weather +,2013-01-31 20:51:00,
2013-01-31 15:52:00,44.2,32.2,29.26,WSW,244,0.0,0.0,62,0.00,,,-99.99,23.0,HOBO +U30 +Weather +,2013-01-31 20:52:00,
2013-01-31 15:53:00,44.3,31.3,29.26,SSW,212,0.0,0.0,59,0.00,,,-99.99,23.0,HOBO +U30 +Weather +,2013-01-31 20:53:00,
2013-01-31 15:54:00,44.5,30.6,29.26,SW,230,0.0,0.0,57,0.00,,,-99.99,23.0,HOBO +U30 +Weather +,2013-01-31 20:54:00,
2013-01-31 15:55:00,44.7,30.6,29.26,SW,216,0.0,0.0,57,0.00,,,-99.99,24.0,HOBO +U30 +Weather +,2013-01-31 20:55:00,
2013-01-31 15:56:00,44.7,30.3,29.27,SW,219,0.0,0.0,56,0.00,,,-99.99,24.0,HOBO +U30 +Weather +,2013-01-31 20:56:00,
2013-01-31 15:57:00,44.8,29.9,29.26,West,271,0.0,0.0,55,0.00,,,-99.99,24.0,HOBO +U30 +Weather +,2013-01-31 20:57:00,
2013-01-31 15:58:00,44.9,30.1,29.27,South,191,0.0,0.0,55,0.00,,,-99.99,22.0,HOBO +U30 +Weather +,2013-01-31 20:58:00,
2013-01-31 15:59:00,44.9,29.9,29.28,WSW,247,0.0,0.0,55,0.00,,,-99.99,23.0,HOBO +U30 +Weather +,2013-01-31 20:59:00,
2013-01-31 16:00:00,44.9,29.2,29.27,SW,227,0.0,0.0,53,0.00,,,-99.99,19.0,HOBO +U30 +Weather +,2013-01-31 21:00:00,
2013-01-31 16:01:00,44.9,29.6,29.28,WSW,243,0.0,0.0,54,0.00,,,-99.99,21.0,HOBO +U30 +Weather +,2013-01-31 21:01:00,
2013-01-31 16:02:00,44.9,29.2,29.28,SW,216,0.0,0.9,53,0.00,,,-99.99,19.0,HOBO +U30 +Weather +,2013-01-31 21:02:00,
2013-01-31 16:03:00,44.8,29.2,29.28,SSW,208,0.0,0.0,54,0.00,,,-99.99,19.0,HOBO +U30 +Weather +,2013-01-31 21:03:00,
2013-01-31 16:04:00,44.8,28.9,29.28,SSW,208,0.0,0.0,53,0.00,,,-99.99,18.0,HOBO +U30 +Weather +,2013-01-31 21:04:00,
2013-01-31 16:05:00,44.7,28.9,29.28,WSW,237,0.0,0.0,53,0.00,,,-99.99,17.0,HOBO +U30 +Weather +,2013-01-31 21:05:00,
2013-01-31 16:06:00,44.7,28.5,29.28,WSW,243,0.0,0.0,52,0.00,,,-99.99,17.0,HOBO +U30 +Weather +,2013-01-31 21:06:00,
2013-01-31 16:07:00,44.6,29.0,29.28,WNW,282,0.0,0.0,53,0.00,,,-99.99,16.0,HOBO +U30 +Weather +,2013-01-31 21:07:00,
2013-01-31 16:08:00,44.4,28.9,29.29,SW,225,0.0,0.0,54,0.00,,,-99.99,16.0,HOBO +U30 +Weather +,2013-01-31 21:08:00,
2013-01-31 16:09:00,44.4,28.5,29.28,SW,230,0.0,0.0,53,0.00,,,-99.99,16.0,HOBO +U30 +Weather +,2013-01-31 21:09:00,
2013-01-31 16:10:00,44.3,28.7,29.28,SW,234,0.0,0.0,53,0.00,,,-99.99,14.0,HOBO +U30 +Weather +,2013-01-31 21:10:00,
2013-01-31 16:11:00,44.2,28.6,29.28,WSW,258,0.0,0.0,53,0.00,,,-99.99,13.0,HOBO +U30 +Weather +,2013-01-31 21:11:00,
2013-01-31 16:12:00,44.2,28.5,29.29,SSW,213,0.0,0.0,53,0.00,,,-99.99,13.0,HOBO +U30 +Weather +,2013-01-31 21:12:00,
2013-01-31 16:13:00,44.1,28.0,29.28,WSW,248,0.0,0.0,52,0.00,,,-99.99,12.0,HOBO +U30 +Weather +,2013-01-31 21:13:00,
2013-01-31 16:14:00,44.0,28.6,29.28,West,261,0.0,0.0,54,0.00,,,-99.99,11.0,HOBO +U30 +Weather +,2013-01-31 21:14:00,
2013-01-31 16:15:00,43.9,28.1,29.27,WNW,300,0.0,0.0,53,0.00,,,-99.99,9.0,HOBO +U30 +Weather +,2013-01-31 21:15:00,
2013-01-31 16:16:00,43.8,28.3,29.28,WSW,254,0.0,0.0,54,0.00,,,-99.99,8.0,HOBO +U30 +Weather +,2013-01-31 21:16:00,
2013-01-31 16:17:00,43.7,28.0,29.27,NW,310,0.0,0.0,53,0.00,,,-99.99,7.0,HOBO +U30 +Weather +,2013-01-31 21:17:00,
2013-01-31 16:18:00,43.6,27.6,29.27,West,261,0.0,0.0,53,0.00,,,-99.99,7.0,HOBO +U30 +Weather +,2013-01-31 21:18:00,
2013-01-31 16:19:00,43.5,28.1,29.28,SW,229,0.0,0.0,54,0.00,,,-99.99,7.0,HOBO +U30 +Weather +,2013-01-31 21:19:00,
2013-01-31 16:20:00,43.3,27.9,29.27,WNW,289,0.0,0.0,54,0.00,,,-99.99,7.0,HOBO +U30 +Weather +,2013-01-31 21:20:00,
2013-01-31 16:21:00,43.3,28.0,29.28,SSW,211,0.0,0.0,54,0.00,,,-99.99,6.0,HOBO +U30 +Weather +,2013-01-31 21:21:00,
2013-01-31 16:22:00,43.3,27.5,29.28,WSW,250,0.0,0.0,53,0.00,,,-99.99,6.0,HOBO +U30 +Weather +,2013-01-31 21:22:00,
2013-01-31 16:23:00,43.2,27.5,29.28,WNW,303,0.0,0.0,53,0.00,,,-99.99,6.0,HOBO +U30 +Weather +,2013-01-31 21:23:00,
2013-01-31 16:24:00,43.3,27.5,29.28,NNW,327,0.0,0.0,53,0.00,,,-99.99,6.0,HOBO +U30 +Weather +,2013-01-31 21:24:00,
2013-01-31 16:25:00,43.2,27.7,29.28,WSW,253,0.0,0.0,54,0.00,,,-99.99,6.0,HOBO +U30 +Weather +,2013-01-31 21:25:00,
2013-01-31 16:26:00,43.1,27.9,29.29,SW,215,0.0,0.0,54,0.00,,,-99.99,4.0,HOBO +U30 +Weather +,2013-01-31 21:26:00,
2013-01-31 16:27:00,43.0,27.4,29.29,WSW,247,0.0,0.0,53,0.00,,,-99.99,4.0,HOBO +U30 +Weather +,2013-01-31 21:27:00,
2013-01-31 16:28:00,42.9,27.3,29.29,West,265,0.0,0.0,53,0.00,,,-99.99,6.0,HOBO +U30 +Weather +,2013-01-31 21:28:00,
2013-01-31 16:29:00,42.9,27.2,29.29,West,279,0.0,0.0,53,0.00,,,-99.99,6.0,HOBO +U30 +Weather +,2013-01-31 21:29:00,
2013-01-31 16:30:00,42.9,27.4,29.29,SW,218,0.0,0.0,54,0.00,,,-99.99,6.0,HOBO +U30 +Weather +,2013-01-31 21:30:00,
2013-01-31 16:31:00,42.9,27.6,29.29,SW,227,0.0,0.0,54,0.00,,,-99.99,6.0,HOBO +U30 +Weather +,2013-01-31 21:31:00,
2013-01-31 16:32:00,42.8,27.6,29.29,WSW,243,0.0,0.0,54,0.00,,,-99.99,6.0,HOBO +U30 +Weather +,2013-01-31 21:32:00,
2013-01-31 16:33:00,42.7,27.5,29.29,SW,220,0.0,0.0,54,0.00,,,-99.99,6.0,HOBO +U30 +Weather +,2013-01-31 21:33:00,
2013-01-31 16:34:00,42.7,27.3,29.30,West,260,0.0,0.0,54,0.00,,,-99.99,6.0,HOBO +U30 +Weather +,2013-01-31 21:34:00,
2013-01-31 16:41:00,42.3,27.2,29.31,WSW,257,0.0,0.0,54,0.00,,,-99.99,2.0,HOBO +U30 +Weather +,2013-01-31 21:41:00,
2013-01-31 16:42:00,42.2,27.4,29.31,West,275,0.0,0.0,55,0.00,,,-99.99,2.0,HOBO +U30 +Weather +,2013-01-31 21:42:00,
2013-01-31 16:43:00,42.2,27.1,29.31,WSW,251,0.0,0.0,54,0.00,,,-99.99,2.0,HOBO +U30 +Weather +,2013-01-31 21:43:00,
2013-01-31 16:44:00,42.1,27.0,29.31,WSW,253,0.0,0.0,54,0.00,,,-99.99,2.0,HOBO +U30 +Weather +,2013-01-31 21:44:00,
2013-01-31 16:45:00,42.0,27.0,29.31,WSW,240,0.0,0.0,55,0.00,,,-99.99,2.0,HOBO +U30 +Weather +,2013-01-31 21:45:00,
2013-01-31 16:46:00,42.0,26.7,29.31,WNW,300,0.0,0.0,54,0.00,,,-99.99,2.0,HOBO +U30 +Weather +,2013-01-31 21:46:00,
2013-01-31 16:47:00,42.0,26.5,29.31,West,277,0.0,0.0,53,0.00,,,-99.99,2.0,HOBO +U30 +Weather +,2013-01-31 21:47:00,
2013-01-31 16:48:00,42.1,26.4,29.31,WNW,302,0.0,0.0,53,0.00,,,-99.99,1.0,HOBO +U30 +Weather +,2013-01-31 21:48:00,
2013-01-31 16:49:00,41.9,26.8,29.31,WSW,244,0.0,0.0,54,0.00,,,-99.99,1.0,HOBO +U30 +Weather +,2013-01-31 21:49:00,
2013-01-31 16:50:00,41.8,25.9,29.31,SW,236,0.0,0.0,52,0.00,,,-99.99,1.0,HOBO +U30 +Weather +,2013-01-31 21:50:00,
2013-01-31 16:51:00,42.0,25.8,29.32,SW,215,0.0,0.0,52,0.00,,,-99.99,1.0,HOBO +U30 +Weather +,2013-01-31 21:51:00,
2013-01-31 16:52:00,42.1,25.4,29.32,WSW,258,0.0,0.0,51,0.00,,,-99.99,1.0,HOBO +U30 +Weather +,2013-01-31 21:52:00,
2013-01-31 16:53:00,42.1,25.7,29.32,West,274,0.0,0.0,52,0.00,,,-99.99,1.0,HOBO +U30 +Weather +,2013-01-31 21:53:00,
2013-01-31 16:54:00,41.8,25.9,29.32,WSW,244,0.0,0.0,52,0.00,,,-99.99,1.0,HOBO +U30 +Weather +,2013-01-31 21:54:00,
2013-01-31 16:55:00,41.7,25.7,29.32,West,265,0.0,0.0,52,0.00,,,-99.99,1.0,HOBO +U30 +Weather +,2013-01-31 21:55:00,
2013-01-31 16:56:00,41.7,25.3,29.31,SSW,209,0.0,0.0,51,0.00,,,-99.99,1.0,HOBO +U30 +Weather +,2013-01-31 21:56:00,
2013-01-31 16:57:00,41.8,25.0,29.32,WSW,250,0.0,0.0,51,0.00,,,-99.99,1.0,HOBO +U30 +Weather +,2013-01-31 21:57:00,
2013-01-31 16:58:00,41.7,25.1,29.32,SSW,209,0.0,0.0,51,0.00,,,-99.99,1.0,HOBO +U30 +Weather +,2013-01-31 21:58:00,
2013-01-31 16:59:00,41.6,24.5,29.32,SW,233,0.0,0.0,50,0.00,,,-99.99,1.0,HOBO +U30 +Weather +,2013-01-31 21:59:00,
2013-01-31 17:00:00,41.7,24.8,29.32,SW,230,0.0,0.0,50,0.00,,,-99.99,1.0,HOBO +U30 +Weather +,2013-01-31 22:00:00,
2013-01-31 17:01:00,41.7,24.5,29.33,West,272,0.0,0.0,50,0.00,,,-99.99,1.0,HOBO +U30 +Weather +,2013-01-31 22:01:00,
2013-01-31 17:02:00,41.6,24.6,29.32,West,260,0.0,0.0,50,0.00,,,-99.99,1.0,HOBO +U30 +Weather +,2013-01-31 22:02:00,
2013-01-31 17:03:00,41.5,24.8,29.32,SSW,205,0.0,0.0,51,0.00,,,-99.99,1.0,HOBO +U30 +Weather +,2013-01-31 22:03:00,
2013-01-31 17:04:00,41.4,24.8,29.32,WNW,282,0.0,0.0,51,0.00,,,-99.99,1.0,HOBO +U30 +Weather +,2013-01-31 22:04:00,
2013-01-31 17:05:00,41.2,25.1,29.32,WNW,285,0.0,0.0,52,0.00,,,-99.99,1.0,HOBO +U30 +Weather +,2013-01-31 22:05:00,
2013-01-31 17:06:00,41.2,24.5,29.33,WNW,286,0.0,0.0,50,0.00,,,-99.99,1.0,HOBO +U30 +Weather +,2013-01-31 22:06:00,
2013-01-31 17:07:00,41.2,24.7,29.33,WNW,292,0.0,0.0,51,0.00,,,-99.99,1.0,HOBO +U30 +Weather +,2013-01-31 22:07:00,
2013-01-31 17:08:00,41.1,24.8,29.33,West,264,0.0,0.0,51,0.00,,,-99.99,1.0,HOBO +U30 +Weather +,2013-01-31 22:08:00,
2013-01-31 17:09:00,40.9,24.8,29.33,SW,226,0.0,0.0,52,0.00,,,-99.99,1.0,HOBO +U30 +Weather +,2013-01-31 22:09:00,
2013-01-31 17:10:00,40.8,24.9,29.32,WSW,253,0.0,0.0,52,0.00,,,-99.99,1.0,HOBO +U30 +Weather +,2013-01-31 22:10:00,
2013-01-31 17:11:00,40.7,24.7,29.33,SW,226,0.0,0.0,52,0.00,,,-99.99,1.0,HOBO +U30 +Weather +,2013-01-31 22:11:00,
2013-01-31 17:12:00,40.9,24.3,29.33,WNW,293,0.0,0.0,51,0.00,,,-99.99,1.0,HOBO +U30 +Weather +,2013-01-31 22:12:00,
2013-01-31 17:13:00,41.0,24.2,29.33,SW,230,0.0,0.0,50,0.00,,,-99.99,1.0,HOBO +U30 +Weather +,2013-01-31 22:13:00,
2013-01-31 17:14:00,41.0,24.3,29.34,WNW,295,0.0,0.0,51,0.00,,,-99.99,1.0,HOBO +U30 +Weather +,2013-01-31 22:14:00,
2013-01-31 17:15:00,41.0,24.1,29.33,SW,234,0.0,0.0,50,0.00,,,-99.99,1.0,HOBO +U30 +Weather +,2013-01-31 22:15:00,
2013-01-31 17:16:00,41.1,23.8,29.33,NW,312,0.0,0.0,49,0.00,,,-99.99,1.0,HOBO +U30 +Weather +,2013-01-31 22:16:00,
2013-01-31 17:17:00,41.2,24.0,29.33,WSW,243,0.0,0.0,50,0.00,,,-99.99,1.0,HOBO +U30 +Weather +,2013-01-31 22:17:00,
2013-01-31 17:18:00,41.1,24.2,29.34,NW,316,0.0,0.0,50,0.00,,,-99.99,1.0,HOBO +U30 +Weather +,2013-01-31 22:18:00,
2013-01-31 17:19:00,41.1,23.9,29.34,West,272,0.0,0.0,49,0.00,,,-99.99,1.0,HOBO +U30 +Weather +,2013-01-31 22:19:00,
2013-01-31 17:20:00,41.0,23.8,29.34,West,261,0.0,0.0,50,0.00,,,-99.99,1.0,HOBO +U30 +Weather +,2013-01-31 22:20:00,
2013-01-31 17:21:00,40.8,24.3,29.34,SW,225,0.0,0.0,51,0.00,,,-99.99,1.0,HOBO +U30 +Weather +,2013-01-31 22:21:00,
2013-01-31 17:22:00,40.9,23.9,29.34,SW,227,0.0,0.0,50,0.00,,,-99.99,1.0,HOBO +U30 +Weather +,2013-01-31 22:22:00,
2013-01-31 17:23:00,40.9,24.0,29.34,WNW,300,0.0,0.0,50,0.00,,,-99.99,1.0,HOBO +U30 +Weather +,2013-01-31 22:23:00,
2013-01-31 17:24:00,40.9,23.8,29.34,NW,305,0.0,0.0,50,0.00,,,-99.99,1.0,HOBO +U30 +Weather +,2013-01-31 22:24:00,
2013-01-31 17:25:00,40.9,23.6,29.34,WNW,292,0.0,0.0,49,0.00,,,-99.99,1.0,HOBO +U30 +Weather +,2013-01-31 22:25:00,
2013-01-31 17:26:00,40.9,23.4,29.34,WSW,239,0.0,0.0,49,0.00,,,-99.99,1.0,HOBO +U30 +Weather +,2013-01-31 22:26:00,
2013-01-31 17:27:00,40.9,23.6,29.34,West,265,0.0,0.0,49,0.00,,,-99.99,1.0,HOBO +U30 +Weather +,2013-01-31 22:27:00,
2013-01-31 17:28:00,40.9,23.3,29.34,SW,230,0.0,0.0,49,0.00,,,-99.99,1.0,HOBO +U30 +Weather +,2013-01-31 22:28:00,
2013-01-31 17:29:00,40.9,23.6,29.34,SW,236,0.0,0.0,49,0.00,,,-99.99,1.0,HOBO +U30 +Weather +,2013-01-31 22:29:00,
2013-01-31 17:30:00,40.8,23.3,29.34,SW,236,0.0,0.0,49,0.00,,,-99.99,1.0,HOBO +U30 +Weather +,2013-01-31 22:30:00,
2013-01-31 17:31:00,40.8,23.9,29.35,WNW,285,0.0,0.0,50,0.00,,,-99.99,1.0,HOBO +U30 +Weather +,2013-01-31 22:31:00,
2013-01-31 17:32:00,40.6,23.6,29.35,WSW,254,0.0,0.0,50,0.00,,,-99.99,1.0,HOBO +U30 +Weather +,2013-01-31 22:32:00,
2013-01-31 17:33:00,40.7,23.6,29.35,SSW,206,0.0,0.0,50,0.00,,,-99.99,1.0,HOBO +U30 +Weather +,2013-01-31 22:33:00,
2013-01-31 17:34:00,40.6,23.4,29.35,WSW,248,0.0,0.0,49,0.00,,,-99.99,1.0,HOBO +U30 +Weather +,2013-01-31 22:34:00,
2013-01-31 17:35:00,40.7,23.4,29.36,WNW,299,0.0,0.0,49,0.00,,,-99.99,1.0,HOBO +U30 +Weather +,2013-01-31 22:35:00,
2013-01-31 17:36:00,40.6,23.0,29.35,West,277,0.0,0.0,49,0.00,,,-99.99,1.0,HOBO +U30 +Weather +,2013-01-31 22:36:00,
2013-01-31 17:37:00,40.8,22.9,29.36,NW,316,0.0,0.0,48,0.00,,,-99.99,1.0,HOBO +U30 +Weather +,2013-01-31 22:37:00,
2013-01-31 17:38:00,40.9,23.1,29.36,SW,236,0.0,0.0,48,0.00,,,-99.99,1.0,HOBO +U30 +Weather +,2013-01-31 22:38:00,
2013-01-31 17:39:00,40.7,23.2,29.36,WNW,288,0.0,0.0,49,0.00,,,-99.99,1.0,HOBO +U30 +Weather +,2013-01-31 22:39:00,
2013-01-31 17:40:00,40.8,23.2,29.35,SSW,211,0.0,0.0,49,0.00,,,-99.99,1.0,HOBO +U30 +Weather +,2013-01-31 22:40:00,
2013-01-31 17:41:00,40.6,23.5,29.36,WSW,241,0.0,0.0,50,0.00,,,-99.99,1.0,HOBO +U30 +Weather +,2013-01-31 22:41:00,
2013-01-31 17:42:00,40.5,22.9,29.36,SW,233,0.0,0.0,49,0.00,,,-99.99,1.0,HOBO +U30 +Weather +,2013-01-31 22:42:00,
2013-01-31 17:43:00,40.6,22.9,29.36,SW,226,0.0,0.0,49,0.00,,,-99.99,1.0,HOBO +U30 +Weather +,2013-01-31 22:43:00,
2013-01-31 17:44:00,40.4,22.8,29.36,SW,234,0.0,0.0,49,0.00,,,-99.99,1.0,HOBO +U30 +Weather +,2013-01-31 22:44:00,
2013-01-31 17:45:00,40.6,23.0,29.36,West,279,0.0,0.0,49,0.00,,,-99.99,1.0,HOBO +U30 +Weather +,2013-01-31 22:45:00,
2013-01-31 17:46:00,40.7,22.9,29.36,SW,223,0.0,0.0,48,0.00,,,-99.99,1.0,HOBO +U30 +Weather +,2013-01-31 22:46:00,
2013-01-31 17:47:00,40.7,23.0,29.36,WSW,246,0.0,0.0,48,0.00,,,-99.99,1.0,HOBO +U30 +Weather +,2013-01-31 22:47:00,
2013-01-31 17:48:00,40.7,23.0,29.36,NW,309,0.0,0.0,48,0.00,,,-99.99,1.0,HOBO +U30 +Weather +,2013-01-31 22:48:00,
2013-01-31 17:49:00,40.6,23.0,29.36,WSW,240,0.0,0.0,49,0.00,,,-99.99,1.0,HOBO +U30 +Weather +,2013-01-31 22:49:00,
2013-01-31 17:50:00,40.5,22.9,29.36,SW,234,0.0,0.0,49,0.00,,,-99.99,1.0,HOBO +U30 +Weather +,2013-01-31 22:50:00,
2013-01-31 17:51:00,40.4,23.3,29.37,West,281,0.0,0.0,50,0.00,,,-99.99,1.0,HOBO +U30 +Weather +,2013-01-31 22:51:00,
2013-01-31 17:52:00,40.4,23.0,29.37,West,270,0.0,0.0,49,0.00,,,-99.99,1.0,HOBO +U30 +Weather +,2013-01-31 22:52:00,
2013-01-31 17:53:00,40.2,23.1,29.37,WSW,237,0.0,0.0,50,0.00,,,-99.99,1.0,HOBO +U30 +Weather +,2013-01-31 22:53:00,
2013-01-31 17:54:00,40.3,22.6,29.36,WNW,286,0.0,0.0,48,0.00,,,-99.99,1.0,HOBO +U30 +Weather +,2013-01-31 22:54:00,
2013-01-31 17:55:00,40.3,23.3,29.37,SW,216,0.0,0.0,50,0.00,,,-99.99,1.0,HOBO +U30 +Weather +,2013-01-31 22:55:00,
2013-01-31 17:56:00,40.2,23.1,29.37,West,260,0.0,0.0,50,0.00,,,-99.99,1.0,HOBO +U30 +Weather +,2013-01-31 22:56:00,
2013-01-31 17:57:00,40.0,23.0,29.38,West,268,0.0,0.0,50,0.00,,,-99.99,1.0,HOBO +U30 +Weather +,2013-01-31 22:57:00,
2013-01-31 17:58:00,39.9,23.3,29.37,SSW,204,0.0,0.0,51,0.00,,,-99.99,1.0,HOBO +U30 +Weather +,2013-01-31 22:58:00,
2013-01-31 17:59:00,39.8,23.4,29.37,West,275,0.0,0.0,51,0.00,,,-99.99,1.0,HOBO +U30 +Weather +,2013-01-31 22:59:00,
2013-01-31 18:00:00,39.8,23.1,29.38,West,279,0.0,0.0,51,0.00,,,-99.99,1.0,HOBO +U30 +Weather +,2013-01-31 23:00:00,
2013-01-31 18:01:00,39.8,23.3,29.37,West,260,0.0,0.0,51,0.00,,,-99.99,1.0,HOBO +U30 +Weather +,2013-01-31 23:01:00,
2013-01-31 18:02:00,39.7,23.6,29.37,SW,218,0.0,0.0,52,0.00,,,-99.99,1.0,HOBO +U30 +Weather +,2013-01-31 23:02:00,
2013-01-31 18:03:00,39.5,24.1,29.37,SW,236,0.0,0.0,53,0.00,,,-99.99,1.0,HOBO +U30 +Weather +,2013-01-31 23:03:00,
2013-01-31 18:04:00,39.3,23.9,29.38,WSW,250,0.0,0.0,53,0.00,,,-99.99,1.0,HOBO +U30 +Weather +,2013-01-31 23:04:00,
2013-01-31 18:05:00,39.3,24.2,29.37,West,263,0.0,0.0,54,0.00,,,-99.99,1.0,HOBO +U30 +Weather +,2013-01-31 23:05:00,
2013-01-31 18:06:00,39.3,24.6,29.38,West,265,0.0,0.0,55,0.00,,,-99.99,1.0,HOBO +U30 +Weather +,2013-01-31 23:06:00,
2013-01-31 18:07:00,38.9,24.6,29.38,WNW,285,0.0,0.0,56,0.00,,,-99.99,1.0,HOBO +U30 +Weather +,2013-01-31 23:07:00,
2013-01-31 18:08:00,38.6,25.0,29.37,West,272,0.0,0.0,57,0.00,,,-99.99,1.0,HOBO +U30 +Weather +,2013-01-31 23:08:00,
2013-01-31 18:09:00,38.5,25.6,29.37,West,260,0.0,0.0,59,0.00,,,-99.99,1.0,HOBO +U30 +Weather +,2013-01-31 23:09:00,
2013-01-31 18:10:00,38.4,26.2,29.37,West,260,0.0,0.0,61,0.00,,,-99.99,1.0,HOBO +U30 +Weather +,2013-01-31 23:10:00,
2013-01-31 18:11:00,38.6,26.6,29.37,SW,226,0.0,0.0,61,0.00,,,-99.99,1.0,HOBO +U30 +Weather +,2013-01-31 23:11:00,
2013-01-31 18:12:00,38.6,26.7,29.38,SW,233,0.0,0.0,61,0.00,,,-99.99,1.0,HOBO +U30 +Weather +,2013-01-31 23:12:00,
2013-01-31 18:13:00,38.6,27.0,29.38,SW,236,0.0,0.0,62,0.00,,,-99.99,1.0,HOBO +U30 +Weather +,2013-01-31 23:13:00,
2013-01-31 18:14:00,38.6,27.4,29.39,WSW,250,0.0,0.0,63,0.00,,,-99.99,1.0,HOBO +U30 +Weather +,2013-01-31 23:14:00,
2013-01-31 18:15:00,38.8,27.7,29.38,SW,234,0.0,0.0,64,0.00,,,-99.99,1.0,HOBO +U30 +Weather +,2013-01-31 23:15:00,
2013-01-31 18:16:00,38.8,27.7,29.39,WSW,241,0.0,0.0,64,0.00,,,-99.99,1.0,HOBO +U30 +Weather +,2013-01-31 23:16:00,
2013-01-31 18:17:00,38.9,27.8,29.39,SW,215,0.0,0.0,64,0.00,,,-99.99,1.0,HOBO +U30 +Weather +,2013-01-31 23:17:00,
2013-01-31 18:18:00,38.9,27.9,29.38,SW,227,0.0,0.0,64,0.00,,,-99.99,1.0,HOBO +U30 +Weather +,2013-01-31 23:18:00,
2013-01-31 18:19:00,39.1,28.1,29.38,WSW,254,0.0,0.0,64,0.00,,,-99.99,1.0,HOBO +U30 +Weather +,2013-01-31 23:19:00,
2013-01-31 18:20:00,39.1,28.2,29.38,SW,223,0.0,0.0,64,0.00,,,-99.99,1.0,HOBO +U30 +Weather +,2013-01-31 23:20:00,
2013-01-31 18:21:00,39.1,28.2,29.38,West,263,0.0,0.0,64,0.00,,,-99.99,1.0,HOBO +U30 +Weather +,2013-01-31 23:21:00,
2013-01-31 18:22:00,39.3,28.2,29.38,West,270,0.0,0.0,64,0.00,,,-99.99,1.0,HOBO +U30 +Weather +,2013-01-31 23:22:00,
2013-01-31 18:23:00,39.3,28.4,29.38,WNW,286,0.0,0.0,64,0.00,,,-99.99,1.0,HOBO +U30 +Weather +,2013-01-31 23:23:00,
2013-01-31 18:24:00,39.2,28.2,29.38,SW,226,0.0,0.0,64,0.00,,,-99.99,1.0,HOBO +U30 +Weather +,2013-01-31 23:24:00,
2013-01-31 18:25:00,39.2,28.3,29.39,SSW,213,0.0,0.0,64,0.00,,,-99.99,1.0,HOBO +U30 +Weather +,2013-01-31 23:25:00,
2013-01-31 18:26:00,39.2,28.7,29.39,SSW,206,0.0,0.0,65,0.00,,,-99.99,1.0,HOBO +U30 +Weather +,2013-01-31 23:26:00,
2013-01-31 18:27:00,39.1,28.7,29.38,WSW,250,0.0,0.0,66,0.00,,,-99.99,1.0,HOBO +U30 +Weather +,2013-01-31 23:27:00,
2013-01-31 18:28:00,39.0,28.9,29.39,WSW,239,0.0,0.0,66,0.00,,,-99.99,1.0,HOBO +U30 +Weather +,2013-01-31 23:28:00,
2013-01-31 18:29:00,38.9,28.9,29.39,WSW,243,0.0,0.0,67,0.00,,,-99.99,1.0,HOBO +U30 +Weather +,2013-01-31 23:29:00,
2013-01-31 18:30:00,38.9,29.1,29.39,WSW,248,0.0,0.0,67,0.00,,,-99.99,1.0,HOBO +U30 +Weather +,2013-01-31 23:30:00,
2013-01-31 18:31:00,38.8,29.2,29.39,SW,229,0.0,0.0,67,0.00,,,-99.99,1.0,HOBO +U30 +Weather +,2013-01-31 23:31:00,
2013-01-31 18:32:00,38.9,29.2,29.39,SW,222,0.0,0.0,67,0.00,,,-99.99,1.0,HOBO +U30 +Weather +,2013-01-31 23:32:00,
2013-01-31 18:33:00,39.0,29.4,29.39,SW,234,0.0,0.0,67,0.00,,,-99.99,1.0,HOBO +U30 +Weather +,2013-01-31 23:33:00,
2013-01-31 18:34:00,39.0,29.4,29.39,SW,226,0.0,0.0,67,0.00,,,-99.99,1.0,HOBO +U30 +Weather +,2013-01-31 23:34:00,
2013-01-31 18:35:00,39.0,29.6,29.39,SW,215,0.0,0.0,68,0.00,,,-99.99,1.0,HOBO +U30 +Weather +,2013-01-31 23:35:00,
2013-01-31 18:36:00,38.9,29.5,29.40,SW,218,0.0,0.0,68,0.00,,,-99.99,1.0,HOBO +U30 +Weather +,2013-01-31 23:36:00,
2013-01-31 18:37:00,38.8,29.4,29.39,SSW,212,0.0,0.0,68,0.00,,,-99.99,1.0,HOBO +U30 +Weather +,2013-01-31 23:37:00,
2013-01-31 18:38:00,38.8,29.5,29.40,West,263,0.0,0.0,69,0.00,,,-99.99,1.0,HOBO +U30 +Weather +,2013-01-31 23:38:00,
2013-01-31 18:39:00,38.8,29.4,29.39,SSW,213,0.0,0.0,68,0.00,,,-99.99,1.0,HOBO +U30 +Weather +,2013-01-31 23:39:00,
2013-01-31 18:40:00,38.9,29.2,29.40,SW,236,0.0,0.0,68,0.00,,,-99.99,1.0,HOBO +U30 +Weather +,2013-01-31 23:40:00,
2013-01-31 18:41:00,39.0,29.2,29.40,SW,233,0.0,0.0,67,0.00,,,-99.99,1.0,HOBO +U30 +Weather +,2013-01-31 23:41:00,
2013-01-31 18:42:00,39.0,29.2,29.40,SW,230,0.0,0.0,67,0.00,,,-99.99,1.0,HOBO +U30 +Weather +,2013-01-31 23:42:00,
2013-01-31 18:43:00,39.0,29.2,29.39,WSW,240,0.0,0.0,67,0.00,,,-99.99,1.0,HOBO +U30 +Weather +,2013-01-31 23:43:00,
2013-01-31 18:44:00,39.0,29.2,29.39,SSW,208,0.0,0.0,67,0.00,,,-99.99,1.0,HOBO +U30 +Weather +,2013-01-31 23:44:00,
2013-01-31 18:45:00,39.0,29.0,29.40,WSW,240,0.0,0.0,67,0.00,,,-99.99,1.0,HOBO +U30 +Weather +,2013-01-31 23:45:00,
2013-01-31 18:46:00,39.1,29.0,29.40,WSW,241,0.0,0.0,66,0.00,,,-99.99,1.0,HOBO +U30 +Weather +,2013-01-31 23:46:00,
2013-01-31 18:47:00,39.1,29.0,29.41,WSW,244,0.0,0.0,66,0.00,,,-99.99,1.0,HOBO +U30 +Weather +,2013-01-31 23:47:00,
2013-01-31 18:48:00,39.1,29.0,29.41,SW,219,0.0,0.0,66,0.00,,,-99.99,1.0,HOBO +U30 +Weather +,2013-01-31 23:48:00,
2013-01-31 18:49:00,39.1,28.8,29.40,SW,215,0.0,0.0,66,0.00,,,-99.99,1.0,HOBO +U30 +Weather +,2013-01-31 23:49:00,
2013-01-31 18:50:00,39.1,28.8,29.41,SW,232,0.0,0.0,66,0.00,,,-99.99,1.0,HOBO +U30 +Weather +,2013-01-31 23:50:00,
2013-01-31 18:51:00,38.9,28.9,29.41,WSW,241,0.0,0.0,66,0.00,,,-99.99,1.0,HOBO +U30 +Weather +,2013-01-31 23:51:00,
2013-01-31 18:52:00,38.7,28.7,29.41,SW,236,0.0,0.0,67,0.00,,,-99.99,1.0,HOBO +U30 +Weather +,2013-01-31 23:52:00,
2013-01-31 18:53:00,38.5,28.9,29.41,West,279,0.0,0.0,67,0.00,,,-99.99,1.0,HOBO +U30 +Weather +,2013-01-31 23:53:00,
2013-01-31 18:54:00,38.6,28.5,29.41,West,261,0.0,0.0,66,0.00,,,-99.99,1.0,HOBO +U30 +Weather +,2013-01-31 23:54:00,
2013-01-31 18:55:00,38.8,28.6,29.41,SW,232,0.0,0.9,66,0.00,,,-99.99,1.0,HOBO +U30 +Weather +,2013-01-31 23:55:00,
2013-01-31 18:56:00,39.0,28.5,29.41,WSW,254,0.0,0.0,65,0.00,,,-99.99,1.0,HOBO +U30 +Weather +,2013-01-31 23:56:00,
2013-01-31 18:57:00,39.0,28.7,29.41,SW,227,0.0,0.0,66,0.00,,,-99.99,1.0,HOBO +U30 +Weather +,2013-01-31 23:57:00,
2013-01-31 18:58:00,39.0,28.8,29.41,SW,232,0.0,0.0,66,0.00,,,-99.99,1.0,HOBO +U30 +Weather +,2013-01-31 23:58:00,
2013-01-31 18:59:00,39.0,28.9,29.41,SW,227,0.0,0.0,66,0.00,,,-99.99,1.0,HOBO +U30 +Weather +,2013-01-31 23:59:00,
2013-01-31 19:00:00,39.0,28.8,29.41,West,261,0.0,0.0,66,0.00,,,-99.99,1.0,HOBO +U30 +Weather +,2013-02-01 00:00:00,
2013-01-31 19:01:00,39.0,28.6,29.41,SW,218,0.0,0.0,65,0.00,,,-99.99,1.0,HOBO +U30 +Weather +,2013-02-01 00:01:00,
2013-01-31 19:02:00,39.1,28.5,29.41,SW,215,0.0,0.0,65,0.00,,,-99.99,1.0,HOBO +U30 +Weather +,2013-02-01 00:02:00,
2013-01-31 19:03:00,39.1,28.3,29.41,WNW,296,0.0,0.0,65,0.00,,,-99.99,1.0,HOBO +U30 +Weather +,2013-02-01 00:03:00,
2013-01-31 19:04:00,38.9,28.4,29.41,WSW,240,0.0,0.0,65,0.00,,,-99.99,1.0,HOBO +U30 +Weather +,2013-02-01 00:04:00,
2013-01-31 19:05:00,38.8,28.2,29.41,WSW,258,0.0,0.0,65,0.00,,,-99.99,1.0,HOBO +U30 +Weather +,2013-02-01 00:05:00,
2013-01-31 19:06:00,38.8,28.2,29.41,SW,234,0.0,0.0,65,0.00,,,-99.99,1.0,HOBO +U30 +Weather +,2013-02-01 00:06:00,
2013-01-31 19:07:00,38.7,28.2,29.41,SW,227,0.0,0.0,65,0.00,,,-99.99,1.0,HOBO +U30 +Weather +,2013-02-01 00:07:00,
2013-01-31 19:08:00,38.6,28.2,29.41,WSW,246,0.0,0.0,66,0.00,,,-99.99,1.0,HOBO +U30 +Weather +,2013-02-01 00:08:00,
2013-01-31 19:09:00,38.4,28.2,29.41,WSW,241,0.0,0.0,66,0.00,,,-99.99,1.0,HOBO +U30 +Weather +,2013-02-01 00:09:00,
2013-01-31 19:10:00,38.1,28.0,29.41,WSW,241,0.0,0.0,66,0.00,,,-99.99,1.0,HOBO +U30 +Weather +,2013-02-01 00:10:00,
2013-01-31 19:11:00,38.0,27.9,29.41,SSW,211,0.0,0.0,66,0.00,,,-99.99,1.0,HOBO +U30 +Weather +,2013-02-01 00:11:00,
2013-01-31 19:12:00,38.0,27.9,29.42,SSW,212,0.0,0.0,66,0.00,,,-99.99,1.0,HOBO +U30 +Weather +,2013-02-01 00:12:00,
2013-01-31 19:13:00,37.8,27.9,29.42,West,261,0.0,0.0,67,0.00,,,-99.99,1.0,HOBO +U30 +Weather +,2013-02-01 00:13:00,
2013-01-31 19:14:00,37.9,27.8,29.42,West,268,0.0,0.0,66,0.00,,,-99.99,1.0,HOBO +U30 +Weather +,2013-02-01 00:14:00,
2013-01-31 19:15:00,37.8,27.8,29.42,WSW,241,0.0,0.0,66,0.00,,,-99.99,1.0,HOBO +U30 +Weather +,2013-02-01 00:15:00,
2013-01-31 19:16:00,37.8,27.6,29.42,WSW,244,0.0,0.0,66,0.00,,,-99.99,1.0,HOBO +U30 +Weather +,2013-02-01 00:16:00,
2013-01-31 19:17:00,37.9,27.5,29.42,SW,230,0.0,0.0,65,0.00,,,-99.99,1.0,HOBO +U30 +Weather +,2013-02-01 00:17:00,
2013-01-31 19:18:00,37.9,27.4,29.42,West,277,0.0,0.0,65,0.00,,,-99.99,1.0,HOBO +U30 +Weather +,2013-02-01 00:18:00,
2013-01-31 19:19:00,37.9,27.2,29.42,West,261,0.0,0.0,64,0.00,,,-99.99,1.0,HOBO +U30 +Weather +,2013-02-01 00:19:00,
2013-01-31 19:20:00,38.1,27.1,29.41,WSW,253,0.0,0.0,64,0.00,,,-99.99,1.0,HOBO +U30 +Weather +,2013-02-01 00:20:00,
2013-01-31 19:21:00,38.2,26.7,29.42,WSW,248,0.0,0.0,63,0.00,,,-99.99,1.0,HOBO +U30 +Weather +,2013-02-01 00:21:00,
2013-01-31 19:22:00,38.3,26.5,29.42,WSW,243,0.0,0.0,62,0.00,,,-99.99,1.0,HOBO +U30 +Weather +,2013-02-01 00:22:00,
2013-01-31 19:23:00,38.2,26.5,29.42,WSW,250,0.0,0.0,62,0.00,,,-99.99,1.0,HOBO +U30 +Weather +,2013-02-01 00:23:00,
2013-01-31 19:24:00,38.2,26.1,29.42,West,274,0.0,0.0,61,0.00,,,-99.99,1.0,HOBO +U30 +Weather +,2013-02-01 00:24:00,
2013-01-31 19:25:00,38.4,25.6,29.42,WSW,237,0.0,0.0,59,0.00,,,-99.99,1.0,HOBO +U30 +Weather +,2013-02-01 00:25:00,
2013-01-31 19:26:00,38.7,24.7,29.42,WNW,300,0.0,0.0,56,0.00,,,-99.99,1.0,HOBO +U30 +Weather +,2013-02-01 00:26:00,
2013-01-31 19:27:00,38.7,24.3,29.42,West,275,0.0,0.0,55,0.00,,,-99.99,1.0,HOBO +U30 +Weather +,2013-02-01 00:27:00,
2013-01-31 19:28:00,38.9,24.1,29.43,WNW,303,0.0,0.0,55,0.00,,,-99.99,1.0,HOBO +U30 +Weather +,2013-02-01 00:28:00,
2013-01-31 19:29:00,38.9,24.0,29.43,NW,326,0.0,0.0,54,0.00,,,-99.99,1.0,HOBO +U30 +Weather +,2013-02-01 00:29:00,
2013-01-31 19:30:00,39.0,23.7,29.43,WNW,299,0.0,0.0,53,0.00,,,-99.99,1.0,HOBO +U30 +Weather +,2013-02-01 00:30:00,
2013-01-31 19:31:00,38.8,23.7,29.43,SW,219,0.0,0.0,54,0.00,,,-99.99,1.0,HOBO +U30 +Weather +,2013-02-01 00:31:00,
2013-01-31 19:32:00,38.8,23.7,29.43,WNW,298,0.0,0.0,54,0.00,,,-99.99,1.0,HOBO +U30 +Weather +,2013-02-01 00:32:00,
2013-01-31 19:33:00,38.7,23.6,29.43,West,277,0.0,0.0,54,0.00,,,-99.99,1.0,HOBO +U30 +Weather +,2013-02-01 00:33:00,
2013-01-31 19:34:00,38.4,23.7,29.43,West,265,0.0,0.0,55,0.00,,,-99.99,1.0,HOBO +U30 +Weather +,2013-02-01 00:34:00,
2013-01-31 19:35:00,38.3,23.6,29.43,West,275,0.0,0.0,55,0.00,,,-99.99,1.0,HOBO +U30 +Weather +,2013-02-01 00:35:00,
2013-01-31 19:36:00,38.3,23.7,29.43,WSW,253,0.0,0.0,55,0.00,,,-99.99,1.0,HOBO +U30 +Weather +,2013-02-01 00:36:00,
2013-01-31 19:37:00,38.2,23.7,29.43,WSW,256,0.0,0.0,55,0.00,,,-99.99,1.0,HOBO +U30 +Weather +,2013-02-01 00:37:00,
2013-01-31 19:38:00,37.9,24.1,29.44,SSW,213,0.0,0.0,57,0.00,,,-99.99,1.0,HOBO +U30 +Weather +,2013-02-01 00:38:00,
2013-01-31 19:39:00,37.9,24.2,29.43,West,275,0.0,0.0,57,0.00,,,-99.99,1.0,HOBO +U30 +Weather +,2013-02-01 00:39:00,
2013-01-31 19:40:00,38.2,23.0,29.44,NW,306,0.0,0.0,53,0.00,,,-99.99,1.0,HOBO +U30 +Weather +,2013-02-01 00:40:00,
2013-01-31 19:41:00,38.5,23.3,29.44,WNW,298,0.0,0.0,54,0.00,,,-99.99,1.0,HOBO +U30 +Weather +,2013-02-01 00:41:00,
2013-01-31 19:42:00,38.6,22.7,29.44,West,279,0.0,0.0,52,0.00,,,-99.99,1.0,HOBO +U30 +Weather +,2013-02-01 00:42:00,
2013-01-31 19:43:00,38.6,22.8,29.43,SW,225,0.0,0.0,52,0.00,,,-99.99,1.0,HOBO +U30 +Weather +,2013-02-01 00:43:00,
2013-01-31 19:44:00,38.6,22.4,29.44,SW,229,0.0,0.0,51,0.00,,,-99.99,1.0,HOBO +U30 +Weather +,2013-02-01 00:44:00,
2013-01-31 19:45:00,38.7,22.0,29.44,West,265,0.0,0.0,50,0.00,,,-99.99,1.0,HOBO +U30 +Weather +,2013-02-01 00:45:00,
2013-01-31 19:46:00,38.8,21.9,29.44,SW,225,0.0,0.0,50,0.00,,,-99.99,1.0,HOBO +U30 +Weather +,2013-02-01 00:46:00,
2013-01-31 19:47:00,38.9,21.8,29.44,SSW,213,0.0,0.0,49,0.00,,,-99.99,1.0,HOBO +U30 +Weather +,2013-02-01 00:47:00,
2013-01-31 19:48:00,38.8,22.0,29.44,West,265,0.0,0.0,50,0.00,,,-99.99,1.0,HOBO +U30 +Weather +,2013-02-01 00:48:00,
2013-01-31 19:49:00,38.8,21.7,29.44,NW,319,0.0,0.0,49,0.00,,,-99.99,1.0,HOBO +U30 +Weather +,2013-02-01 00:49:00,
2013-01-31 19:50:00,38.8,21.5,29.44,WNW,298,0.0,0.0,49,0.00,,,-99.99,1.0,HOBO +U30 +Weather +,2013-02-01 00:50:00,
2013-01-31 19:51:00,38.7,21.4,29.44,WNW,298,0.0,0.0,49,0.00,,,-99.99,1.0,HOBO +U30 +Weather +,2013-02-01 00:51:00,
2013-01-31 19:52:00,38.5,21.7,29.44,SW,225,0.0,0.0,50,0.00,,,-99.99,1.0,HOBO +U30 +Weather +,2013-02-01 00:52:00,
2013-01-31 19:53:00,38.4,21.5,29.44,WSW,251,0.0,0.0,50,0.00,,,-99.99,1.0,HOBO +U30 +Weather +,2013-02-01 00:53:00,
2013-01-31 19:54:00,38.4,21.2,29.44,WNW,296,0.0,0.0,49,0.00,,,-99.99,1.0,HOBO +U30 +Weather +,2013-02-01 00:54:00,
2013-01-31 19:55:00,38.4,21.7,29.44,WSW,250,0.0,0.0,50,0.00,,,-99.99,1.0,HOBO +U30 +Weather +,2013-02-01 00:55:00,
2013-01-31 19:56:00,38.3,21.6,29.45,West,271,0.0,0.0,50,0.00,,,-99.99,1.0,HOBO +U30 +Weather +,2013-02-01 00:56:00,
2013-01-31 19:57:00,38.3,21.4,29.44,West,271,0.0,0.0,50,0.00,,,-99.99,1.0,HOBO +U30 +Weather +,2013-02-01 00:57:00,
2013-01-31 19:58:00,38.3,21.3,29.44,West,264,0.0,0.0,50,0.00,,,-99.99,1.0,HOBO +U30 +Weather +,2013-02-01 00:58:00,
2013-01-31 19:59:00,38.3,21.5,29.44,SW,230,0.0,0.0,50,0.00,,,-99.99,1.0,HOBO +U30 +Weather +,2013-02-01 00:59:00,
2013-01-31 20:00:00,38.4,21.2,29.44,West,277,0.0,0.0,49,0.00,,,-99.99,1.0,HOBO +U30 +Weather +,2013-02-01 01:00:00,
2013-01-31 20:01:00,38.4,21.3,29.44,WSW,253,0.0,0.0,49,0.00,,,-99.99,1.0,HOBO +U30 +Weather +,2013-02-01 01:01:00,
2013-01-31 20:02:00,38.3,21.7,29.44,WSW,253,0.0,0.0,50,0.00,,,-99.99,1.0,HOBO +U30 +Weather +,2013-02-01 01:02:00,
2013-01-31 20:03:00,38.2,21.5,29.44,WSW,246,0.0,0.0,50,0.00,,,-99.99,1.0,HOBO +U30 +Weather +,2013-02-01 01:03:00,
2013-01-31 20:04:00,38.2,21.3,29.45,WNW,293,0.0,0.0,50,0.00,,,-99.99,1.0,HOBO +U30 +Weather +,2013-02-01 01:04:00,
2013-01-31 20:05:00,38.2,20.9,29.45,West,274,0.0,0.0,49,0.00,,,-99.99,1.0,HOBO +U30 +Weather +,2013-02-01 01:05:00,
2013-01-31 20:06:00,38.3,21.0,29.44,NW,305,0.0,0.0,49,0.00,,,-99.99,1.0,HOBO +U30 +Weather +,2013-02-01 01:06:00,
2013-01-31 20:07:00,38.4,21.2,29.45,WNW,298,0.0,0.0,49,0.00,,,-99.99,1.0,HOBO +U30 +Weather +,2013-02-01 01:07:00,
2013-01-31 20:08:00,38.4,21.3,29.44,WNW,295,0.0,0.0,49,0.00,,,-99.99,1.0,HOBO +U30 +Weather +,2013-02-01 01:08:00,
2013-01-31 20:09:00,38.4,21.1,29.45,WSW,250,0.0,0.0,49,0.00,,,-99.99,1.0,HOBO +U30 +Weather +,2013-02-01 01:09:00,
2013-01-31 20:10:00,38.4,21.6,29.44,NW,313,0.0,0.0,50,0.00,,,-99.99,1.0,HOBO +U30 +Weather +,2013-02-01 01:10:00,
2013-01-31 20:11:00,38.3,21.3,29.45,SW,216,0.0,0.0,50,0.00,,,-99.99,1.0,HOBO +U30 +Weather +,2013-02-01 01:11:00,
2013-01-31 20:12:00,38.2,21.6,29.44,West,263,0.0,0.0,50,0.00,,,-99.99,1.0,HOBO +U30 +Weather +,2013-02-01 01:12:00,
2013-01-31 20:13:00,38.1,21.3,29.44,SW,220,0.0,0.0,50,0.00,,,-99.99,1.0,HOBO +U30 +Weather +,2013-02-01 01:13:00,
2013-01-31 20:14:00,38.1,21.4,29.44,SSW,209,0.0,0.0,50,0.00,,,-99.99,1.0,HOBO +U30 +Weather +,2013-02-01 01:14:00,
2013-01-31 20:15:00,38.1,21.4,29.46,West,274,0.0,0.0,50,0.00,,,-99.99,1.0,HOBO +U30 +Weather +,2013-02-01 01:15:00,
2013-01-31 20:16:00,38.1,21.2,29.45,WSW,253,0.0,0.0,50,0.00,,,-99.99,1.0,HOBO +U30 +Weather +,2013-02-01 01:16:00,
2013-01-31 20:17:00,38.1,21.2,29.45,SW,229,0.0,0.0,50,0.00,,,-99.99,1.0,HOBO +U30 +Weather +,2013-02-01 01:17:00,
2013-01-31 20:18:00,38.1,21.1,29.45,South,175,0.0,0.0,50,0.00,,,-99.99,1.0,HOBO +U30 +Weather +,2013-02-01 01:18:00,
2013-01-31 20:19:00,38.0,21.1,29.45,SW,225,0.0,0.0,50,0.00,,,-99.99,1.0,HOBO +U30 +Weather +,2013-02-01 01:19:00,
2013-01-31 20:20:00,38.0,20.9,29.45,NW,321,0.0,0.0,49,0.00,,,-99.99,1.0,HOBO +U30 +Weather +,2013-02-01 01:20:00,
2013-01-31 20:21:00,37.9,20.6,29.45,WNW,303,0.0,0.0,49,0.00,,,-99.99,1.0,HOBO +U30 +Weather +,2013-02-01 01:21:00,
2013-01-31 20:22:00,37.9,20.6,29.45,WSW,250,0.0,0.0,49,0.00,,,-99.99,1.0,HOBO +U30 +Weather +,2013-02-01 01:22:00,
2013-01-31 20:23:00,37.9,20.6,29.45,SSW,202,0.0,0.0,49,0.00,,,-99.99,1.0,HOBO +U30 +Weather +,2013-02-01 01:23:00,
2013-01-31 20:24:00,37.7,20.9,29.45,WSW,257,0.0,0.0,50,0.00,,,-99.99,1.0,HOBO +U30 +Weather +,2013-02-01 01:24:00,
2013-01-31 20:25:00,37.5,20.8,29.46,West,272,0.0,0.0,50,0.00,,,-99.99,1.0,HOBO +U30 +Weather +,2013-02-01 01:25:00,
2013-01-31 20:26:00,37.5,20.7,29.47,West,270,0.0,0.0,50,0.00,,,-99.99,1.0,HOBO +U30 +Weather +,2013-02-01 01:26:00,
2013-01-31 20:27:00,37.6,20.6,29.47,SW,226,0.0,0.0,49,0.00,,,-99.99,1.0,HOBO +U30 +Weather +,2013-02-01 01:27:00,
2013-01-31 20:28:00,37.6,20.8,29.46,North,355,0.0,0.0,50,0.00,,,-99.99,1.0,HOBO +U30 +Weather +,2013-02-01 01:28:00,
2013-01-31 20:29:00,37.6,20.6,29.46,West,277,0.0,0.0,49,0.00,,,-99.99,1.0,HOBO +U30 +Weather +,2013-02-01 01:29:00,
2013-01-31 20:30:00,37.4,20.6,29.46,West,268,0.0,0.0,50,0.00,,,-99.99,1.0,HOBO +U30 +Weather +,2013-02-01 01:30:00,
2013-01-31 20:31:00,37.2,20.6,29.46,NW,312,0.0,0.0,50,0.00,,,-99.99,1.0,HOBO +U30 +Weather +,2013-02-01 01:31:00,
2013-01-31 20:32:00,37.4,20.2,29.46,NW,313,0.0,0.0,49,0.00,,,-99.99,1.0,HOBO +U30 +Weather +,2013-02-01 01:32:00,
2013-01-31 20:33:00,37.3,20.6,29.46,SW,233,0.0,0.0,50,0.00,,,-99.99,1.0,HOBO +U30 +Weather +,2013-02-01 01:33:00,
2013-01-31 20:34:00,37.0,20.7,29.46,WSW,257,0.0,0.0,51,0.00,,,-99.99,1.0,HOBO +U30 +Weather +,2013-02-01 01:34:00,
2013-01-31 20:35:00,37.0,20.4,29.47,WSW,241,0.0,0.0,50,0.00,,,-99.99,1.0,HOBO +U30 +Weather +,2013-02-01 01:35:00,
2013-01-31 20:36:00,37.0,20.6,29.47,WNW,292,0.0,0.0,50,0.00,,,-99.99,1.0,HOBO +U30 +Weather +,2013-02-01 01:36:00,
2013-01-31 20:37:00,36.9,20.5,29.46,WSW,250,0.0,0.0,51,0.00,,,-99.99,1.0,HOBO +U30 +Weather +,2013-02-01 01:37:00,
2013-01-31 20:38:00,37.0,20.6,29.47,WSW,241,0.0,0.0,51,0.00,,,-99.99,1.0,HOBO +U30 +Weather +,2013-02-01 01:38:00,
2013-01-31 20:39:00,37.0,20.5,29.47,SW,229,0.0,0.0,50,0.00,,,-99.99,1.0,HOBO +U30 +Weather +,2013-02-01 01:39:00,
2013-01-31 20:40:00,36.9,20.6,29.46,SW,234,0.0,0.0,51,0.00,,,-99.99,1.0,HOBO +U30 +Weather +,2013-02-01 01:40:00,
2013-01-31 20:41:00,36.8,20.8,29.47,WSW,247,0.0,0.0,51,0.00,,,-99.99,1.0,HOBO +U30 +Weather +,2013-02-01 01:41:00,
2013-01-31 20:42:00,36.6,20.8,29.47,WSW,247,0.0,0.0,52,0.00,,,-99.99,1.0,HOBO +U30 +Weather +,2013-02-01 01:42:00,
2013-01-31 20:43:00,36.5,20.8,29.46,WSW,247,0.0,0.0,52,0.00,,,-99.99,1.0,HOBO +U30 +Weather +,2013-02-01 01:43:00,
2013-01-31 20:44:00,36.6,20.9,29.46,WNW,292,0.0,0.0,52,0.00,,,-99.99,1.0,HOBO +U30 +Weather +,2013-02-01 01:44:00,
2013-01-31 20:45:00,36.6,21.0,29.46,WNW,299,0.0,0.0,52,0.00,,,-99.99,1.0,HOBO +U30 +Weather +,2013-02-01 01:45:00,
2013-01-31 20:46:00,36.6,21.0,29.46,West,267,0.0,0.0,52,0.00,,,-99.99,1.0,HOBO +U30 +Weather +,2013-02-01 01:46:00,
2013-01-31 20:47:00,36.7,21.3,29.46,SW,226,0.0,0.0,53,0.00,,,-99.99,1.0,HOBO +U30 +Weather +,2013-02-01 01:47:00,
2013-01-31 20:48:00,36.7,21.3,29.47,West,263,0.0,0.0,53,0.00,,,-99.99,1.0,HOBO +U30 +Weather +,2013-02-01 01:48:00,
2013-01-31 20:49:00,36.5,21.5,29.47,West,271,0.0,0.0,54,0.00,,,-99.99,1.0,HOBO +U30 +Weather +,2013-02-01 01:49:00,
2013-01-31 20:50:00,36.4,21.8,29.47,SSW,212,0.0,0.0,55,0.00,,,-99.99,1.0,HOBO +U30 +Weather +,2013-02-01 01:50:00,
2013-01-31 20:51:00,36.3,21.8,29.46,West,272,0.0,0.0,55,0.00,,,-99.99,1.0,HOBO +U30 +Weather +,2013-02-01 01:51:00,
2013-01-31 20:52:00,36.3,22.2,29.47,SW,226,0.0,0.0,56,0.00,,,-99.99,1.0,HOBO +U30 +Weather +,2013-02-01 01:52:00,
2013-01-31 20:53:00,36.2,22.4,29.47,SW,234,0.0,0.0,56,0.00,,,-99.99,1.0,HOBO +U30 +Weather +,2013-02-01 01:53:00,
2013-01-31 20:54:00,36.2,22.4,29.47,WSW,256,0.0,0.0,56,0.00,,,-99.99,1.0,HOBO +U30 +Weather +,2013-02-01 01:54:00,
2013-01-31 20:55:00,36.2,22.2,29.47,NW,321,0.0,0.0,56,0.00,,,-99.99,1.0,HOBO +U30 +Weather +,2013-02-01 01:55:00,
2013-01-31 20:56:00,36.3,22.2,29.47,WSW,248,0.0,0.0,56,0.00,,,-99.99,1.0,HOBO +U30 +Weather +,2013-02-01 01:56:00,
2013-01-31 20:57:00,36.4,22.2,29.47,SW,232,0.0,0.0,56,0.00,,,-99.99,1.0,HOBO +U30 +Weather +,2013-02-01 01:57:00,
2013-01-31 20:58:00,36.2,22.2,29.47,SSW,213,0.0,0.0,56,0.00,,,-99.99,1.0,HOBO +U30 +Weather +,2013-02-01 01:58:00,
2013-01-31 20:59:00,36.1,21.8,29.47,West,267,0.0,0.0,55,0.00,,,-99.99,1.0,HOBO +U30 +Weather +,2013-02-01 01:59:00,
2013-01-31 21:00:00,36.1,21.8,29.47,WSW,258,0.0,0.0,55,0.00,,,-99.99,1.0,HOBO +U30 +Weather +,2013-02-01 02:00:00,
2013-01-31 21:01:00,36.0,21.8,29.48,SW,227,0.0,0.0,55,0.00,,,-99.99,1.0,HOBO +U30 +Weather +,2013-02-01 02:01:00,
2013-01-31 21:02:00,36.1,21.6,29.48,South,190,0.0,0.0,55,0.00,,,-99.99,1.0,HOBO +U30 +Weather +,2013-02-01 02:02:00,
2013-01-31 21:03:00,36.1,21.6,29.47,SSW,206,0.0,0.0,55,0.00,,,-99.99,1.0,HOBO +U30 +Weather +,2013-02-01 02:03:00,
2013-01-31 21:04:00,36.1,21.6,29.48,SW,229,0.0,0.0,55,0.00,,,-99.99,1.0,HOBO +U30 +Weather +,2013-02-01 02:04:00,
2013-01-31 21:05:00,35.9,21.8,29.48,NW,306,0.0,0.0,56,0.00,,,-99.99,1.0,HOBO +U30 +Weather +,2013-02-01 02:05:00,
2013-01-31 21:06:00,35.9,21.5,29.48,NW,320,0.0,0.0,55,0.00,,,-99.99,1.0,HOBO +U30 +Weather +,2013-02-01 02:06:00,
2013-01-31 21:07:00,36.0,21.1,29.48,WSW,251,0.0,0.0,54,0.00,,,-99.99,1.0,HOBO +U30 +Weather +,2013-02-01 02:07:00,
2013-01-31 21:08:00,35.8,21.1,29.49,WNW,292,0.0,0.0,54,0.00,,,-99.99,1.0,HOBO +U30 +Weather +,2013-02-01 02:08:00,
2013-01-31 21:09:00,35.6,21.0,29.48,SW,232,0.0,0.0,54,0.00,,,-99.99,1.0,HOBO +U30 +Weather +,2013-02-01 02:09:00,
2013-01-31 21:10:00,35.4,21.1,29.49,SW,229,0.0,0.0,55,0.00,,,-99.99,1.0,HOBO +U30 +Weather +,2013-02-01 02:10:00,
2013-01-31 21:11:00,35.5,20.8,29.49,NW,312,0.0,0.0,54,0.00,,,-99.99,1.0,HOBO +U30 +Weather +,2013-02-01 02:11:00,
2013-01-31 21:12:00,35.4,20.9,29.48,SSW,208,0.0,0.0,55,0.00,,,-99.99,1.0,HOBO +U30 +Weather +,2013-02-01 02:12:00,
2013-01-31 21:13:00,35.5,20.9,29.48,SW,236,0.0,0.0,54,0.00,,,-99.99,1.0,HOBO +U30 +Weather +,2013-02-01 02:13:00,
2013-01-31 21:14:00,35.4,20.6,29.49,SW,227,0.0,0.0,54,0.00,,,-99.99,1.0,HOBO +U30 +Weather +,2013-02-01 02:14:00,
2013-01-31 21:15:00,35.4,20.5,29.49,WSW,250,0.0,0.0,54,0.00,,,-99.99,1.0,HOBO +U30 +Weather +,2013-02-01 02:15:00,
2013-01-31 21:16:00,35.3,20.5,29.49,WSW,258,0.0,0.0,54,0.00,,,-99.99,1.0,HOBO +U30 +Weather +,2013-02-01 02:16:00,
2013-01-31 21:17:00,35.1,20.9,29.49,West,263,0.0,0.0,55,0.00,,,-99.99,1.0,HOBO +U30 +Weather +,2013-02-01 02:17:00,
2013-01-31 21:18:00,34.9,20.9,29.49,WNW,284,0.0,0.0,56,0.00,,,-99.99,1.0,HOBO +U30 +Weather +,2013-02-01 02:18:00,
2013-01-31 21:19:00,35.0,20.5,29.49,West,277,0.0,0.0,55,0.00,,,-99.99,1.0,HOBO +U30 +Weather +,2013-02-01 02:19:00,
2013-01-31 21:20:00,35.0,20.8,29.49,West,260,0.0,0.0,55,0.00,,,-99.99,1.0,HOBO +U30 +Weather +,2013-02-01 02:20:00,
2013-01-31 21:21:00,35.0,20.7,29.49,SW,220,0.0,0.0,55,0.00,,,-99.99,1.0,HOBO +U30 +Weather +,2013-02-01 02:21:00,
2013-01-31 21:22:00,35.0,20.6,29.49,SW,230,0.0,0.0,55,0.00,,,-99.99,1.0,HOBO +U30 +Weather +,2013-02-01 02:22:00,
2013-01-31 21:23:00,35.1,20.5,29.49,West,278,0.0,0.0,54,0.00,,,-99.99,1.0,HOBO +U30 +Weather +,2013-02-01 02:23:00,
2013-01-31 21:24:00,35.2,20.5,29.49,NW,307,0.0,0.0,54,0.00,,,-99.99,1.0,HOBO +U30 +Weather +,2013-02-01 02:24:00,
2013-01-31 21:25:00,35.1,20.5,29.49,WSW,256,0.0,0.0,54,0.00,,,-99.99,1.0,HOBO +U30 +Weather +,2013-02-01 02:25:00,
2013-01-31 21:26:00,35.1,20.4,29.49,WNW,303,0.0,0.0,54,0.00,,,-99.99,1.0,HOBO +U30 +Weather +,2013-02-01 02:26:00,
2013-01-31 21:27:00,35.1,20.4,29.50,WNW,285,0.0,0.0,54,0.00,,,-99.99,1.0,HOBO +U30 +Weather +,2013-02-01 02:27:00,
2013-01-31 21:28:00,35.1,20.2,29.50,WNW,299,0.0,0.0,54,0.00,,,-99.99,1.0,HOBO +U30 +Weather +,2013-02-01 02:28:00,
2013-01-31 21:29:00,35.1,20.3,29.49,WSW,254,0.0,0.0,54,0.00,,,-99.99,1.0,HOBO +U30 +Weather +,2013-02-01 02:29:00,
2013-01-31 21:30:00,35.0,20.3,29.50,WNW,302,0.0,0.0,54,0.00,,,-99.99,1.0,HOBO +U30 +Weather +,2013-02-01 02:30:00,
2013-01-31 21:31:00,34.9,20.1,29.49,NNW,327,0.0,0.0,54,0.00,,,-99.99,1.0,HOBO +U30 +Weather +,2013-02-01 02:31:00,
2013-01-31 21:32:00,35.0,20.3,29.50,West,268,0.0,0.0,54,0.00,,,-99.99,1.0,HOBO +U30 +Weather +,2013-02-01 02:32:00,
2013-01-31 21:33:00,34.9,20.2,29.49,NW,317,0.0,0.0,54,0.00,,,-99.99,1.0,HOBO +U30 +Weather +,2013-02-01 02:33:00,
2013-01-31 21:34:00,34.8,20.2,29.50,WNW,284,0.0,0.0,54,0.00,,,-99.99,1.0,HOBO +U30 +Weather +,2013-02-01 02:34:00,
2013-01-31 21:35:00,34.7,20.2,29.49,WSW,254,0.0,0.0,55,0.00,,,-99.99,1.0,HOBO +U30 +Weather +,2013-02-01 02:35:00,
2013-01-31 21:36:00,34.7,20.3,29.50,WNW,291,0.0,0.0,55,0.00,,,-99.99,1.0,HOBO +U30 +Weather +,2013-02-01 02:36:00,
2013-01-31 21:37:00,34.7,20.2,29.50,NW,309,0.0,0.0,55,0.00,,,-99.99,1.0,HOBO +U30 +Weather +,2013-02-01 02:37:00,
2013-01-31 21:38:00,34.8,20.0,29.50,NW,316,0.0,0.0,54,0.00,,,-99.99,1.0,HOBO +U30 +Weather +,2013-02-01 02:38:00,
2013-01-31 21:39:00,34.8,20.0,29.50,WSW,237,0.0,0.0,54,0.00,,,-99.99,1.0,HOBO +U30 +Weather +,2013-02-01 02:39:00,
2013-01-31 21:40:00,34.7,19.8,29.49,SSW,208,0.0,0.0,54,0.00,,,-99.99,1.0,HOBO +U30 +Weather +,2013-02-01 02:40:00,
2013-01-31 21:41:00,34.7,19.8,29.51,West,268,0.0,0.0,54,0.00,,,-99.99,1.0,HOBO +U30 +Weather +,2013-02-01 02:41:00,
2013-01-31 21:42:00,34.6,19.6,29.51,WNW,289,0.0,0.0,53,0.00,,,-99.99,1.0,HOBO +U30 +Weather +,2013-02-01 02:42:00,
2013-01-31 21:43:00,34.6,19.4,29.51,WNW,286,0.0,0.0,53,0.00,,,-99.99,1.0,HOBO +U30 +Weather +,2013-02-01 02:43:00,
2013-01-31 21:44:00,34.6,19.3,29.51,NNW,344,0.0,0.0,53,0.00,,,-99.99,1.0,HOBO +U30 +Weather +,2013-02-01 02:44:00,
2013-01-31 21:45:00,34.5,19.4,29.51,WNW,291,0.0,0.0,53,0.00,,,-99.99,1.0,HOBO +U30 +Weather +,2013-02-01 02:45:00,
2013-01-31 21:46:00,34.4,19.7,29.51,WSW,239,0.0,0.0,54,0.00,,,-99.99,1.0,HOBO +U30 +Weather +,2013-02-01 02:46:00,
2013-01-31 21:47:00,34.3,19.6,29.52,SW,226,0.0,0.0,54,0.00,,,-99.99,1.0,HOBO +U30 +Weather +,2013-02-01 02:47:00,
2013-01-31 21:48:00,34.2,19.7,29.51,West,268,0.0,0.0,54,0.00,,,-99.99,1.0,HOBO +U30 +Weather +,2013-02-01 02:48:00,
2013-01-31 21:49:00,34.1,19.6,29.51,WSW,254,0.0,0.0,54,0.00,,,-99.99,1.0,HOBO +U30 +Weather +,2013-02-01 02:49:00,
2013-01-31 21:50:00,34.0,19.5,29.51,West,267,0.0,0.0,55,0.00,,,-99.99,1.0,HOBO +U30 +Weather +,2013-02-01 02:50:00,
2013-01-31 21:51:00,34.0,19.4,29.51,West,279,0.0,0.0,54,0.00,,,-99.99,1.0,HOBO +U30 +Weather +,2013-02-01 02:51:00,
2013-01-31 21:52:00,34.0,19.4,29.51,NW,306,0.0,0.0,54,0.00,,,-99.99,1.0,HOBO +U30 +Weather +,2013-02-01 02:52:00,
2013-01-31 21:53:00,33.9,19.3,29.51,West,265,0.0,0.0,54,0.00,,,-99.99,1.0,HOBO +U30 +Weather +,2013-02-01 02:53:00,
2013-01-31 21:54:00,33.9,19.5,29.50,SW,222,0.0,0.0,55,0.00,,,-99.99,1.0,HOBO +U30 +Weather +,2013-02-01 02:54:00,
2013-01-31 21:55:00,34.0,19.3,29.52,West,278,0.0,0.0,54,0.00,,,-99.99,1.0,HOBO +U30 +Weather +,2013-02-01 02:55:00,
2013-01-31 21:56:00,34.0,19.1,29.51,WNW,282,0.0,0.0,53,0.00,,,-99.99,1.0,HOBO +U30 +Weather +,2013-02-01 02:56:00,
2013-01-31 21:57:00,34.1,18.9,29.51,WSW,244,0.0,0.0,53,0.00,,,-99.99,1.0,HOBO +U30 +Weather +,2013-02-01 02:57:00,
2013-01-31 21:58:00,34.0,19.1,29.51,WNW,289,0.0,0.0,53,0.00,,,-99.99,1.0,HOBO +U30 +Weather +,2013-02-01 02:58:00,
2013-01-31 21:59:00,33.9,19.2,29.51,WSW,240,0.0,0.0,54,0.00,,,-99.99,1.0,HOBO +U30 +Weather +,2013-02-01 02:59:00,
2013-01-31 22:00:00,33.9,19.0,29.51,West,268,0.0,0.0,54,0.00,,,-99.99,1.0,HOBO +U30 +Weather +,2013-02-01 03:00:00,
2013-01-31 22:01:00,33.8,19.0,29.51,WSW,240,0.0,0.0,54,0.00,,,-99.99,1.0,HOBO +U30 +Weather +,2013-02-01 03:01:00,
2013-01-31 22:02:00,33.8,18.9,29.51,West,263,0.0,0.0,53,0.00,,,-99.99,1.0,HOBO +U30 +Weather +,2013-02-01 03:02:00,
2013-01-31 22:03:00,33.7,19.2,29.51,SW,229,0.0,0.0,54,0.00,,,-99.99,1.0,HOBO +U30 +Weather +,2013-02-01 03:03:00,
2013-01-31 22:04:00,33.6,19.2,29.52,SW,234,0.0,0.0,55,0.00,,,-99.99,1.0,HOBO +U30 +Weather +,2013-02-01 03:04:00,
2013-01-31 22:05:00,33.6,18.9,29.52,West,278,0.0,0.0,54,0.00,,,-99.99,1.0,HOBO +U30 +Weather +,2013-02-01 03:05:00,
2013-01-31 22:06:00,33.7,18.7,29.52,NW,307,0.0,0.0,53,0.00,,,-99.99,1.0,HOBO +U30 +Weather +,2013-02-01 03:06:00,
2013-01-31 22:07:00,33.8,18.9,29.52,SW,229,0.0,0.0,54,0.00,,,-99.99,1.0,HOBO +U30 +Weather +,2013-02-01 03:07:00,
2013-01-31 22:08:00,33.7,19.0,29.52,NW,314,0.0,0.0,54,0.00,,,-99.99,1.0,HOBO +U30 +Weather +,2013-02-01 03:08:00,
2013-01-31 22:09:00,33.6,19.0,29.52,NW,305,0.0,0.0,54,0.00,,,-99.99,1.0,HOBO +U30 +Weather +,2013-02-01 03:09:00,
2013-01-31 22:10:00,33.5,19.2,29.52,WSW,250,0.0,0.0,55,0.00,,,-99.99,1.0,HOBO +U30 +Weather +,2013-02-01 03:10:00,
2013-01-31 22:11:00,33.5,19.1,29.52,WNW,302,0.0,0.0,55,0.00,,,-99.99,1.0,HOBO +U30 +Weather +,2013-02-01 03:11:00,
2013-01-31 22:12:00,33.7,19.0,29.52,SW,219,0.0,0.0,54,0.00,,,-99.99,1.0,HOBO +U30 +Weather +,2013-02-01 03:12:00,
2013-01-31 22:13:00,33.8,19.4,29.52,SSW,212,0.0,0.0,55,0.00,,,-99.99,1.0,HOBO +U30 +Weather +,2013-02-01 03:13:00,
2013-01-31 22:14:00,33.8,19.4,29.51,NW,310,0.0,0.0,55,0.00,,,-99.99,1.0,HOBO +U30 +Weather +,2013-02-01 03:14:00,
2013-01-31 22:15:00,33.7,19.5,29.52,West,270,0.0,0.0,55,0.00,,,-99.99,1.0,HOBO +U30 +Weather +,2013-02-01 03:15:00,
2013-01-31 22:16:00,33.6,19.5,29.52,WSW,247,0.0,0.0,55,0.00,,,-99.99,1.0,HOBO +U30 +Weather +,2013-02-01 03:16:00,
2013-01-31 22:17:00,33.6,19.2,29.52,West,278,0.0,0.0,55,0.00,,,-99.99,1.0,HOBO +U30 +Weather +,2013-02-01 03:17:00,
2013-01-31 22:18:00,33.7,19.5,29.52,WSW,237,0.0,0.0,55,0.00,,,-99.99,1.0,HOBO +U30 +Weather +,2013-02-01 03:18:00,
2013-01-31 22:19:00,33.6,19.6,29.53,WSW,246,0.0,0.0,56,0.00,,,-99.99,1.0,HOBO +U30 +Weather +,2013-02-01 03:19:00,
2013-01-31 22:20:00,33.5,19.7,29.52,West,264,0.0,0.0,56,0.00,,,-99.99,1.0,HOBO +U30 +Weather +,2013-02-01 03:20:00,
2013-01-31 22:21:00,33.4,19.9,29.52,West,260,0.0,0.0,57,0.00,,,-99.99,1.0,HOBO +U30 +Weather +,2013-02-01 03:21:00,
2013-01-31 22:22:00,33.2,19.9,29.52,SW,230,0.0,0.0,57,0.00,,,-99.99,1.0,HOBO +U30 +Weather +,2013-02-01 03:22:00,
2013-01-31 22:23:00,33.0,20.3,29.53,WNW,284,0.0,0.0,59,0.00,,,-99.99,1.0,HOBO +U30 +Weather +,2013-02-01 03:23:00,
2013-01-31 22:24:00,32.8,20.1,29.53,West,263,0.0,0.0,59,0.00,,,-99.99,1.0,HOBO +U30 +Weather +,2013-02-01 03:24:00,
2013-01-31 22:25:00,32.9,20.2,29.53,NW,319,0.0,0.0,58,0.00,,,-99.99,1.0,HOBO +U30 +Weather +,2013-02-01 03:25:00,
2013-01-31 22:26:00,33.0,20.2,29.53,SSW,213,0.0,0.0,59,0.00,,,-99.99,1.0,HOBO +U30 +Weather +,2013-02-01 03:26:00,
2013-01-31 22:27:00,33.0,20.2,29.52,WSW,244,0.0,0.0,59,0.00,,,-99.99,1.0,HOBO +U30 +Weather +,2013-02-01 03:27:00,
2013-01-31 22:28:00,32.9,20.1,29.53,SW,226,0.0,0.0,59,0.00,,,-99.99,1.0,HOBO +U30 +Weather +,2013-02-01 03:28:00,
2013-01-31 22:29:00,32.9,19.7,29.52,WSW,246,0.0,0.0,57,0.00,,,-99.99,1.0,HOBO +U30 +Weather +,2013-02-01 03:29:00,
2013-01-31 22:30:00,32.9,19.4,29.52,SW,222,0.0,0.0,57,0.00,,,-99.99,1.0,HOBO +U30 +Weather +,2013-02-01 03:30:00,
2013-01-31 22:31:00,33.2,18.8,29.53,SW,236,0.0,0.0,55,0.00,,,-99.99,1.0,HOBO +U30 +Weather +,2013-02-01 03:31:00,
2013-01-31 22:32:00,33.2,18.4,29.53,SW,225,0.0,0.0,54,0.00,,,-99.99,1.0,HOBO +U30 +Weather +,2013-02-01 03:32:00,
2013-01-31 22:33:00,33.3,17.7,29.53,West,272,0.0,0.0,52,0.00,,,-99.99,1.0,HOBO +U30 +Weather +,2013-02-01 03:33:00,
2013-01-31 22:34:00,33.3,18.0,29.53,West,268,0.0,0.0,52,0.00,,,-99.99,1.0,HOBO +U30 +Weather +,2013-02-01 03:34:00,
2013-01-31 22:35:00,33.1,17.8,29.52,SW,236,0.0,0.0,52,0.00,,,-99.99,1.0,HOBO +U30 +Weather +,2013-02-01 03:35:00,
2013-01-31 22:36:00,33.0,17.8,29.53,SSW,209,0.0,0.0,53,0.00,,,-99.99,1.0,HOBO +U30 +Weather +,2013-02-01 03:36:00,
2013-01-31 22:37:00,33.1,18.0,29.53,SW,236,0.0,0.0,53,0.00,,,-99.99,1.0,HOBO +U30 +Weather +,2013-02-01 03:37:00,
2013-01-31 22:38:00,33.0,17.9,29.53,WNW,289,0.0,0.0,53,0.00,,,-99.99,1.0,HOBO +U30 +Weather +,2013-02-01 03:38:00,
2013-01-31 22:39:00,33.1,17.4,29.53,West,264,0.0,0.0,52,0.00,,,-99.99,1.0,HOBO +U30 +Weather +,2013-02-01 03:39:00,
2013-01-31 22:40:00,33.1,17.5,29.54,SW,230,0.0,0.0,52,0.00,,,-99.99,1.0,HOBO +U30 +Weather +,2013-02-01 03:40:00,
2013-01-31 22:41:00,33.0,17.7,29.53,SSW,197,0.0,0.0,53,0.00,,,-99.99,1.0,HOBO +U30 +Weather +,2013-02-01 03:41:00,
2013-01-31 22:42:00,32.8,17.9,29.54,West,279,0.0,0.0,53,0.00,,,-99.99,1.0,HOBO +U30 +Weather +,2013-02-01 03:42:00,
2013-01-31 22:43:00,32.8,17.5,29.54,West,261,0.0,0.0,52,0.00,,,-99.99,1.0,HOBO +U30 +Weather +,2013-02-01 03:43:00,
2013-01-31 22:44:00,32.8,17.6,29.54,SW,225,0.0,0.0,52,0.00,,,-99.99,1.0,HOBO +U30 +Weather +,2013-02-01 03:44:00,
2013-01-31 22:45:00,32.8,17.6,29.53,West,271,0.0,0.0,53,0.00,,,-99.99,1.0,HOBO +U30 +Weather +,2013-02-01 03:45:00,
2013-01-31 22:46:00,32.7,17.6,29.53,WSW,243,0.0,0.0,53,0.00,,,-99.99,1.0,HOBO +U30 +Weather +,2013-02-01 03:46:00,
2013-01-31 22:47:00,32.7,17.6,29.54,West,263,0.0,0.0,53,0.00,,,-99.99,1.0,HOBO +U30 +Weather +,2013-02-01 03:47:00,
2013-01-31 22:48:00,32.7,17.5,29.54,SW,227,0.0,0.0,53,0.00,,,-99.99,1.0,HOBO +U30 +Weather +,2013-02-01 03:48:00,
2013-01-31 22:49:00,32.5,18.0,29.54,SW,226,0.0,0.0,54,0.00,,,-99.99,1.0,HOBO +U30 +Weather +,2013-02-01 03:49:00,
2013-01-31 22:50:00,32.5,18.0,29.54,WSW,251,0.0,0.0,54,0.00,,,-99.99,1.0,HOBO +U30 +Weather +,2013-02-01 03:50:00,
2013-01-31 22:51:00,32.5,17.9,29.54,SSW,208,0.0,0.0,54,0.00,,,-99.99,1.0,HOBO +U30 +Weather +,2013-02-01 03:51:00,
2013-01-31 22:52:00,32.5,18.1,29.53,WSW,237,0.0,0.0,55,0.00,,,-99.99,1.0,HOBO +U30 +Weather +,2013-02-01 03:52:00,
2013-01-31 22:53:00,32.5,18.0,29.53,SW,226,0.0,0.0,54,0.00,,,-99.99,1.0,HOBO +U30 +Weather +,2013-02-01 03:53:00,
2013-01-31 22:54:00,32.5,17.9,29.54,West,260,0.0,0.0,54,0.00,,,-99.99,1.0,HOBO +U30 +Weather +,2013-02-01 03:54:00,
2013-01-31 22:55:00,32.4,18.1,29.54,West,278,0.0,0.0,55,0.00,,,-99.99,1.0,HOBO +U30 +Weather +,2013-02-01 03:55:00,
2013-01-31 22:56:00,32.5,18.4,29.54,WSW,244,0.0,0.0,55,0.00,,,-99.99,1.0,HOBO +U30 +Weather +,2013-02-01 03:56:00,
2013-01-31 22:57:00,32.5,18.0,29.53,West,264,0.0,0.0,54,0.00,,,-99.99,1.0,HOBO +U30 +Weather +,2013-02-01 03:57:00,
2013-01-31 22:58:00,32.5,18.1,29.54,WSW,239,0.0,0.0,55,0.00,,,-99.99,1.0,HOBO +U30 +Weather +,2013-02-01 03:58:00,
2013-01-31 22:59:00,32.5,18.3,29.54,West,281,0.0,0.0,55,0.00,,,-99.99,1.0,HOBO +U30 +Weather +,2013-02-01 03:59:00,
2013-01-31 23:00:00,32.4,18.1,29.54,WNW,289,0.0,0.0,55,0.00,,,-99.99,1.0,HOBO +U30 +Weather +,2013-02-01 04:00:00,
2013-01-31 23:01:00,32.4,18.2,29.53,West,275,0.0,0.0,55,0.00,,,-99.99,1.0,HOBO +U30 +Weather +,2013-02-01 04:01:00,
2013-01-31 23:02:00,32.3,18.4,29.54,SW,226,0.0,0.0,55,0.00,,,-99.99,1.0,HOBO +U30 +Weather +,2013-02-01 04:02:00,
2013-01-31 23:03:00,32.4,18.3,29.54,West,265,0.0,0.0,55,0.00,,,-99.99,1.0,HOBO +U30 +Weather +,2013-02-01 04:03:00,
2013-01-31 23:04:00,32.3,18.3,29.54,WSW,248,0.0,0.0,55,0.00,,,-99.99,1.0,HOBO +U30 +Weather +,2013-02-01 04:04:00,
2013-01-31 23:05:00,32.2,18.3,29.54,West,265,0.0,0.0,55,0.00,,,-99.99,1.0,HOBO +U30 +Weather +,2013-02-01 04:05:00,
2013-01-31 23:06:00,32.5,18.2,29.54,West,268,0.0,0.0,55,0.00,,,-99.99,1.0,HOBO +U30 +Weather +,2013-02-01 04:06:00,
2013-01-31 23:07:00,32.5,18.1,29.54,WSW,248,0.0,0.0,54,0.00,,,-99.99,1.0,HOBO +U30 +Weather +,2013-02-01 04:07:00,
2013-01-31 23:08:00,32.4,18.2,29.54,West,267,0.0,0.0,55,0.00,,,-99.99,1.0,HOBO +U30 +Weather +,2013-02-01 04:08:00,
2013-01-31 23:12:00,32.0,18.7,29.54,WSW,247,0.0,0.0,57,0.00,,,-99.99,1.0,HOBO +U30 +Weather +,2013-02-01 04:12:00,
2013-01-31 23:13:00,31.9,18.7,29.54,WNW,293,0.0,0.0,57,0.00,,,-99.99,1.0,HOBO +U30 +Weather +,2013-02-01 04:13:00,
2013-01-31 23:14:00,32.0,18.8,29.54,WNW,295,0.0,0.0,57,0.00,,,-99.99,1.0,HOBO +U30 +Weather +,2013-02-01 04:14:00,
2013-01-31 23:15:00,32.2,18.7,29.54,West,270,0.0,0.0,57,0.00,,,-99.99,1.0,HOBO +U30 +Weather +,2013-02-01 04:15:00,
2013-01-31 23:16:00,32.2,18.6,29.55,SSW,206,0.0,0.0,56,0.00,,,-99.99,1.0,HOBO +U30 +Weather +,2013-02-01 04:16:00,
2013-01-31 23:17:00,32.2,18.6,29.54,WSW,246,0.0,0.0,56,0.00,,,-99.99,1.0,HOBO +U30 +Weather +,2013-02-01 04:17:00,
2013-01-31 23:18:00,32.1,18.6,29.54,WSW,246,0.0,0.0,57,0.00,,,-99.99,1.0,HOBO +U30 +Weather +,2013-02-01 04:18:00,
2013-01-31 23:19:00,31.9,18.6,29.55,WNW,282,0.0,0.0,57,0.00,,,-99.99,1.0,HOBO +U30 +Weather +,2013-02-01 04:19:00,
2013-01-31 23:20:00,32.0,18.3,29.55,West,267,0.0,0.0,56,0.00,,,-99.99,1.0,HOBO +U30 +Weather +,2013-02-01 04:20:00,
2013-01-31 23:21:00,32.1,18.0,29.54,WNW,302,0.0,0.0,55,0.00,,,-99.99,1.0,HOBO +U30 +Weather +,2013-02-01 04:21:00,
2013-01-31 23:22:00,32.1,18.2,29.55,SW,233,0.0,0.0,56,0.00,,,-99.99,1.0,HOBO +U30 +Weather +,2013-02-01 04:22:00,
2013-01-31 23:23:00,32.1,18.4,29.54,West,270,0.0,0.0,56,0.00,,,-99.99,1.0,HOBO +U30 +Weather +,2013-02-01 04:23:00,
2013-01-31 23:24:00,32.2,18.1,29.55,WSW,253,0.0,0.0,55,0.00,,,-99.99,1.0,HOBO +U30 +Weather +,2013-02-01 04:24:00,
2013-01-31 23:25:00,32.2,18.2,29.55,WNW,302,0.0,0.0,55,0.00,,,-99.99,1.0,HOBO +U30 +Weather +,2013-02-01 04:25:00,
2013-01-31 23:26:00,32.1,18.3,29.55,WNW,293,0.0,0.0,56,0.00,,,-99.99,1.0,HOBO +U30 +Weather +,2013-02-01 04:26:00,
2013-01-31 23:27:00,31.9,18.5,29.55,SW,218,0.0,0.0,57,0.00,,,-99.99,1.0,HOBO +U30 +Weather +,2013-02-01 04:27:00,
2013-01-31 23:28:00,31.8,18.4,29.55,WSW,241,0.0,0.0,57,0.00,,,-99.99,1.0,HOBO +U30 +Weather +,2013-02-01 04:28:00,
2013-01-31 23:29:00,31.8,18.6,29.55,West,277,0.0,0.0,57,0.00,,,-99.99,1.0,HOBO +U30 +Weather +,2013-02-01 04:29:00,
2013-01-31 23:30:00,31.7,18.5,29.55,WSW,253,0.0,0.0,57,0.00,,,-99.99,1.0,HOBO +U30 +Weather +,2013-02-01 04:30:00,
2013-01-31 23:31:00,31.7,18.6,29.55,SW,230,0.0,0.0,57,0.00,,,-99.99,1.0,HOBO +U30 +Weather +,2013-02-01 04:31:00,
2013-01-31 23:32:00,31.8,18.4,29.55,WNW,295,0.0,0.0,57,0.00,,,-99.99,1.0,HOBO +U30 +Weather +,2013-02-01 04:32:00,
2013-01-31 23:33:00,31.7,18.5,29.56,SW,218,0.0,0.0,57,0.00,,,-99.99,1.0,HOBO +U30 +Weather +,2013-02-01 04:33:00,
2013-01-31 23:34:00,31.7,18.4,29.55,WNW,286,0.0,0.0,57,0.00,,,-99.99,1.0,HOBO +U30 +Weather +,2013-02-01 04:34:00,
2013-01-31 23:35:00,31.6,18.6,29.55,West,267,0.0,0.0,58,0.00,,,-99.99,1.0,HOBO +U30 +Weather +,2013-02-01 04:35:00,
2013-01-31 23:36:00,31.5,18.5,29.54,WSW,248,0.0,0.0,58,0.00,,,-99.99,1.0,HOBO +U30 +Weather +,2013-02-01 04:36:00,
2013-01-31 23:37:00,31.6,18.3,29.55,SW,227,0.0,0.0,57,0.00,,,-99.99,1.0,HOBO +U30 +Weather +,2013-02-01 04:37:00,
2013-01-31 23:38:00,31.7,18.4,29.54,SW,233,0.0,0.0,57,0.00,,,-99.99,1.0,HOBO +U30 +Weather +,2013-02-01 04:38:00,
2013-01-31 23:39:00,31.8,18.4,29.56,SW,218,0.0,0.0,57,0.00,,,-99.99,1.0,HOBO +U30 +Weather +,2013-02-01 04:39:00,
2013-01-31 23:40:00,31.9,17.7,29.54,NW,306,0.0,0.0,55,0.00,,,-99.99,1.0,HOBO +U30 +Weather +,2013-02-01 04:40:00,
2013-01-31 23:41:00,31.9,17.5,29.55,SW,230,0.0,0.0,54,0.00,,,-99.99,1.0,HOBO +U30 +Weather +,2013-02-01 04:41:00,
2013-01-31 23:42:00,31.8,17.3,29.55,WSW,244,0.0,0.0,54,0.00,,,-99.99,1.0,HOBO +U30 +Weather +,2013-02-01 04:42:00,
2013-01-31 23:43:00,31.8,17.1,29.55,WNW,298,0.0,0.0,54,0.00,,,-99.99,1.0,HOBO +U30 +Weather +,2013-02-01 04:43:00,
2013-01-31 23:44:00,31.8,17.1,29.54,WNW,293,0.0,0.0,54,0.00,,,-99.99,1.0,HOBO +U30 +Weather +,2013-02-01 04:44:00,
2013-01-31 23:45:00,31.7,17.2,29.55,SSW,213,0.0,0.0,54,0.00,,,-99.99,1.0,HOBO +U30 +Weather +,2013-02-01 04:45:00,
2013-01-31 23:50:00,31.7,17.0,29.56,West,281,0.0,0.0,53,0.00,,,-99.99,1.0,HOBO +U30 +Weather +,2013-02-01 04:50:00,
2013-01-31 23:52:00,31.7,17.2,29.55,West,265,0.0,0.0,54,0.00,,,-99.99,1.0,HOBO +U30 +Weather +,2013-02-01 04:52:00,
2013-01-31 23:53:00,31.5,17.3,29.55,SW,227,0.0,0.0,55,0.00,,,-99.99,1.0,HOBO +U30 +Weather +,2013-02-01 04:53:00,
2013-01-31 23:54:00,31.4,17.6,29.55,WNW,282,0.0,0.0,56,0.00,,,-99.99,1.0,HOBO +U30 +Weather +,2013-02-01 04:54:00,
2013-01-31 23:55:00,31.4,17.5,29.55,West,281,0.0,0.0,56,0.00,,,-99.99,1.0,HOBO +U30 +Weather +,2013-02-01 04:55:00,
2013-01-31 23:56:00,31.3,17.5,29.55,WSW,254,0.0,0.0,56,0.00,,,-99.99,1.0,HOBO +U30 +Weather +,2013-02-01 04:56:00,
2013-01-31 23:57:00,31.2,17.5,29.56,SW,226,0.0,0.0,56,0.00,,,-99.99,1.0,HOBO +U30 +Weather +,2013-02-01 04:57:00,
2013-01-31 23:58:00,31.3,17.3,29.55,WSW,241,0.0,0.0,55,0.00,,,-99.99,1.0,HOBO +U30 +Weather +,2013-02-01 04:58:00,
2013-01-31 23:59:00,31.4,17.5,29.56,West,261,0.0,0.0,55,0.00,,,-99.99,1.0,HOBO +U30 +Weather +,2013-02-01 04:59:00,